[[{"header":{"parameterUnit":"m.s-1","parameterCategory":1,"la1":30.6,"la2":28.766,"lo1":-90.7593,"lo2":-88.6598,"dy":0.0162,"dx":0.0183,"nx":116,"ny":114,"refTime":"2023-04-23T06:00:00:Z","depth":0,"parameterNumber":2,"parameterNumberName":"U-component_of_WINDS"},"data":[0.0,0.0,0.0,0.0,0.0,0.0,0.0,0.0,0.0,0.0,0.0,0.0,0.0,0.0,0.0,0.0,0.0,0.0,0.0,0.0,0.0,0.0,0.0,0.0,0.0,0.0,0.0,0.0,0.0,0.0,0.0,0.0,0.0,0.0,0.0,0.0,0.0,0.0,0.0,0.0,0.0,0.0,0.0,0.0,0.0,0.0,0.0,0.0,0.0,0.0,0.0,0.0,0.0,0.0,0.0,0.0,0.0,0.0,0.0,0.0,0.0,0.0,0.0,0.0,0.0,0.0,0.0,0.0,0.0,0.0,0.0,0.0,0.0,0.0,0.0,0.0,0.0,0.0,0.0,0.0,0.0,0.0,0.0,0.0,0.0,0.0,0.0,0.0,0.0,0.0,0.0,0.0,0.0,0.0,0.0,0.0,0.0,0.0,0.0,0.0,0.0,0.0,0.0,0.0,0.0,0.0,0.0,0.0,0.0,0.0,0.0,0.0,0.0,0.0,0.0,0.0,0.0,0.0,0.0,0.0,0.0,0.0,0.0,0.0,0.0,0.0,0.0,0.0,0.0,0.0,0.0,0.0,0.0,0.0,0.0,0.0,0.0,0.0,0.0,0.0,0.0,0.0,0.0,0.0,0.0,0.0,0.0,0.0,0.0,0.0,0.0,0.0,0.0,0.0,0.0,0.0,0.0,0.0,0.0,0.0,0.0,0.0,0.0,0.0,0.0,0.0,0.0,0.0,0.0,0.0,0.0,0.0,0.0,0.0,0.0,0.0,0.0,0.0,0.0,0.0,0.0,0.0,0.0,0.0,0.0,0.0,0.0,0.0,0.0,0.0,0.0,0.0,0.0,0.0,0.0,0.0,0.0,0.0,0.0,0.0,0.0,0.0,0.0,0.0,0.0,0.0,0.0,0.0,0.0,0.0,0.0,0.0,0.0,0.0,0.0,0.0,0.0,0.0,0.0,0.0,0.0,0.0,0.0,0.0,0.0,0.0,0.0,0.0,0.0,0.0,0.0,0.0,0.0,0.0,0.0,0.0,0.0,0.0,0.0,0.0,0.0,0.0,0.0,0.0,0.0,0.0,0.0,0.0,0.0,0.0,0.0,0.0,0.0,0.0,0.0,0.0,0.0,0.0,0.0,0.0,0.0,0.0,0.0,0.0,0.0,0.0,0.0,0.0,0.0,0.0,0.0,0.0,0.0,0.0,0.0,0.0,0.0,0.0,0.0,0.0,0.0,0.0,0.0,0.0,0.0,0.0,0.0,0.0,0.0,0.0,0.0,0.0,0.0,0.0,0.0,0.0,0.0,0.0,0.0,0.0,0.0,0.0,0.0,0.0,0.0,0.0,0.0,0.0,0.0,0.0,0.0,0.0,0.0,0.0,0.0,0.0,0.0,0.0,0.0,0.0,0.0,0.0,0.0,0.0,0.0,0.0,0.0,0.0,0.0,0.0,0.0,0.0,0.0,0.0,0.0,0.0,0.0,0.0,0.0,0.0,0.0,0.0,0.0,0.0,0.0,0.0,0.0,0.0,0.0,0.0,0.0,0.0,0.0,0.0,0.0,0.0,0.0,0.0,0.0,0.0,0.0,0.0,0.0,0.0,0.0,0.0,0.0,0.0,0.0,0.0,0.0,0.0,0.0,0.0,0.0,0.0,0.0,0.0,0.0,0.0,0.0,0.0,0.0,0.0,0.0,0.0,0.0,0.0,0.0,0.0,0.0,0.0,0.0,0.0,0.0,0.0,0.0,0.0,0.0,0.0,0.0,0.0,0.0,0.0,0.0,0.0,0.0,0.0,0.0,0.0,0.0,0.0,0.0,0.0,0.0,0.0,0.0,0.0,0.0,0.0,0.0,0.0,0.0,0.0,0.0,0.0,0.0,0.0,0.0,0.0,0.0,0.0,0.0,0.0,0.0,0.0,0.0,0.0,0.0,0.0,0.0,0.0,0.0,0.0,0.0,0.0,0.0,0.0,0.0,0.0,0.0,0.0,0.0,0.0,0.0,0.0,0.0,0.0,0.0,0.0,0.0,0.0,0.0,0.0,0.0,0.0,0.0,0.0,0.0,0.0,0.0,0.0,0.0,0.0,0.0,0.0,0.0,0.0,0.0,0.0,0.0,0.0,0.0,0.0,0.0,0.0,0.0,0.0,0.0,0.0,0.0,0.0,0.0,0.0,0.0,0.0,0.0,0.0,0.0,0.0,0.0,0.0,0.0,0.0,0.0,0.0,0.0,0.0,0.0,0.0,0.0,0.0,0.0,0.0,0.0,0.0,0.0,0.0,0.0,0.0,0.0,0.0,0.0,0.0,0.0,0.0,0.0,0.0,0.0,0.0,0.0,0.0,0.0,0.0,0.0,0.0,0.0,0.0,0.0,0.0,0.0,0.0,0.0,0.0,0.0,0.0,0.0,0.0,0.0,0.0,0.0,0.0,0.0,0.0,0.0,0.0,0.0,0.0,0.0,0.0,0.0,0.0,0.0,0.0,0.0,0.0,0.0,0.0,0.0,0.0,0.0,0.0,0.0,0.0,0.0,0.0,0.0,0.0,0.0,0.0,0.0,0.0,0.0,0.0,0.0,0.0,0.0,0.0,0.0,0.0,0.0,0.0,0.0,0.0,0.0,0.0,0.0,0.0,0.0,0.0,0.0,0.0,0.0,0.0,0.0,0.0,0.0,0.0,0.0,0.0,0.0,0.0,0.0,0.0,0.0,0.0,0.0,0.0,0.0,0.0,0.0,0.0,0.0,0.0,0.0,0.0,0.0,0.0,0.0,0.0,0.0,0.0,0.0,0.0,0.0,0.0,0.0,0.0,0.0,0.0,0.0,0.0,0.0,0.0,0.0,0.0,0.0,0.0,0.0,0.0,0.0,0.0,0.0,0.0,0.0,0.0,0.0,0.0,0.0,0.0,0.0,0.0,0.0,0.0,0.0,0.0,0.0,0.0,0.0,0.0,0.0,0.0,0.0,0.0,0.0,0.0,0.0,0.0,0.0,0.0,0.0,0.0,0.0,0.0,0.0,0.0,0.0,0.0,0.0,0.0,0.0,0.0,0.0,0.0,0.0,0.0,0.0,0.0,0.0,0.0,0.0,0.0,0.0,0.0,0.0,0.0,0.0,0.0,0.0,0.0,0.0,0.0,0.0,0.0,0.0,0.0,0.0,0.0,0.0,0.0,0.0,0.0,0.0,0.0,0.0,0.0,0.0,0.0,0.0,0.0,0.0,0.0,0.0,0.0,0.0,0.0,0.0,0.0,0.0,0.0,0.0,0.0,0.0,0.0,0.0,0.0,0.0,0.0,0.0,0.0,0.0,0.0,0.0,0.0,0.0,0.0,0.0,0.0,0.0,0.0,0.0,0.0,0.0,0.0,0.0,0.0,0.0,0.0,0.0,0.0,0.0,0.0,0.0,0.0,0.0,0.0,0.0,0.0,0.0,0.0,0.0,0.0,0.0,0.0,0.0,0.0,0.0,0.0,0.0,0.0,0.0,0.0,0.0,0.0,0.0,0.0,0.0,0.0,0.0,0.0,0.0,0.0,0.0,0.0,0.0,0.0,0.0,0.0,0.0,0.0,0.0,0.0,0.0,0.0,0.0,0.0,0.0,0.0,0.0,0.0,0.0,0.0,0.0,0.0,0.0,0.0,0.0,0.0,0.0,0.0,0.0,0.0,0.0,0.0,0.0,0.0,0.0,0.0,0.0,0.0,0.0,0.0,0.0,0.0,0.0,0.0,0.0,0.0,0.0,0.0,0.0,0.0,0.0,0.0,0.0,0.0,0.0,0.0,0.0,0.0,0.0,0.0,0.0,0.0,0.0,0.0,0.0,0.0,0.0,0.0,0.0,0.0,0.0,0.0,0.0,0.0,0.0,0.0,0.0,0.0,0.0,0.0,0.0,0.0,0.0,0.0,0.0,0.0,0.0,0.0,0.0,0.0,0.0,0.0,0.0,0.0,0.0,0.0,0.0,0.0,0.0,0.0,0.0,0.0,0.0,0.0,0.0,0.0,0.0,0.0,0.0,0.0,0.0,0.0,0.0,0.0,0.0,0.0,0.0,0.0,0.0,0.0,0.0,0.0,0.0,0.0,0.0,0.0,0.0,0.0,0.0,0.0,0.0,0.0,0.0,0.0,0.0,0.0,0.0,0.0,0.0,0.0,0.0,0.0,0.0,0.0,0.0,0.0,0.0,0.0,0.0,0.0,0.0,0.0,0.0,0.0,0.0,0.0,0.0,0.0,0.0,0.0,0.0,0.0,0.0,0.0,0.0,0.0,0.0,0.0,0.0,0.0,0.0,0.0,0.0,0.0,0.0,0.0,0.0,0.0,0.0,0.0,0.0,0.0,0.0,0.0,0.0,0.0,0.0,0.0,0.0,0.0,0.0,0.0,0.0,0.0,0.0,0.0,0.0,0.0,0.0,0.0,0.0,0.0,0.0,0.0,0.0,0.0,0.0,0.0,0.0,0.0,0.0,0.0,0.0,0.0,0.0,0.0,0.0,0.0,0.0,0.0,0.0,0.0,0.0,0.0,0.0,0.0,0.0,0.0,0.0,0.0,0.0,0.0,0.0,0.0,0.0,0.0,0.0,0.0,0.0,0.0,0.0,0.0,0.0,0.0,0.0,0.0,0.0,0.0,0.0,0.0,0.0,0.0,0.0,0.0,0.0,0.0,0.0,0.0,0.0,0.0,0.0,0.0,0.0,0.0,0.0,0.0,0.0,0.0,0.0,0.0,0.0,0.0,0.0,0.0,0.0,0.0,0.0,0.0,0.0,0.0,0.0,0.0,0.0,0.0,0.0,0.0,0.0,0.0,0.0,0.0,0.0,0.0,0.0,0.0,0.0,0.0,0.0,0.0,0.0,0.0,0.0,0.0,0.0,0.0,0.0,0.0,0.0,0.0,0.0,0.0,0.0,0.0,0.0,0.0,0.0,0.0,0.0,0.0,0.0,0.0,0.0,0.0,0.0,0.0,0.0,0.0,0.0,0.0,0.0,0.0,0.0,0.0,0.0,0.0,0.0,0.0,0.0,0.0,0.0,0.0,0.0,0.0,0.0,0.0,0.0,0.0,0.0,0.0,0.0,0.0,0.0,0.0,0.0,0.0,0.0,0.0,0.0,0.0,0.0,0.0,0.0,0.0,0.0,0.0,0.0,0.0,0.0,0.0,0.0,0.0,0.0,0.0,0.0,0.0,0.0,0.0,0.0,0.0,0.0,0.0,0.0,0.0,0.0,0.0,0.0,0.0,0.0,0.0,0.0,0.0,0.0,0.0,0.0,0.0,0.0,0.0,0.0,0.0,0.0,0.0,0.0,0.0,0.0,0.0,0.0,0.0,0.0,0.0,0.0,0.0,0.0,0.0,0.0,0.0,0.0,0.0,0.0,0.0,0.0,0.0,0.0,0.0,0.0,0.0,0.0,0.0,0.0,0.0,0.0,0.0,0.0,0.0,0.0,0.0,0.0,0.0,0.0,0.0,0.0,0.0,0.0,0.0,0.0,0.0,0.0,0.0,0.0,0.0,0.0,0.0,0.0,0.0,0.0,0.0,0.0,0.0,0.0,0.0,0.0,0.0,0.0,0.0,0.0,0.0,0.0,0.0,0.0,0.0,0.0,0.0,0.0,0.0,0.0,0.0,0.0,0.0,0.0,0.0,0.0,0.0,0.0,0.0,0.0,0.0,0.0,0.0,0.0,0.0,0.0,0.0,0.0,0.0,0.0,0.0,0.0,0.0,0.0,0.0,0.0,0.0,0.0,0.0,0.0,0.0,0.0,0.0,0.0,0.0,0.0,0.0,0.0,0.0,0.0,0.0,0.0,0.0,0.0,0.0,0.0,0.0,0.0,0.0,0.0,0.0,0.0,0.0,0.0,0.0,0.0,0.0,0.0,0.0,0.0,0.0,0.0,0.0,0.0,0.0,0.0,0.0,0.0,0.0,0.0,0.0,0.0,0.0,0.0,0.0,0.0,0.0,0.0,0.0,0.0,0.0,0.0,0.0,0.0,0.0,0.0,0.0,0.0,0.0,0.0,0.0,0.0,0.0,0.0,0.0,0.0,0.0,0.0,0.0,0.0,0.0,0.0,0.0,0.0,0.0,3.6791,0.0,0.0,0.0,0.0,0.0,0.0,0.0,0.0,0.0,0.0,0.0,0.0,0.0,0.0,0.0,0.0,0.0,0.0,0.0,0.0,0.0,0.0,0.0,0.0,0.0,0.0,0.0,0.0,0.0,0.0,0.0,0.0,0.0,0.0,0.0,0.0,0.0,0.0,0.0,3.371,3.5146,3.6951,3.6594,3.6346,3.6193,0.0,0.0,0.0,0.0,0.0,0.0,0.0,0.0,0.0,0.0,0.0,0.0,0.0,0.0,0.0,0.0,0.0,0.0,0.0,0.0,0.0,0.0,0.0,0.0,0.0,0.0,0.0,0.0,0.0,0.0,0.0,0.0,0.0,0.0,0.0,0.0,0.0,0.0,0.0,0.0,0.0,0.0,0.0,0.0,0.0,0.0,0.0,0.0,0.0,0.0,0.0,0.0,0.0,0.0,0.0,0.0,0.0,0.0,0.0,0.0,0.0,0.0,0.0,0.0,0.0,0.0,0.0,0.0,0.0,0.0,0.0,3.7105,0.0,0.0,0.0,0.0,0.0,0.0,0.0,0.0,0.0,0.0,0.0,0.0,0.0,0.0,0.0,0.0,0.0,0.0,0.0,0.0,0.0,0.0,0.0,0.0,3.119,3.119,3.1252,3.1252,0.0,0.0,0.0,0.0,0.0,0.0,0.0,3.2207,3.2963,3.3706,3.5553,3.725,3.8767,3.9845,3.9606,3.8315,3.7419,0.0,0.0,0.0,0.0,0.0,0.0,0.0,0.0,0.0,0.0,0.0,0.0,0.0,0.0,0.0,0.0,0.0,0.0,0.0,0.0,0.0,0.0,0.0,0.0,0.0,0.0,0.0,0.0,0.0,0.0,0.0,0.0,0.0,0.0,0.0,0.0,0.0,0.0,0.0,0.0,0.0,0.0,0.0,0.0,0.0,0.0,0.0,0.0,0.0,0.0,0.0,0.0,0.0,0.0,0.0,0.0,0.0,0.0,0.0,0.0,0.0,0.0,0.0,0.0,3.7764,3.7764,3.7764,3.7764,3.7749,3.7644,3.7883,3.8302,0.0,0.0,0.0,0.0,0.0,0.0,0.0,0.0,0.0,0.0,0.0,0.0,0.0,0.0,0.0,0.0,0.0,0.0,0.0,0.0,0.0,0.0,3.119,3.119,3.119,3.1507,3.1565,0.0,0.0,0.0,0.0,0.0,0.0,3.2138,3.3316,3.4631,3.6052,3.918,4.1035,4.1742,4.1904,4.1864,4.1622,4.0407,3.9649,3.9209,0.0,0.0,0.0,0.0,0.0,0.0,0.0,0.0,0.0,0.0,0.0,0.0,0.0,0.0,0.0,0.0,0.0,0.0,0.0,0.0,0.0,0.0,0.0,0.0,0.0,0.0,0.0,0.0,0.0,0.0,0.0,0.0,0.0,0.0,0.0,0.0,0.0,0.0,0.0,0.0,0.0,3.7672,3.8035,0.0,0.0,0.0,0.0,0.0,0.0,0.0,0.0,0.0,0.0,0.0,0.0,0.0,0.0,4.0435,3.971,3.9653,4.0291,3.9466,3.9155,3.9155,3.9155,3.9155,3.9125,3.8512,0.0,3.8377,3.8212,0.0,0.0,0.0,0.0,0.0,0.0,0.0,0.0,0.0,0.0,0.0,0.0,0.0,0.0,0.0,0.0,0.0,0.0,0.0,0.0,0.0,3.196,3.2369,3.2593,3.3159,3.3265,3.2647,0.0,0.0,0.0,0.0,3.3063,3.335,3.4765,3.6733,3.932,4.1089,4.2298,4.2965,4.2965,4.3063,4.3217,4.269,4.1801,4.0746,4.0447,0.0,0.0,0.0,0.0,0.0,0.0,0.0,0.0,0.0,0.0,0.0,0.0,0.0,0.0,0.0,0.0,0.0,0.0,0.0,0.0,0.0,0.0,0.0,0.0,0.0,0.0,0.0,0.0,0.0,0.0,0.0,0.0,0.0,0.0,0.0,0.0,0.0,0.0,0.0,3.7948,3.8529,3.9088,3.9428,3.9495,0.0,0.0,0.0,0.0,0.0,0.0,0.0,0.0,0.0,3.9658,3.9689,3.9838,4.0084,3.9703,3.9646,3.999,3.961,3.9424,3.9424,3.9424,3.9424,3.9409,3.9095,3.8975,3.8931,3.8556,3.8392,3.8262,0.0,0.0,0.0,0.0,0.0,3.3409,0.0,0.0,0.0,0.0,0.0,0.0,0.0,0.0,0.0,0.0,0.0,0.0,3.21,3.2997,3.3687,3.3986,3.4655,3.4761,3.4055,3.4231,0.0,0.0,3.3543,3.3953,3.448,3.6449,3.8872,4.1687,4.2315,4.291,4.3497,4.3497,4.3612,4.3881,4.4076,4.34,4.2187,4.2347,4.1851,4.0947,0.0,0.0,0.0,0.0,0.0,0.0,0.0,0.0,0.0,0.0,0.0,0.0,0.0,0.0,0.0,0.0,0.0,0.0,0.0,0.0,0.0,0.0,0.0,0.0,0.0,0.0,0.0,0.0,0.0,0.0,0.0,0.0,0.0,0.0,0.0,0.0,0.0,3.8357,3.9312,4.0273,4.0316,4.0308,0.0,0.0,0.0,0.0,0.0,0.0,3.9708,3.955,3.9495,3.9557,3.9573,3.9504,3.9409,3.9424,3.9424,3.9424,3.9424,3.9424,3.9424,3.9424,3.9424,3.9424,3.9424,3.9424,3.9379,3.8871,3.8661,3.856,3.7709,3.704,3.6532,3.5795,3.5427,3.4994,0.0,0.0,0.0,0.0,0.0,0.0,0.0,0.0,0.0,0.0,0.0,3.3026,3.3026,3.4093,3.4818,3.4835,3.528,3.5364,3.4888,3.4818,3.4585,3.4172,3.4353,3.4721,3.5243,3.8449,4.0817,4.2252,4.3057,4.3442,4.3497,4.3497,4.3532,4.3548,4.4252,4.424,4.3678,4.3369,4.2943,4.2385,4.1306,0.0,0.0,0.0,0.0,0.0,0.0,0.0,0.0,0.0,0.0,0.0,0.0,0.0,0.0,0.0,0.0,0.0,0.0,0.0,0.0,0.0,0.0,0.0,0.0,0.0,0.0,0.0,0.0,0.0,0.0,0.0,0.0,0.0,0.0,0.0,0.0,0.0,0.0,4.0948,4.0967,0.0,0.0,0.0,0.0,3.9793,3.9046,3.8874,3.9539,3.8857,3.8787,3.9406,3.9436,3.9379,3.9424,3.9424,3.9424,3.9424,3.9424,3.9424,3.9424,3.9424,3.9424,3.9424,3.9424,3.9424,3.9424,3.9379,3.9364,3.9305,3.8575,3.8292,3.8262,3.8262,3.7563,3.6656,0.0,0.0,0.0,0.0,0.0,0.0,0.0,0.0,3.1291,3.1528,3.2444,3.3316,3.3873,3.5249,3.6222,3.6549,3.7184,3.7525,3.738,3.6978,3.6577,3.6133,3.6204,3.6939,3.8467,4.0545,4.2077,4.3057,4.3351,4.3497,4.3497,4.3497,4.3497,4.3513,4.3758,4.4055,4.4321,4.4421,4.3904,4.3019,4.2616,4.1763,0.0,0.0,0.0,0.0,0.0,0.0,0.0,0.0,0.0,0.0,0.0,0.0,0.0,0.0,0.0,0.0,0.0,0.0,0.0,0.0,0.0,0.0,0.0,0.0,0.0,0.0,0.0,0.0,0.0,0.0,0.0,0.0,0.0,0.0,0.0,0.0,0.0,4.0163,4.0627,0.0,4.0913,4.0436,3.9984,3.9669,3.9305,3.9204,3.9446,3.9178,3.917,3.9409,3.9424,3.9424,3.9424,3.9424,3.9424,3.9424,3.9424,3.9424,3.9424,3.9858,4.0053,4.0068,4.0502,4.0681,4.0681,4.0681,4.0187,3.9439,3.9619,3.9679,3.9651,3.9264,3.8938,3.8396,0.0,0.0,0.0,0.0,0.0,0.0,0.0,0.0,3.1453,3.2152,3.3103,3.4094,3.5119,3.654,3.7567,3.79,3.8634,3.9001,3.8726,3.8285,3.79,3.7433,3.7683,3.8742,4.0655,4.177,4.269,4.3497,4.3497,4.3497,4.3497,4.3497,4.3497,4.3479,4.3631,4.3868,4.4252,4.4732,4.4531,4.3891,4.37,4.2701,4.124,0.0,0.0,0.0,0.0,0.0,0.0,0.0,0.0,0.0,0.0,0.0,0.0,0.0,0.0,0.0,0.0,0.0,0.0,0.0,0.0,0.0,0.0,0.0,0.0,0.0,0.0,0.0,0.0,0.0,0.0,0.0,0.0,0.0,0.0,0.0,3.9312,4.0082,4.0323,4.0488,4.0798,4.0039,3.9528,3.9528,3.9425,3.9424,3.9424,3.9424,3.9424,3.9424,3.9424,3.9424,3.9424,3.9634,3.9753,3.9753,3.9978,4.0083,4.0098,4.0531,4.0726,4.0756,4.119,4.1384,4.1384,4.1384,4.0876,4.0127,4.0561,4.0726,4.0696,4.0305,3.9967,3.9301,0.0,0.0,0.0,0.0,0.0,0.0,0.0,3.119,3.1662,3.2954,3.4164,3.54,3.6681,3.7958,3.8707,3.8707,3.9441,3.957,3.8799,3.8564,3.8308,3.7984,3.874,3.9896,4.1487,4.2063,4.2708,4.3497,4.3497,4.3497,4.3497,4.3497,4.3497,4.3513,4.3818,4.3804,4.3563,4.428,4.4757,4.502,4.4499,4.3443,4.2052,0.0,0.0,0.0,0.0,0.0,0.0,0.0,0.0,0.0,0.0,0.0,0.0,0.0,0.0,0.0,0.0,0.0,0.0,0.0,0.0,0.0,0.0,0.0,0.0,0.0,0.0,0.0,0.0,0.0,0.0,0.0,0.0,0.0,3.8534,3.9154,3.9897,4.0753,3.9994,3.9737,4.0554,3.9935,3.9424,3.9424,3.9424,3.9424,3.9424,3.9424,3.9424,3.9454,3.9454,3.9454,3.9484,4.0113,4.0427,4.0442,4.107,4.1384,4.1384,4.1399,4.1414,4.1414,4.1429,4.1444,4.1444,4.1444,4.1444,4.1444,4.1414,4.1414,4.1414,4.1353,4.0602,3.9183,0.0,0.0,0.0,0.0,0.0,0.0,0.0,3.119,3.176,3.3319,3.4323,3.5502,3.7137,3.8132,3.8707,3.8707,3.9441,3.9808,3.957,3.9509,3.9443,3.9355,4.0309,4.1234,4.2061,4.2787,4.3277,4.3497,4.3497,4.3497,4.3497,4.3497,4.3497,4.3479,4.3597,4.3726,4.3881,4.4076,4.4233,4.4327,4.4467,4.4041,4.3263,0.0,0.0,0.0,0.0,0.0,0.0,0.0,0.0,0.0,0.0,0.0,0.0,0.0,0.0,0.0,0.0,0.0,0.0,0.0,0.0,0.0,0.0,0.0,0.0,0.0,0.0,0.0,0.0,0.0,0.0,0.0,0.0,3.9125,3.9321,3.8999,3.8962,3.9741,3.9576,3.9481,3.9737,3.9538,3.9424,3.9424,3.9424,3.9424,3.9424,3.9424,3.9634,4.0113,4.0127,4.0367,4.0846,4.1025,4.1115,4.1115,4.1294,4.1384,4.1399,4.1878,4.2087,4.2117,4.2596,4.2791,4.2791,4.2791,4.2791,4.2746,4.2282,4.2087,4.1978,4.0761,3.9043,3.7208,0.0,0.0,0.0,0.0,0.0,0.0,0.0,3.119,3.1939,3.3952,3.4622,3.5695,3.7784,3.8414,3.8707,3.8707,3.9441,3.9753,3.9423,3.9698,4.0111,4.0534,4.1358,4.2137,4.28,4.3259,4.3497,4.3497,4.3497,4.3497,4.3497,4.3497,4.3497,4.3497,4.3497,4.3597,4.3804,4.3924,4.4016,4.3998,4.4261,4.3966,4.3335,4.2941,4.2427,4.1844,4.1526,4.1396,4.1322,4.0841,0.0,0.0,0.0,0.0,0.0,0.0,0.0,0.0,0.0,0.0,0.0,0.0,0.0,0.0,0.0,0.0,0.0,0.0,0.0,0.0,0.0,0.0,0.0,0.0,3.9183,3.9215,3.9505,3.9078,3.8975,3.9364,3.9424,3.9424,3.9424,3.9424,3.9424,3.9424,3.9679,3.9828,3.9828,4.0098,4.0412,4.0801,4.0816,4.0995,4.1384,4.1654,4.1788,4.1788,4.2073,4.2207,4.2207,4.2596,4.2776,0.0,4.3165,4.3329,4.3329,4.3329,4.2996,0.0,0.0,0.0,0.0,0.0,3.8302,3.707,0.0,0.0,0.0,0.0,0.0,0.0,0.0,3.119,3.2094,3.4571,3.4906,3.5874,3.8413,3.8707,3.8707,3.8707,3.9441,3.9643,3.9019,3.9717,4.0598,4.1542,4.2118,4.2763,4.3461,4.3497,4.3497,4.3497,4.3497,4.3497,4.3497,4.3497,4.3497,4.3497,4.3497,4.3534,4.3642,4.3966,4.411,4.4203,4.4203,4.3713,4.2932,4.2876,4.2534,4.1983,4.1673,4.1618,4.1673,4.1581,0.0,0.0,0.0,0.0,0.0,0.0,0.0,0.0,0.0,0.0,0.0,0.0,0.0,0.0,0.0,0.0,0.0,0.0,0.0,0.0,0.0,0.0,0.0,0.0,3.8599,3.8721,3.9334,3.9424,3.9424,3.9424,3.9424,3.9424,3.9424,3.9484,3.9529,3.9529,4.0142,4.0502,4.0502,0.0,0.0,0.0,0.0,4.1534,4.1594,4.2177,4.2476,4.2476,4.3045,4.3329,4.3329,4.3329,4.3329,4.3329,4.3329,4.3329,4.3329,4.3329,4.2629,4.1684,4.2548,4.2208,4.0986,3.889,3.8017,0.0,0.0,0.0,0.0,0.0,0.0,0.0,0.0,3.119,3.2094,3.4571,3.4906,3.5874,3.8413,3.8707,3.8707,3.8707,3.9441,4.0102,4.0616,4.1387,4.1941,4.2148,4.2876,4.3332,4.3497,4.3497,4.3497,4.3497,4.3497,4.3497,4.3497,4.3497,4.3497,4.3497,4.3497,4.3864,4.447,4.4522,4.4959,4.5549,4.5549,4.4831,4.3732,4.3472,4.3846,4.4488,4.4445,4.4841,4.5273,4.4636,4.4243,4.3901,4.324,4.2417,0.0,0.0,0.0,0.0,0.0,0.0,0.0,0.0,0.0,0.0,0.0,0.0,0.0,0.0,0.0,0.0,0.0,0.0,0.0,3.9415,3.9297,3.9275,3.9394,3.9424,3.9424,3.9424,3.9424,3.9424,3.9424,3.9903,4.0217,4.0217,4.0816,4.119,4.119,4.1309,0.0,4.2147,4.2177,4.2432,4.2955,4.3075,4.315,4.315,0.0,0.0,4.3329,4.3329,4.3329,4.3329,4.3329,4.3329,4.3329,4.3329,4.2629,4.1504,4.0831,3.9784,3.8725,3.8289,3.7494,3.6709,0.0,0.0,0.0,0.0,0.0,0.0,0.0,3.119,3.1859,3.3738,3.4004,3.48,3.6908,3.7148,3.7424,3.8046,3.9203,4.023,4.1056,4.1864,4.2488,4.2873,4.3277,4.3497,4.3497,4.3497,4.3497,4.3497,4.3497,4.3497,4.3497,4.3497,4.3497,4.3516,4.392,4.4323,4.4745,4.5131,4.5535,4.5902,4.5902,4.553,4.4927,4.4777,4.5052,4.5552,4.5552,4.5796,4.6073,4.57,4.5436,4.5241,4.4819,4.4158,4.3212,0.0,0.0,0.0,0.0,0.0,0.0,0.0,0.0,0.0,0.0,0.0,0.0,0.0,0.0,3.9656,0.0,0.0,3.9447,3.904,3.9229,3.9424,3.9424,3.9709,3.9783,3.9454,3.9709,3.9903,3.9903,4.0502,4.0891,4.0891,4.1504,4.1878,4.1878,4.2177,4.2506,4.2836,4.2851,4.3015,4.3329,4.3329,4.3329,4.3329,4.3329,4.3329,4.3329,4.3329,4.3329,4.3329,4.3329,4.3329,4.325,4.2044,4.0916,3.977,3.8559,3.8121,3.8017,3.7507,3.6883,3.6358,0.0,0.0,0.0,0.0,0.0,0.0,0.0,3.119,3.1679,3.2954,3.3115,3.3705,3.5277,3.5465,3.5919,3.7106,3.8771,4.0115,4.0888,4.1959,4.2818,4.3461,4.3497,4.3497,4.3497,4.3497,4.3497,4.3497,4.3497,4.3497,4.3497,4.3497,4.3497,4.3534,4.4342,4.48,4.5002,4.5792,4.6214,4.6361,4.6361,4.6361,4.6361,4.6361,4.6269,4.614,4.614,4.614,4.6159,4.6305,4.6269,4.6159,4.6324,4.581,4.4821,4.3042,4.2845,0.0,0.0,0.0,0.0,0.0,0.0,0.0,0.0,0.0,4.1231,4.1187,4.0546,3.9755,3.8897,3.921,3.939,3.8727,3.905,3.9469,3.9589,4.0068,4.0247,3.9843,4.0277,4.0591,4.0591,4.119,4.1564,4.1564,4.2177,4.2551,4.2551,4.3045,4.3329,4.3329,4.3329,4.3329,4.3329,4.3329,4.3329,4.3329,4.3329,4.3329,4.3329,4.3329,4.3329,4.325,4.3076,4.282,4.2467,4.0404,3.9006,3.803,3.6896,3.6977,3.7678,3.6709,3.6358,3.6358,0.0,0.0,0.0,0.0,0.0,0.0,0.0,0.0,3.1679,3.2954,3.3115,3.356,3.4817,3.4976,3.5296,3.6079,3.8077,3.9603,4.0329,4.2264,4.3406,4.3497,4.3497,4.3497,4.3497,4.3497,4.3497,4.3497,4.3497,4.3497,4.3497,4.3497,4.3497,4.3534,4.4342,4.5112,4.5828,4.6636,4.7388,4.8031,4.8031,4.8031,4.8031,4.8031,4.759,4.6985,4.6985,4.6985,4.7076,4.7792,4.7572,4.7113,4.781,4.7498,4.6556,4.5311,4.4448,4.354,4.1596,4.1204,4.1322,4.1322,4.1745,4.2371,0.0,0.0,4.2015,4.1882,4.1175,4.0337,3.9455,3.9388,3.9361,3.9305,3.9364,3.9634,4.0202,4.0352,4.0591,4.11,4.122,4.1265,4.1265,4.1863,4.2252,4.2252,4.2851,4.3225,4.3225,4.3284,4.3329,4.3329,4.3329,4.3329,4.3329,4.3329,4.3329,4.3329,4.3329,4.3329,4.3329,4.3329,4.3329,4.325,4.2208,4.1267,4.0159,3.8814,3.8198,3.803,3.6896,3.6452,3.6534,3.6452,3.6358,3.6358,0.0,0.0,0.0,0.0,0.0,0.0,0.0,0.0,0.0,0.0,3.2004,3.228,3.3018,3.3758,3.4339,3.4623,3.7433,3.9334,3.9625,4.2081,4.3497,4.3497,4.3497,4.3497,4.3497,4.3497,4.3497,4.3497,4.3497,4.3497,4.3497,4.3497,4.3497,4.3552,4.4819,4.559,4.5975,4.726,4.7994,4.8306,4.8306,4.8306,4.8306,4.8306,4.8104,4.7699,4.6916,4.6633,0.0,4.7015,4.6906,4.6819,4.7972,4.7526,4.6436,4.5579,4.4501,4.3485,4.2686,4.2168,4.2049,4.2946,4.3064,4.3149,4.391,4.3081,4.2086,4.1997,4.0894,3.9864,3.9481,3.9424,3.9544,0.0,3.9993,4.0217,4.0876,4.1294,4.1639,4.1923,4.2282,4.2372,4.1998,4.2536,4.2925,4.2925,4.318,4.3329,4.3329,4.3329,4.3329,4.3329,4.3329,4.3329,4.3329,4.3329,4.3329,4.3329,4.3329,4.3329,4.3329,4.3329,4.29,4.229,4.185,4.0547,3.8827,3.8289,3.7678,3.707,3.6628,3.6358,3.6358,3.6358,3.6358,3.6358,0.0,0.0,0.0,0.0,0.0,0.0,0.0,0.0,0.0,0.0,3.119,3.1329,3.1603,3.2473,3.309,3.33,3.6399,3.8527,3.8977,4.161,4.3259,4.3479,4.3497,4.3497,4.3497,4.3497,4.3497,4.3497,4.3497,4.3497,4.3497,4.3497,4.3497,4.3552,4.5168,4.5902,4.6012,4.7627,4.8306,4.8306,4.8306,4.8306,4.8306,4.8306,4.8082,4.7633,4.6654,4.6187,4.5947,4.5762,4.5558,4.5606,4.6789,4.6522,4.5574,4.4961,4.3777,4.2773,4.3056,4.2709,4.2608,4.3927,4.3995,4.3876,4.4451,4.3426,4.2395,4.2395,4.0961,3.9737,3.9737,3.9688,3.9843,4.0322,4.0546,4.0905,4.1564,4.2058,4.2432,4.2611,4.3045,4.315,4.2671,4.3045,4.3329,4.3329,4.3329,4.3329,4.3329,4.3329,4.3329,4.3329,4.3329,4.3329,4.3329,4.3329,4.3329,4.3329,4.3329,4.3329,4.325,4.2981,4.2208,4.1085,4.0817,3.9508,3.7586,3.7586,3.724,3.6584,3.6584,3.6684,3.681,3.681,3.6621,3.6358,0.0,0.0,0.0,0.0,0.0,0.0,0.0,0.0,0.0,0.0,0.0,0.0,0.0,3.1247,3.1574,3.2286,3.4696,3.686,3.8424,4.0925,4.2671,4.3461,4.3497,4.3497,4.3497,4.3497,4.3497,4.3497,4.3497,4.3497,4.3497,4.3497,4.3497,4.3552,4.5168,4.5902,4.6012,4.7627,4.8306,4.8306,4.8306,4.8306,4.8306,4.8306,4.7503,4.6349,4.6331,4.5825,4.5057,4.4474,4.374,4.3243,4.4085,4.4316,4.4147,4.355,4.2379,4.1442,4.2134,4.2303,4.2472,4.3267,4.3995,4.4553,4.457,4.3931,4.3246,4.3246,4.1869,4.069,4.069,4.0522,4.0382,4.0397,4.0935,4.1579,4.2237,4.2434,4.2596,4.3225,4.3329,4.3329,0.0,4.3329,4.3329,4.3329,4.3329,4.3329,4.3329,4.3329,4.3329,4.3329,4.3329,4.3329,4.3329,4.3329,4.3329,4.3329,4.3329,4.3329,4.325,4.2193,4.1,3.9899,3.8725,3.7494,3.6452,3.6452,3.6767,3.7161,3.7161,3.7487,3.7952,3.7952,3.7274,3.6358,0.0,0.0,0.0,0.0,0.0,0.0,0.0,0.0,0.0,0.0,0.0,0.0,0.0,0.0,0.0,0.0,3.3606,3.5465,3.6824,3.9499,4.1537,4.2671,4.3222,4.3497,4.3497,4.3497,4.3497,4.3497,4.3497,4.3497,4.3497,4.3497,4.3497,4.3534,4.4617,4.5406,4.5975,4.7058,4.7829,4.8306,4.8306,4.7994,4.7461,4.7113,4.6345,4.5323,0.0,4.3392,4.3117,4.2934,4.2684,4.2689,4.3837,4.3613,4.2765,4.2088,4.1937,4.2083,4.2828,4.3031,4.3234,4.3995,4.4384,4.4587,4.4587,4.3948,4.3306,4.3306,4.2379,4.1543,4.1543,4.1013,4.0882,4.1786,4.1654,4.1758,4.2851,4.3015,4.309,4.3314,4.3329,0.0,0.0,0.0,0.0,4.3329,4.3329,4.3329,4.3329,4.3329,4.3329,4.3329,4.3329,4.3329,4.3329,4.3329,4.3329,4.3344,4.3778,4.3538,4.2669,4.2738,4.1681,3.984,3.9375,3.8554,3.745,3.745,3.7563,3.7726,3.7726,3.7839,3.8002,3.8002,3.7764,3.745,0.0,0.0,0.0,0.0,0.0,0.0,0.0,0.0,0.0,0.0,0.0,0.0,0.0,0.0,0.0,0.0,0.0,3.4309,3.5398,3.7845,3.9806,4.0888,4.1669,4.2105,4.2105,4.2105,4.2177,4.2373,4.2647,4.2882,4.3075,4.3369,4.3497,4.3534,4.4342,4.5149,4.5957,4.6764,4.7128,4.7213,4.7487,4.6822,4.566,4.5588,4.4939,0.0,4.2667,4.1864,4.1446,4.1446,4.1446,4.1664,4.2758,4.2545,4.1812,4.1664,4.1745,4.2134,4.3149,4.342,4.3606,4.4384,4.4587,4.4587,4.4587,4.3948,4.33,4.3331,4.2651,4.1981,4.2056,4.1509,4.1503,4.2973,4.2679,4.2592,4.3698,4.3849,4.3693,4.3329,4.3329,4.3329,0.0,0.0,0.0,4.3329,4.3329,4.3329,4.3329,4.3329,4.3329,4.3329,4.3569,4.3688,4.3688,4.3913,4.4032,4.4032,4.4012,4.3577,4.2697,4.2294,4.1223,3.9794,3.9316,3.8761,3.8002,3.8002,3.8128,3.8316,3.8316,3.8429,3.8605,3.8605,3.8605,3.8555,0.0,0.0,0.0,0.0,0.0,0.0,0.0,0.0,0.0,0.0,0.0,0.0,0.0,0.0,0.0,0.0,0.0,0.0,3.4196,3.6048,3.7514,3.8386,3.915,3.9576,3.9611,3.9611,3.9807,4.0257,4.1052,4.1669,4.2182,4.2933,4.3316,4.3318,4.4106,4.4894,4.5682,4.6488,4.6168,4.5178,4.5892,4.4952,4.3162,4.382,4.3283,4.2111,4.2111,4.1263,4.0121,4.0087,4.0104,4.0273,4.1018,4.1271,4.1407,4.2134,4.1863,4.1644,4.3081,4.347,4.3656,4.4401,4.4587,4.4587,4.4587,4.3914,4.3313,4.344,4.2686,4.2137,0.0,0.0,4.2294,4.3862,4.3867,4.3917,4.4644,4.4737,4.4373,0.0,0.0,0.0,0.0,0.0,0.0,4.3329,0.0,4.3329,4.3329,4.3359,4.3389,4.3389,4.4018,4.4362,4.4362,4.499,4.5289,4.5304,4.4049,4.3429,4.3255,4.0949,3.9886,3.9695,3.8558,3.809,3.809,3.809,3.8417,3.8906,3.8906,3.9233,3.9697,3.9697,3.9697,3.9546,0.0,0.0,0.0,0.0,0.0,0.0,0.0,0.0,0.0,0.0,0.0,0.0,0.0,0.0,0.0,0.0,0.0,0.0,3.3321,3.4466,3.5814,3.7534,3.8351,3.9043,3.9611,3.9611,3.9651,3.9768,3.9964,4.0149,4.0282,4.048,4.0607,4.0607,4.0823,4.1343,4.2153,4.292,4.3394,4.3721,4.4421,4.4049,4.3005,4.2805,4.2079,4.1185,4.0756,4.0747,4.0832,4.0273,4.046,4.1052,4.1779,4.2016,4.2151,4.2912,4.2997,4.3064,4.4028,4.4282,4.4333,4.4536,4.4587,4.4587,4.4587,4.3945,4.3569,4.4142,4.3665,4.327,4.39,0.0,0.0,4.3847,4.3309,0.0,4.3618,4.3708,0.0,4.3329,0.0,4.3329,4.3329,4.3329,0.0,0.0,4.3329,4.3329,4.3329,4.3793,4.4062,4.4062,4.4706,4.505,4.505,4.5214,4.5289,4.5304,4.453,4.3659,4.2647,4.1622,4.059,3.9753,3.936,3.927,3.927,3.927,3.9346,3.9484,3.9484,3.9572,3.9697,3.9697,3.9697,3.9647,0.0,0.0,0.0,0.0,0.0,0.0,0.0,0.0,0.0,0.0,0.0,0.0,0.0,0.0,0.0,0.0,0.0,0.0,0.0,3.2977,3.4064,3.5518,3.6324,3.7091,3.7815,3.7833,3.7958,3.8204,3.8538,3.8818,3.9093,3.9412,3.9611,3.9611,3.9611,4.0055,4.0859,4.16,4.1803,0.0,0.0,4.2468,4.125,4.1254,4.0971,4.0497,4.0204,4.0561,4.1187,4.1085,4.1559,4.2252,4.2658,4.2777,4.2929,4.3707,4.369,4.3589,4.4367,4.4587,4.4587,4.4587,4.4587,4.4485,4.4147,4.3995,4.3859,4.3623,4.3758,4.4062,4.4502,4.3744,4.344,0.0,0.0,0.0,4.3913,4.3927,4.3771,0.0,4.3329,0.0,4.3329,4.3329,4.3329,0.0,4.3329,4.3464,4.3748,4.4122,4.4451,4.4736,4.5394,4.5888,4.6172,4.6187,4.6187,4.6172,4.4697,4.3658,4.2912,4.1459,4.0364,3.9697,0.0,3.9697,3.9697,3.9697,3.9697,3.9697,3.9697,3.9697,3.9697,3.9697,3.9697,3.9697,0.0,0.0,0.0,0.0,0.0,0.0,0.0,0.0,0.0,0.0,0.0,0.0,0.0,0.0,0.0,0.0,0.0,0.0,0.0,0.0,3.2476,3.322,3.3964,3.4709,3.5453,3.5571,3.581,3.6291,3.699,3.7579,3.806,3.8753,3.907,3.907,3.907,3.9481,4.0153,4.0888,4.0587,3.9732,4.1202,4.07,3.9208,0.0,4.007,4.0087,4.0189,4.0713,4.1457,4.2202,4.2878,4.3436,4.3538,4.3572,4.3707,4.4384,4.4096,4.3724,4.4401,4.4587,4.4587,4.4587,4.4587,4.4401,4.3724,4.4012,4.4079,4.2844,4.3572,4.4485,4.4688,4.3871,4.3847,4.5947,0.0,4.4006,4.4493,4.4586,4.4297,4.3409,4.3329,4.3329,4.3329,4.3329,4.3329,4.3329,4.3419,4.3718,4.4287,4.4481,4.4885,4.5544,4.6142,4.6726,4.7294,4.7309,4.7207,4.7019,4.4642,4.3409,4.3218,4.0743,3.9697,3.9697,0.0,0.0,3.9697,3.9697,3.9697,3.9697,3.9697,3.9697,3.9697,3.9697,3.9697,3.9697,0.0,0.0,0.0,0.0,0.0,0.0,0.0,0.0,0.0,0.0,3.119,3.119,0.0,0.0,0.0,0.0,0.0,0.0,0.0,0.0,0.0,3.2442,3.3203,3.3947,3.4675,3.5301,3.5667,3.5739,3.5858,3.6014,3.6103,3.6222,3.6273,3.6273,3.6273,3.6385,3.6556,3.7342,3.7928,3.8333,3.92,3.9729,3.9901,4.002,0.0,0.0,4.0781,4.1474,4.2219,4.2963,4.3301,4.3538,4.4181,4.4384,4.4401,4.4536,4.4485,4.4401,4.4536,4.4587,4.4587,4.4587,4.4587,4.4536,4.4401,4.3995,4.3724,4.4113,4.3876,4.4012,4.528,4.4693,4.4316,4.5198,4.4465,4.3651,4.3603,4.3551,4.3488,0.0,4.3329,4.3329,4.3329,4.3329,0.0,0.0,0.0,4.4197,4.4302,4.5364,4.6277,4.6935,4.707,4.7189,4.7309,4.7309,4.6741,4.5689,4.4163,4.293,4.1887,4.0364,3.9697,3.9697,0.0,0.0,3.9697,3.9697,3.9697,3.9697,3.9697,3.9697,3.9697,3.9697,3.9697,3.9697,0.0,0.0,0.0,0.0,0.0,0.0,0.0,3.119,3.119,3.119,3.119,3.119,3.119,3.119,3.119,0.0,0.0,0.0,0.0,0.0,0.0,0.0,3.3,3.3744,3.4472,3.5233,3.5622,3.5622,0.0,3.5622,3.5622,3.5622,3.5622,3.5622,3.5622,3.5622,3.5673,3.6451,3.7212,3.7973,3.87,3.9428,4.007,0.0,0.0,0.0,4.0493,4.1102,4.1779,4.2151,4.2523,4.3047,4.4215,4.4587,4.4502,4.4096,4.4265,4.4485,4.4079,4.4265,4.4587,4.4587,4.4587,4.4468,4.4062,4.3995,4.4012,4.3978,4.3995,4.4367,4.55,4.4913,4.433,4.4581,4.4086,4.3468,4.2932,4.312,4.3329,4.3329,4.3329,4.3329,4.3329,4.3329,4.3479,0.0,0.0,4.4825,4.4825,4.6097,4.698,4.7294,4.7309,4.7309,4.7309,4.7309,4.7019,4.6358,4.4442,4.3218,4.2558,4.0554,3.9697,3.9697,3.9697,0.0,3.9697,3.9697,3.9697,3.9697,3.9697,3.9697,3.9697,3.9697,3.9697,3.9697,0.0,0.0,0.0,0.0,0.0,0.0,0.0,3.119,3.119,3.119,3.119,3.119,3.119,3.119,3.119,0.0,0.0,0.0,0.0,0.0,0.0,0.0,0.0,0.0,0.0,0.0,0.0,0.0,3.5622,0.0,0.0,0.0,0.0,0.0,3.5622,3.5622,3.5656,3.6265,3.706,0.0,0.0,3.9292,0.0,0.0,0.0,0.0,0.0,4.0561,4.1204,4.1204,4.1694,4.2506,4.3707,4.4096,4.3995,4.3555,4.3859,4.4231,4.3792,4.4113,4.4587,4.4587,4.4587,4.4418,4.3809,4.4147,4.4401,4.3792,4.4147,4.4807,4.5568,4.4976,4.4302,4.4099,4.3981,4.3506,4.2528,4.2947,4.3386,4.3314,4.3329,4.3329,4.3329,4.3329,0.0,0.0,0.0,0.0,4.5708,4.6726,4.7309,4.7309,4.7309,4.7309,4.7309,4.7309,4.7019,4.6447,4.4456,4.3218,4.2641,4.0655,3.9697,3.9697,3.9697,0.0,0.0,3.9697,3.9697,3.9697,3.9697,3.9697,3.9697,3.9697,3.9697,3.9697,0.0,0.0,0.0,0.0,0.0,0.0,0.0,3.119,3.119,3.119,3.119,3.119,3.119,3.119,3.119,0.0,0.0,0.0,0.0,0.0,0.0,0.0,0.0,0.0,0.0,0.0,0.0,0.0,0.0,0.0,0.0,0.0,0.0,0.0,0.0,0.0,3.5622,3.569,0.0,0.0,0.0,0.0,0.0,0.0,0.0,0.0,0.0,4.0561,4.1204,4.1204,4.1694,4.2303,4.2455,4.2506,4.2625,4.325,4.347,4.3656,4.4299,4.4519,4.4587,4.4587,4.4587,4.4553,4.4485,4.4536,4.4553,4.4485,4.4536,4.4807,4.5568,4.5071,4.4499,4.4152,4.4172,4.3826,4.2546,4.3122,4.3593,4.3334,4.3329,4.3329,4.3329,4.3329,0.0,0.0,0.0,0.0,4.7055,4.7234,4.7309,4.7309,4.7309,4.7309,4.7309,4.7309,4.6166,4.3882,4.3598,4.2266,4.0083,3.9788,3.9697,3.9697,0.0,0.0,0.0,3.9697,3.9697,3.9697,3.9697,3.9697,3.9697,3.9697,3.9697,3.9697,0.0,0.0,0.0,0.0,0.0,0.0,3.119,3.0878,3.0658,3.0658,3.0335,3.0123,3.0123,3.0435,3.0781,3.1151,0.0,0.0,0.0,0.0,0.0,0.0,0.0,0.0,0.0,0.0,0.0,3.5622,0.0,0.0,0.0,0.0,0.0,0.0,0.0,0.0,0.0,3.5622,0.0,0.0,0.0,0.0,0.0,0.0,0.0,0.0,0.0,0.0,4.0527,4.0527,4.0713,4.0967,4.0967,4.0967,4.1102,4.1863,4.2709,4.3386,4.3234,4.3876,4.4587,4.4587,4.4587,4.4451,4.3995,4.4248,4.4451,4.3978,4.4248,4.4671,4.4976,4.479,4.419,4.3009,4.3218,4.3123,4.1987,4.247,4.303,4.3254,4.3329,0.0,0.0,0.0,0.0,0.0,0.0,0.0,4.7249,4.7309,4.7309,4.7309,4.7309,4.7309,4.7309,4.6535,4.5689,4.4642,4.3122,4.1789,4.0844,4.0083,3.9697,3.9697,3.9697,0.0,0.0,3.9697,3.9697,3.9697,3.9697,3.9697,3.9697,3.9697,3.9697,3.9697,0.0,0.0,0.0,0.0,0.0,3.119,3.119,3.0699,3.0293,3.0293,2.9761,2.9406,2.9406,2.9761,3.0293,3.0878,3.1112,0.0,0.0,0.0,0.0,0.0,0.0,0.0,0.0,0.0,3.5622,3.5622,3.5622,0.0,0.0,0.0,0.0,0.0,0.0,0.0,0.0,0.0,0.0,0.0,0.0,0.0,0.0,0.0,0.0,0.0,0.0,0.0,0.0,0.0,0.0,4.007,4.007,4.007,4.0223,4.0984,4.1948,4.2743,4.2658,4.342,4.4282,4.4519,4.4401,4.4096,4.3538,4.3842,4.4079,4.3538,4.4045,4.4587,4.4587,4.4384,4.3739,4.2252,4.2413,4.2322,4.1279,4.1866,4.253,4.2701,0.0,0.0,0.0,0.0,0.0,0.0,0.0,0.0,0.0,4.7309,4.7309,4.7309,4.7309,4.7121,4.6726,4.5869,4.5024,4.4256,4.2461,4.1406,4.1032,4.007,3.9697,3.9697,0.0,0.0,0.0,3.9697,3.9697,3.9697,3.9697,3.9697,3.9697,3.9697,3.9465,3.9025,0.0,0.0,0.0,0.0,0.0,0.0,3.119,3.0699,3.0293,3.0293,2.9761,2.9406,2.9406,2.9406,2.9629,3.0251,3.0838,0.0,0.0,0.0,0.0,0.0,0.0,0.0,0.0,0.0,3.5622,3.5622,3.5622,3.5622,3.5622,3.5622,0.0,0.0,0.0,0.0,0.0,0.0,0.0,0.0,0.0,0.0,0.0,0.0,0.0,0.0,0.0,0.0,0.0,0.0,0.0,0.0,0.0,4.007,4.0223,4.0984,4.1221,4.1542,4.3014,4.342,4.3606,4.4384,4.3995,4.3436,4.342,4.342,4.3436,4.342,4.4045,4.4587,4.4587,4.3889,4.3047,4.2125,4.1997,4.1664,4.0586,4.1733,4.2364,0.0,0.0,4.2372,0.0,0.0,0.0,0.0,0.0,0.0,0.0,4.7309,4.7309,4.7309,4.7309,4.6726,4.5403,4.5403,4.4163,4.1604,4.1604,4.0932,3.9697,3.9697,3.9697,0.0,0.0,0.0,0.0,3.9697,3.9697,3.9697,3.9697,3.9697,3.9697,3.9697,3.8804,3.7571,0.0,0.0,0.0,0.0,0.0,0.0,0.0,3.0435,2.9978,2.918,2.8919,2.8638,2.8222,2.8543,2.8873,2.9042,2.9995,0.0,0.0,0.0,0.0,0.0,0.0,0.0,0.0,0.0,3.5622,3.5622,3.5622,3.5622,3.5622,3.5622,3.5622,3.5622,0.0,0.0,0.0,0.0,0.0,0.0,0.0,0.0,0.0,0.0,0.0,0.0,0.0,0.0,0.0,0.0,0.0,0.0,0.0,0.0,0.0,3.9721,4.0383,4.1305,4.1779,4.2269,4.2709,4.2946,4.2828,4.2523,4.2016,4.2286,4.2463,4.186,4.2831,4.376,4.3714,4.3502,4.2986,4.2125,4.1478,4.0938,4.0439,4.1234,0.0,4.2074,4.2626,4.303,0.0,0.0,0.0,0.0,0.0,0.0,0.0,4.7055,4.7309,4.7309,4.7309,4.7121,4.6726,4.4932,4.3693,4.2834,4.1119,4.007,3.9697,3.9697,0.0,0.0,0.0,0.0,0.0,3.9697,3.9697,3.9697,3.9697,3.9697,3.9581,3.8582,3.7914,3.7358,0.0,0.0,0.0,0.0,0.0,0.0,0.0,3.0123,2.9629,2.8654,2.8319,2.7993,2.7625,2.7959,2.833,2.8835,2.979,0.0,0.0,0.0,0.0,0.0,0.0,0.0,3.5605,3.5622,3.5622,3.5622,3.5622,3.5622,3.5622,3.5622,3.5622,3.5622,3.5622,0.0,0.0,0.0,0.0,0.0,0.0,0.0,4.007,0.0,0.0,0.0,0.0,0.0,0.0,0.0,0.0,0.0,0.0,0.0,0.0,0.0,3.9363,4.0311,4.0346,4.0871,4.154,4.1825,4.1907,4.1762,4.1305,4.1314,4.136,4.109,4.1791,4.2534,4.2778,4.252,4.2125,4.1609,4.0758,4.0197,4.0036,0.0,0.0,4.1908,0.0,0.0,0.0,0.0,0.0,0.0,0.0,0.0,0.0,4.695,4.7309,4.7309,4.7309,4.6829,4.5869,4.4256,4.3026,4.207,4.0453,3.9697,3.9697,3.9697,0.0,0.0,0.0,0.0,0.0,3.9697,3.9697,3.9697,3.9697,3.9362,3.8792,3.7796,3.6811,3.5715,0.0,0.0,0.0,0.0,0.0,0.0,0.0,2.9805,2.9225,2.8638,2.8042,2.766,2.766,2.767,2.8127,2.9323,0.0,0.0,0.0,0.0,0.0,0.0,0.0,0.0,3.5622,3.5622,3.5622,3.5622,3.5622,3.5622,3.5622,3.5622,3.5622,3.5622,3.5673,3.6163,0.0,0.0,0.0,0.0,0.0,0.0,0.0,0.0,0.0,0.0,0.0,0.0,0.0,0.0,0.0,0.0,0.0,0.0,0.0,0.0,0.0,0.0,0.0,3.9291,4.011,4.0802,4.0933,4.0946,4.0946,4.0417,0.0,4.0689,4.0901,4.1101,4.1789,4.128,4.069,4.069,3.999,3.9424,0.0,4.0023,0.0,0.0,0.0,0.0,0.0,0.0,0.0,0.0,0.0,0.0,0.0,4.6875,4.7249,4.7309,4.7309,4.6166,4.3787,4.3598,4.2266,3.9981,3.9788,3.9697,3.9697,3.9697,0.0,0.0,0.0,0.0,0.0,3.9697,3.9697,3.9697,3.9697,3.8804,3.7465,3.7358,3.5485,3.3077,0.0,0.0,0.0,0.0,0.0,0.0,0.0,0.0,0.0,0.0,2.8638,2.8286,2.8286,2.8329,2.8464,0.0,0.0,0.0,0.0,0.0,0.0,0.0,0.0,0.0,3.5622,3.5622,3.5622,3.5622,3.5622,3.5622,3.5622,3.5622,3.5622,3.5639,3.6231,3.7246,0.0,0.0,0.0,0.0,0.0,0.0,0.0,0.0,0.0,0.0,3.9193,3.9032,0.0,0.0,0.0,0.0,0.0,0.0,0.0,0.0,3.7008,3.6995,3.6427,0.0,3.8382,3.856,3.8594,3.8578,0.0,3.8464,3.8531,3.9031,3.9706,0.0,0.0,4.0811,4.069,4.069,3.999,3.9424,3.9424,0.0,0.0,0.0,0.0,0.0,0.0,0.0,0.0,0.0,0.0,0.0,0.0,4.6187,4.6785,4.7294,4.7309,4.7019,4.6447,4.4456,4.3218,4.2544,4.0655,3.9697,3.9697,3.9697,0.0,0.0,0.0,0.0,3.9697,3.9697,3.9697,3.9697,3.9697,3.8804,3.7358,3.6271,3.4626,3.2964,0.0,0.0,0.0,0.0,0.0,0.0,0.0,0.0,0.0,0.0,0.0,2.8905,2.8945,2.9252,0.0,0.0,0.0,0.0,0.0,0.0,0.0,0.0,0.0,3.5622,3.5622,3.5622,3.5622,3.5622,3.5622,3.5622,3.5622,3.5622,3.5808,3.6197,3.693,3.7901,0.0,0.0,0.0,0.0,4.007,0.0,0.0,0.0,0.0,0.0,3.8541,3.8414,0.0,3.7499,3.7263,3.7263,0.0,0.0,0.0,0.0,3.6322,3.6446,3.5733,3.6368,3.7263,3.7263,3.7515,3.7822,3.7822,3.7515,3.7492,3.8397,3.866,0.0,0.0,4.0115,0.0,0.0,3.9994,0.0,0.0,0.0,0.0,0.0,0.0,0.0,0.0,0.0,0.0,0.0,0.0,0.0,0.0,4.5783,4.6486,4.6845,4.7145,4.7019,4.6447,4.4456,4.3218,4.2641,4.0655,3.9697,3.9697,3.9697,3.9697,0.0,0.0,0.0,3.9697,3.9697,3.9697,3.9697,3.9697,3.8804,3.7358,3.5836,3.4414,3.2851,0.0,0.0,0.0,0.0,0.0,0.0,0.0,0.0,0.0,0.0,0.0,0.0,0.0,0.0,0.0,0.0,0.0,0.0,0.0,0.0,0.0,0.0,3.5622,3.5622,3.5622,3.5622,3.5622,3.5622,3.5622,3.5622,3.5622,3.574,3.6219,3.6956,3.7533,3.8197,0.0,0.0,0.0,0.0,3.9731,0.0,0.0,0.0,0.0,0.0,0.0,0.0,0.0,3.6676,3.6446,3.6446,3.6446,0.0,0.0,0.0,0.0,0.0,3.5668,3.5943,3.6446,3.6446,3.6919,3.7472,3.7472,3.6919,3.6831,3.8138,3.7849,0.0,0.0,3.9574,0.0,0.0,0.0,0.0,0.0,0.0,0.0,0.0,0.0,0.0,0.0,0.0,0.0,0.0,0.0,0.0,0.0,4.5484,4.6217,4.6322,4.6965,4.6726,4.5403,4.4163,4.2834,4.1604,4.0262,3.9697,3.9697,3.9697,3.9697,0.0,0.0,0.0,3.9697,3.9697,3.9697,3.9697,3.9697,3.8804,3.7358,3.6054,3.4515,3.2851,0.0,0.0,0.0,0.0,0.0,0.0,0.0,0.0,0.0,0.0,0.0,0.0,0.0,0.0,0.0,0.0,0.0,0.0,0.0,0.0,0.0,3.5622,3.5622,3.5622,3.5622,3.5622,3.5622,3.5622,3.5622,3.5622,3.5639,3.6299,3.6995,3.7645,3.7755,3.7878,3.8004,3.7987,3.8035,3.8149,3.8149,0.0,0.0,0.0,0.0,0.0,0.0,0.0,0.0,3.5894,3.5668,3.5668,3.5668,0.0,0.0,0.0,0.0,0.0,3.5504,3.5554,3.5668,3.5668,3.5733,3.5846,3.5846,3.5733,3.6045,3.7338,3.7473,3.7988,0.0,4.0247,4.0427,0.0,0.0,0.0,0.0,0.0,0.0,0.0,0.0,0.0,0.0,0.0,0.0,0.0,0.0,0.0,0.0,0.0,4.5723,4.6307,4.6965,4.6726,4.5403,4.4163,4.2834,4.1604,4.0262,3.9697,3.9697,3.9697,3.9697,0.0,0.0,3.9697,3.9697,3.9697,3.9697,3.9697,3.9697,3.8804,3.7465,3.7252,3.5497,3.2851,0.0,0.0,0.0,0.0,0.0,0.0,0.0,0.0,0.0,0.0,0.0,0.0,0.0,0.0,0.0,0.0,0.0,0.0,0.0,0.0,3.5622,3.5622,3.5622,3.5622,3.5622,3.5622,3.5622,3.5622,3.5622,3.5825,3.6265,3.6999,3.7501,3.7765,3.7359,3.7371,3.7764,3.7338,3.7397,3.7822,0.0,0.0,0.0,0.0,0.0,0.0,0.0,0.0,0.0,0.0,3.5504,3.5504,3.5504,0.0,0.0,0.0,0.0,0.0,3.5504,3.5504,3.5594,3.5953,3.5774,3.5504,3.5504,3.5774,3.6297,3.7225,3.7689,0.0,0.0,0.0,0.0,0.0,0.0,0.0,0.0,0.0,0.0,0.0,0.0,0.0,0.0,0.0,0.0,0.0,0.0,0.0,0.0,0.0,4.508,4.5753,4.5767,4.5341,4.4349,4.3122,4.2168,4.1604,4.0262,3.9697,3.9697,3.9697,3.9697,3.9697,0.0,3.9697,3.9697,3.9697,3.9697,3.9697,3.9697,3.9245,3.8477,3.693,3.4403,3.1767,0.0,0.0,0.0,0.0,0.0,0.0,0.0,0.0,0.0,0.0,0.0,0.0,0.0,0.0,0.0,0.0,0.0,0.0,0.0,0.0,3.5622,3.5622,3.5622,3.5622,3.5622,3.5622,3.5622,3.5622,3.5808,3.6366,3.7313,3.7668,3.7777,3.7742,3.6951,3.6859,3.7235,3.6569,3.6692,3.7235,0.0,0.0,0.0,0.0,0.0,0.0,0.0,0.0,0.0,0.0,0.0,0.0,0.0,0.0,0.0,3.5504,3.5504,3.5504,3.5504,3.5504,3.5624,3.6133,3.5998,3.5774,3.5923,3.6462,3.7105,3.7749,3.8392,0.0,0.0,4.098,0.0,0.0,0.0,0.0,0.0,0.0,0.0,0.0,0.0,0.0,0.0,0.0,0.0,0.0,0.0,0.0,0.0,0.0,4.4445,4.4689,4.4487,4.3947,4.2903,4.2003,4.1406,4.1119,4.0173,3.9697,3.9697,3.9697,3.9697,3.9697,3.9697,3.9697,3.9697,3.9697,3.9697,3.9697,3.9697,3.9697,3.9362,3.6391,3.3866,3.1883,0.0,0.0,0.0,0.0,0.0,0.0,0.0,0.0,0.0,0.0,0.0,0.0,0.0,0.0,0.0,0.0,0.0,0.0,0.0,0.0,3.5622,3.5622,3.5622,3.5622,3.5622,3.5622,3.5622,3.5622,3.6349,3.7432,3.8836,3.815,3.7824,3.7742,3.6948,3.6275,3.5683,3.5619,3.5619,3.5683,3.5683,0.0,0.0,0.0,0.0,0.0,0.0,0.0,0.0,0.0,0.0,0.0,0.0,0.0,3.5504,3.5504,3.5504,3.5504,3.5504,3.5504,3.5519,3.5564,3.5998,3.6567,3.715,3.7778,3.8437,3.9125,0.0,0.0,0.0,0.0,0.0,0.0,0.0,0.0,0.0,0.0,0.0,0.0,0.0,0.0,0.0,0.0,0.0,0.0,0.0,0.0,0.0,0.0,0.0,4.2864,4.3805,4.3266,4.0993,4.1425,4.1032,3.989,3.9685,3.9697,3.9697,3.9697,3.9697,3.9697,3.9697,3.9697,3.9697,3.9697,3.9697,3.9697,3.9697,3.9697,3.9362,3.6391,3.5178,3.4637,0.0,0.0,0.0,0.0,0.0,0.0,0.0,0.0,0.0,0.0,0.0,0.0,0.0,0.0,0.0,0.0,0.0,0.0,0.0,3.4447,3.4544,3.4941,3.4988,3.5161,3.5577,3.5622,3.5859,3.6349,3.7067,3.7719,3.8267,3.7464,3.7054,3.7024,3.6228,3.5782,3.5504,3.5504,3.5504,3.5504,3.5504,3.5504,0.0,0.0,0.0,0.0,0.0,0.0,0.0,0.0,3.5504,3.5504,3.5504,3.5504,3.5504,3.5504,3.5504,3.5504,3.5504,3.5804,3.6207,3.6596,3.6881,3.7015,3.6866,3.7973,3.9095,3.9364,4.0262,0.0,0.0,0.0,0.0,0.0,0.0,0.0,0.0,0.0,0.0,0.0,0.0,0.0,0.0,0.0,0.0,0.0,0.0,0.0,0.0,0.0,0.0,4.367,4.3369,4.2735,4.1856,4.1236,4.0595,3.9697,3.9697,3.9697,3.9697,3.9697,3.9697,3.9697,3.9697,3.9697,3.9697,3.9697,3.9697,3.9697,3.9697,3.9129,3.8137,3.6054,3.4736,3.3631,0.0,0.0,0.0,0.0,0.0,0.0,0.0,0.0,0.0,0.0,0.0,0.0,0.0,0.0,0.0,0.0,0.0,0.0,3.3937,3.3735,3.3786,3.4284,3.4284,3.4496,3.4958,3.5191,3.5668,3.641,3.7094,3.7579,3.7769,3.6967,3.6615,3.6554,3.5831,3.5504,3.5504,3.5504,3.5504,3.5504,3.5504,3.5504,0.0,0.0,0.0,0.0,0.0,0.0,0.0,0.0,3.5504,3.5504,3.5504,3.5504,3.5504,3.5504,3.5504,3.5504,3.5504,3.5983,3.6596,3.7015,3.7419,3.7659,3.7464,3.8452,3.9544,3.9948,4.1085,4.2073,4.2312,0.0,0.0,0.0,0.0,0.0,0.0,0.0,0.0,0.0,0.0,0.0,0.0,0.0,0.0,0.0,0.0,0.0,0.0,0.0,0.0,0.0,4.2789,4.2233,4.1906,4.1015,4.0369,4.0007,3.9802,3.9697,3.9697,3.9697,3.9697,3.9697,3.9697,3.9697,3.9697,3.9697,3.9697,3.9697,3.9697,3.9129,3.8019,3.6499,3.5387,3.4281,0.0,0.0,0.0,0.0,0.0,0.0,0.0,0.0,0.0,0.0,0.0,0.0,0.0,0.0,0.0,0.0,0.0,0.0,3.2586,3.3251,3.3582,3.3582,3.3582,3.3598,3.3598,3.4302,3.4933,3.5629,3.6351,3.7061,3.7764,3.6964,3.6615,3.6554,3.5846,3.5504,3.5504,3.5504,3.5504,3.5504,3.5504,3.5504,3.5504,0.0,0.0,0.0,0.0,0.0,0.0,0.0,3.5504,3.5504,3.5504,3.5504,3.5504,3.5504,3.5504,3.5519,3.5519,3.5998,3.6507,3.6507,0.0,0.0,3.9275,3.9424,3.9798,4.1115,4.2417,4.3135,4.2476,0.0,0.0,0.0,0.0,0.0,0.0,0.0,0.0,0.0,0.0,0.0,0.0,0.0,0.0,0.0,0.0,0.0,0.0,0.0,0.0,0.0,4.2107,4.1895,4.0755,4.0588,4.0636,4.0565,3.9994,3.9685,3.9697,3.9697,3.9697,3.9697,3.9697,3.9697,3.9697,3.9697,3.9697,3.9697,3.9697,3.9697,3.9478,3.8019,3.7465,3.7252,0.0,0.0,0.0,0.0,0.0,0.0,0.0,0.0,0.0,0.0,0.0,0.0,0.0,0.0,0.0,0.0,0.0,0.0,3.2547,3.2312,3.2351,3.2895,3.2895,3.3313,3.4265,3.4911,3.5622,3.6345,3.6564,3.6761,3.6904,3.618,3.5846,3.5846,3.5619,3.5504,3.5504,3.5504,3.5504,3.5504,3.5504,3.5504,3.5504,0.0,0.0,0.0,0.0,0.0,0.0,0.0,0.0,0.0,3.5504,3.5504,3.5504,3.5504,3.5833,3.6193,3.6193,3.6985,0.0,3.7823,0.0,0.0,0.0,4.0113,4.0352,4.1205,4.2417,4.3135,4.2476,0.0,0.0,0.0,0.0,0.0,0.0,0.0,0.0,0.0,0.0,0.0,0.0,0.0,0.0,0.0,0.0,0.0,0.0,0.0,0.0,0.0,4.2917,4.2259,4.0755,4.0663,4.028,3.9433,3.9222,3.932,3.9697,3.9697,3.9697,3.9697,3.9697,3.9697,3.9697,3.9697,3.9697,3.9697,3.9697,3.9697,3.9478,3.8019,3.7465,3.7252,0.0,0.0,0.0,0.0,0.0,0.0,0.0,0.0,0.0,0.0,3.24,0.0,0.0,0.0,0.0,0.0,0.0,0.0,0.0,3.1739,3.1697,3.216,3.242,3.3213,3.4525,3.4908,3.5477,3.6206,3.6199,3.6165,3.6165,3.5733,3.5504,3.5504,3.5504,3.5504,3.5504,3.5504,3.5504,3.5504,3.5504,3.5504,3.5504,0.0,0.0,0.0,0.0,0.0,0.0,0.0,0.0,0.0,3.5504,3.5504,3.5504,3.5504,3.5968,3.6492,3.6492,3.7419,0.0,3.8392,3.8601,3.908,4.0157,0.0,0.0,0.0,0.0,4.321,4.2821,0.0,0.0,0.0,0.0,0.0,0.0,0.0,0.0,0.0,0.0,0.0,0.0,0.0,0.0,0.0,0.0,0.0,0.0,0.0,0.0,0.0,4.3329,4.2821,4.171,4.1072,4.0435,3.992,3.9232,3.9157,3.9697,3.9697,3.9697,3.9697,3.9697,3.9697,3.9697,3.9697,3.9697,3.9697,3.9697,3.9697,3.9581,3.8687,3.8348,3.8243,0.0,0.0,0.0,0.0,0.0,0.0,0.0,0.0,0.0,0.0,3.191,3.1482,0.0,0.0,0.0,0.0,0.0,0.0,0.0,3.1482,3.1497,3.1556,3.2302,3.3245,3.4442,3.4532,3.4876,3.5504,3.5504,3.5504,3.5504,3.5504,3.5504,3.5504,3.5504,3.5504,3.5504,3.5504,3.5504,3.5504,3.5504,3.5504,3.5504,3.5504,0.0,0.0,0.0,0.0,0.0,0.0,0.0,0.0,3.5504,3.5504,3.5504,3.5504,3.5968,3.6492,3.6552,3.7464,0.0,3.8467,3.905,0.0,4.0352,4.1504,4.2417,0.0,0.0,0.0,0.0,0.0,0.0,0.0,0.0,0.0,0.0,0.0,0.0,0.0,0.0,0.0,0.0,0.0,0.0,0.0,0.0,0.0,0.0,0.0,0.0,0.0,4.3329,4.325,4.3155,4.154,4.0976,0.0,3.9725,3.9183,3.9622,3.9672,3.9697,3.9697,3.9697,3.9697,3.9697,3.9697,3.9697,3.9697,3.9697,3.9697,3.9697,3.9697,3.9697,3.9697,0.0,0.0,0.0,0.0,0.0,0.0,0.0,0.0,0.0,0.0,0.0,0.0,0.0,0.0,0.0,0.0,0.0,0.0,0.0,3.1482,3.1706,3.2273,3.3425,3.4188,3.4472,3.5011,3.5355,3.5504,3.5504,3.5504,3.5504,3.5504,3.5504,3.5504,3.5504,3.5504,3.5504,3.5504,3.5504,3.5504,3.5504,3.5504,3.5504,3.5504,3.5504,0.0,0.0,0.0,0.0,0.0,0.0,0.0,3.5504,3.5504,3.5504,3.5504,3.5968,3.6596,3.7075,3.7778,0.0,0.0,4.0083,4.0995,4.113,4.2177,4.2836,0.0,0.0,0.0,0.0,0.0,0.0,0.0,0.0,0.0,0.0,0.0,0.0,0.0,0.0,0.0,0.0,0.0,0.0,0.0,0.0,0.0,0.0,0.0,0.0,4.3329,4.3329,4.29,4.1947,4.1633,4.0779,0.0,3.9593,3.9445,3.9057,3.9496,3.9697,3.9697,3.9697,3.9697,3.9697,3.9697,3.9697,3.9697,3.9697,3.9697,3.9697,3.9697,3.9697,3.9697,0.0,0.0,0.0,0.0,0.0,0.0,0.0,0.0,0.0,0.0,0.0,0.0,0.0,0.0,0.0,0.0,0.0,0.0,0.0,0.0,3.2437,3.341,3.4113,3.4637,3.4966,3.5325,3.5504,3.5504,3.5504,3.5504,3.5504,3.5504,3.5504,3.5504,3.5504,3.5504,3.5504,3.5504,3.5504,3.5504,3.5504,3.5504,3.5504,3.5504,3.5504,3.5504,3.5504,0.0,0.0,0.0,0.0,0.0,0.0,0.0,3.5504,3.5504,3.5968,3.6626,3.724,0.0,0.0,3.9245,0.0,4.1384,4.1384,4.2402,4.3135,0.0,0.0,0.0,0.0,0.0,0.0,0.0,0.0,0.0,0.0,0.0,0.0,0.0,0.0,0.0,0.0,0.0,0.0,0.0,0.0,0.0,0.0,4.3329,4.3329,4.3329,4.3329,4.2996,4.2452,4.185,4.1298,4.0577,4.0363,4.0078,3.9732,3.9728,3.9697,3.9697,3.9697,3.9697,3.9697,3.9697,3.9697,3.9697,3.9697,3.9697,3.9697,3.9697,3.9697,3.9697,0.0,0.0,0.0,0.0,0.0,0.0,0.0,0.0,0.0,0.0,0.0,0.0,0.0,0.0,0.0,0.0,0.0,0.0,0.0,0.0,0.0,3.4427,3.4592,3.4921,3.5489,3.5504,3.5504,3.5504,3.5504,3.5504,3.5504,3.5504,3.5504,3.5504,3.5504,3.5504,3.5504,3.5504,3.5504,3.5504,3.5504,3.5504,3.5504,3.5504,3.5504,3.5504,3.5504,3.5504,3.5504,3.5504,0.0,0.0,0.0,0.0,3.5504,3.5504,3.5893,3.6447,3.709,0.0,3.8556,3.9245,4.0412,0.0,4.1384,4.2402,4.3329,0.0,0.0,0.0,0.0,0.0,0.0,0.0,0.0,0.0,0.0,0.0,0.0,0.0,0.0,0.0,0.0,0.0,0.0,0.0,0.0,0.0,4.3329,4.3329,4.3329,4.3329,4.3329,4.3329,4.3329,4.2371,4.2028,4.228,4.1229,4.0675,4.0565,4.0107,3.979,3.9697,3.9697,3.9697,3.9697,3.9697,3.9697,3.9697,3.9697,3.9697,3.9697,3.9697,3.9697,3.9697,0.0,0.0,0.0,0.0,0.0,0.0,0.0,0.0,0.0,0.0,0.0,0.0,0.0,0.0,0.0,0.0,0.0,0.0,3.1482,0.0,0.0,3.4442,3.5055,3.5415,3.5504,3.5504,3.5504,3.5504,3.5504,3.5504,3.5504,3.5504,3.5504,3.5504,3.5504,3.5504,3.5504,3.5504,3.5504,3.5504,3.5504,3.5504,3.5504,3.5504,3.5504,3.5504,3.5504,3.5504,3.5504,3.5504,3.5504,0.0,0.0,0.0,3.5504,3.5504,3.5564,3.5774,3.6432,0.0,3.8556,0.0,4.0412,4.1384,0.0,0.0,4.3329,0.0,0.0,0.0,0.0,0.0,0.0,0.0,0.0,0.0,0.0,0.0,0.0,0.0,0.0,0.0,0.0,0.0,0.0,0.0,0.0,0.0,4.3329,4.3329,4.3329,4.3329,4.3329,4.3329,4.3329,4.3155,4.2592,4.1717,4.1033,4.0675,4.0552,4.0546,4.0192,3.9697,3.9697,3.9697,3.9697,3.9697,3.9697,3.9697,3.9697,3.9697,3.9697,3.9697,3.9697,3.9697,0.0,0.0,0.0,0.0,0.0,0.0,0.0,0.0,0.0,0.0,0.0,0.0,0.0,0.0,0.0,3.1482,3.1869,3.2392,3.314,3.3724,3.4337,3.5026,3.534,3.5504,3.5504,3.5504,3.5504,3.5504,3.5504,3.5504,3.5504,3.5504,3.5504,3.5504,3.5504,3.5504,3.5504,3.5504,3.5504,3.5504,3.5504,3.5504,3.5504,3.5504,3.5504,3.5504,3.5504,3.5504,3.5504,3.5504,3.5504,3.5504,3.5504,0.0,0.0,0.0,3.5504,3.5654,3.6312,3.7419,3.8467,0.0,4.0127,4.1384,4.1384,0.0,0.0,0.0,0.0,0.0,0.0,0.0,0.0,0.0,0.0,0.0,0.0,0.0,0.0,0.0,0.0,0.0,0.0,0.0,0.0,0.0,0.0,4.3329,4.3329,4.3329,4.3329,4.3329,4.3329,4.3329,4.3329,4.3329,4.3076,4.2563,4.1966,4.1667,4.1584,4.1637,4.0965,3.9697,3.9697,3.9697,3.9697,3.9697,3.9697,3.9697,3.9697,3.9697,3.9697,3.9697,3.9697,3.9697,0.0,0.0,0.0,0.0,0.0,0.0,0.0,0.0,0.0,0.0,0.0,0.0,0.0,0.0,0.0,0.0,3.2228,3.308,3.4382,3.4472,3.4786,3.5474,3.5504,3.5504,3.5504,3.5504,3.5504,3.5504,3.5504,3.5504,3.5504,3.5504,3.5504,3.5504,3.5504,3.5504,3.5504,3.5504,3.5504,3.5504,3.5504,3.5504,3.5504,3.5504,3.5504,3.5504,3.5504,3.5504,3.5504,3.5504,3.5504,3.5504,3.5504,3.5504,0.0,0.0,0.0,3.5654,0.0,0.0,3.7988,3.8302,3.9768,4.1175,0.0,0.0,0.0,0.0,0.0,0.0,0.0,0.0,0.0,0.0,0.0,0.0,0.0,0.0,0.0,0.0,0.0,0.0,0.0,0.0,0.0,0.0,0.0,4.3329,4.3329,4.3329,4.3329,4.3329,4.3329,4.3329,4.3329,4.3329,4.3329,4.3265,4.2855,4.2548,4.2396,4.2598,4.1856,4.0449,4.0198,3.9981,3.9697,3.9697,3.9697,3.9697,3.9697,3.9697,3.9697,3.9697,3.9697,3.9697,0.0,0.0,0.0,0.0,0.0,0.0,0.0,0.0,0.0,0.0,0.0,0.0,3.1482,3.1482,3.1779,3.2407,3.2497,3.308,3.4382,3.4472,3.4786,3.5474,3.5504,0.0,3.5504,3.5504,3.5504,3.5504,3.5504,3.5504,3.5504,3.5504,3.5504,3.5504,3.5504,3.5504,3.5504,3.5504,3.5504,3.5504,3.5504,3.5504,3.5504,3.5504,3.5504,3.5504,3.5504,3.5504,3.5504,3.5504,3.5504,3.5504,3.5504,3.5504,3.5504,0.0,0.0,0.0,0.0,3.6537,0.0,3.8093,3.9424,0.0,0.0,0.0,0.0,0.0,0.0,0.0,0.0,0.0,0.0,0.0,0.0,0.0,0.0,0.0,0.0,0.0,0.0,0.0,0.0,0.0,0.0,0.0,0.0,4.3329,4.3329,4.3329,4.3329,4.3329,4.3329,4.3329,4.3329,4.3329,4.3329,4.3329,4.328,4.2916,4.2452,4.3041,4.2961,4.2301,4.1746,4.0844,3.9697,3.9697,3.9697,3.9697,3.9697,3.9697,3.9697,3.9697,3.9697,3.9697,0.0,0.0,0.0,0.0,0.0,0.0,0.0,0.0,0.0,0.0,0.0,0.0,0.0,3.2153,3.2422,3.308,3.3529,3.4158,3.507,3.513,3.525,3.5489,3.5504,3.5504,3.5504,3.5504,3.5504,3.5504,3.5504,3.5504,3.5504,3.5504,3.5504,3.5504,3.5504,3.5504,3.5504,3.5504,3.5504,3.5504,3.5504,3.5504,3.5504,3.5504,3.5504,0.0,0.0,0.0,3.6193,3.6596,3.6462,3.6133,3.6133,3.5848,3.5504,3.5504,3.5504,3.5549,0.0,0.0,0.0,3.706,3.8482,3.9828,4.0068,0.0,0.0,0.0,0.0,0.0,0.0,0.0,0.0,0.0,0.0,0.0,0.0,0.0,0.0,0.0,0.0,0.0,0.0,0.0,0.0,0.0,0.0,0.0,4.3329,4.3329,4.3329,4.3329,4.3329,4.3329,4.3329,4.3329,4.3329,4.3329,4.3329,4.3195,4.3012,4.3646,4.3673,4.3126,4.3308,4.2481,4.0844,4.0083,3.9697,3.9697,3.9697,3.9697,3.9697,3.9697,3.9697,3.9697,0.0,0.0,0.0,0.0,0.0,0.0,0.0,0.0,0.0,3.1869,0.0,0.0,0.0,0.0,3.311,3.3769,3.4442,3.5011,3.5474,3.5504,3.5504,3.5504,3.5504,3.5504,3.5504,3.5504,3.5504,3.5504,3.5504,3.5504,3.5504,3.5504,3.5504,3.5504,3.5504,3.5504,3.5504,3.5504,3.5504,3.5504,3.5504,3.5504,3.5534,3.5744,3.5833,0.0,0.0,0.0,0.0,3.727,3.7,3.6492,3.6492,3.6028,3.5504,3.5504,3.5504,3.5504,3.5504,3.5833,3.6207,0.0,0.0,3.8871,3.932,0.0,0.0,0.0,0.0,0.0,0.0,0.0,0.0,0.0,0.0,0.0,0.0,0.0,0.0,0.0,0.0,0.0,0.0,0.0,0.0,0.0,0.0,0.0,4.3329,4.3329,4.3329,4.3329,4.3329,4.3329,4.3329,4.3329,4.3329,4.3329,4.3329,4.3329,4.3359,4.4018,4.4101,4.3743,4.4166,4.331,4.1505,4.0642,4.007,3.9697,3.9697,3.9697,3.9697,3.9697,3.9697,3.9697,0.0,0.0,0.0,0.0,0.0,0.0,0.0,0.0,3.2542,3.2542,0.0,0.0,0.0,0.0,0.0,3.4442,3.5115,3.5504,3.5504,3.5504,3.5504,3.5504,3.5504,3.5504,3.5504,3.5504,3.5504,3.5504,3.5504,3.5504,3.5504,3.5504,3.5504,3.5504,3.5504,3.5504,3.5504,3.5504,3.5504,3.5504,3.5534,3.5534,3.5609,0.0,0.0,0.0,3.721,3.7434,0.0,3.7464,0.0,0.0,0.0,3.6013,3.5504,3.5504,3.5504,3.5504,0.0,0.0,0.0,0.0,0.0,0.0,3.905,0.0,0.0,0.0,0.0,0.0,0.0,0.0,0.0,0.0,0.0,0.0,0.0,0.0,0.0,0.0,0.0,0.0,0.0,0.0,0.0,0.0,0.0,4.3329,4.3329,4.3329,4.3329,4.3329,4.3329,4.3329,4.3329,4.3329,4.3329,4.3329,4.3329,4.3329,4.3359,4.3988,4.4302,4.4295,4.4414,4.3347,4.1637,4.1677,4.0932,3.9788,3.9788,3.9788,3.9788,3.9788,3.9788,3.9788,0.0,0.0,0.0,0.0,0.0,0.0,3.2991,3.3095,3.3215,0.0,0.0,0.0,3.4158,3.4651,3.5026,3.5205,3.5385,3.5504,3.5504,3.5504,3.5504,3.5504,3.5504,3.5504,3.5504,3.5504,3.5504,3.5504,3.5504,3.5504,3.5504,3.5504,3.5504,3.5504,3.5504,3.5504,3.5504,3.5504,3.5504,3.5549,3.6028,3.6207,0.0,0.0,0.0,0.0,0.0,3.8123,3.8197,0.0,3.8093,3.6985,0.0,3.5654,3.5504,3.5504,3.5504,3.5504,3.5504,0.0,0.0,0.0,0.0,0.0,0.0,0.0,0.0,0.0,0.0,0.0,0.0,0.0,0.0,0.0,0.0,0.0,0.0,0.0,0.0,0.0,0.0,0.0,0.0,0.0,0.0,0.0,4.3329,4.3329,4.3329,4.3329,4.3329,4.3329,4.3329,4.3329,4.3329,4.3329,4.3329,4.3329,4.3329,4.3329,4.3344,4.3524,4.3868,4.4332,4.4347,4.379,4.2887,4.2942,4.2266,4.1119,4.207,4.1887,4.1032,4.1032,4.1032,4.0932,0.0,0.0,0.0,0.0,0.0,3.3528,3.3486,3.3724,3.3903,0.0,0.0,0.0,3.4861,3.5265,3.5504,3.5504,3.5504,3.5504,3.5504,3.5504,3.5504,3.5504,3.5504,3.5504,3.5504,3.5504,3.5504,3.5504,3.5504,3.5504,3.5504,3.5504,3.5504,3.5504,3.5504,3.5504,3.5504,3.5504,3.5669,0.0,3.6028,0.0,0.0,3.718,3.7404,0.0,0.0,0.0,3.8886,3.929,3.8706,0.0,0.0,0.0,3.5863,3.5594,3.5504,3.5504,3.5504,3.5504,3.5504,3.5504,0.0,0.0,3.6881,3.8048,0.0,0.0,0.0,0.0,0.0,0.0,0.0,0.0,0.0,0.0,0.0,0.0,0.0,0.0,0.0,0.0,0.0,0.0,0.0,4.3329,4.3329,4.3329,4.3329,4.3329,4.3329,4.3329,4.3329,4.3329,4.3329,4.3329,4.3329,4.3329,4.3329,4.3329,4.3329,4.3329,4.3539,4.3928,4.4197,4.4086,4.3785,4.4076,4.3347,4.211,4.3122,4.3026,4.2363,4.2363,4.2363,4.2168,0.0,0.0,3.5284,3.4783,3.4061,3.3634,3.3709,3.4218,3.4592,0.0,3.513,3.5504,3.5504,3.5504,3.5504,3.5504,3.5504,3.5504,3.5504,3.5504,3.5504,3.5504,3.5504,3.5504,3.5504,3.5504,3.5504,3.5504,3.5504,3.5504,3.5504,3.5504,3.5504,3.5504,3.5504,3.5504,3.5504,3.5504,0.0,3.6432,3.5923,3.6103,0.0,0.0,3.7629,3.7793,3.899,3.9424,3.9394,3.9245,3.8841,0.0,0.0,0.0,0.0,0.0,3.5564,3.5504,3.5504,3.5504,3.5504,3.5504,0.0,0.0,3.6342,3.7375,3.8556,0.0,0.0,0.0,0.0,0.0,0.0,0.0,0.0,0.0,0.0,0.0,0.0,0.0,0.0,0.0,0.0,4.3329,4.3329,4.3329,4.3329,4.3329,4.3329,4.3329,4.3329,4.3329,4.3329,4.3329,4.3329,4.3329,4.3329,4.3329,4.3329,4.3329,4.3329,4.3329,4.3329,4.3359,4.3943,4.4212,4.4257,4.4915,4.4168,4.274,4.3561,4.3718,4.3693,4.3693,4.3693,4.3504,3.5228,3.4442,3.4046,3.4483,3.4403,3.4472,3.5026,3.522,3.5295,3.5295,3.5429,3.5504,3.5504,3.5504,3.5504,3.5504,3.5504,3.5504,3.5504,3.5504,3.5504,3.5504,3.5504,3.5504,3.5504,3.5504,3.5504,3.5504,3.5504,3.5504,3.5504,3.5504,3.5504,3.5504,3.5504,3.5504,3.5504,3.5504,0.0,3.6522,3.6896,0.0,3.8093,3.8766,3.9035,3.9065,3.9334,3.9424,3.926,3.8167,3.8063,3.8138,0.0,0.0,0.0,3.6327,0.0,3.5504,3.5504,3.5504,3.5504,0.0,0.0,0.0,3.6342,3.6671,3.7225,0.0,0.0,0.0,0.0,0.0,0.0,0.0,0.0,0.0,0.0,0.0,0.0,0.0,0.0,0.0,0.0,4.3329,4.3329,4.3329,4.3329,4.3329,4.3329,4.3329,4.3329,4.3329,4.3329,4.3329,4.3329,4.3329,4.3329,4.3329,4.3329,4.3329,4.3329,4.3329,4.3329,4.3344,4.3464,4.3524,4.3584,4.4227,4.4317,4.4095,4.5347,4.5432,4.5024,4.5024,4.5024,4.4826,3.6368,3.5623,3.514,3.5476,3.5269,3.51,3.5444,3.5504,3.5504,3.5504,3.5504,3.5504,3.5504,3.5504,3.5504,3.5504,3.5504,3.5504,3.5504,3.5504,3.5504,3.5504,3.5504,3.5504,3.5504,3.5504,3.5504,3.5504,3.5504,3.5504,3.5504,3.5504,3.5504,3.5504,3.5504,3.5504,3.5534,0.0,3.6372,3.6941,3.6941,0.0,3.7973,3.8646,3.8901,3.896,3.929,3.9424,3.9275,3.8242,3.8123,0.0,0.0,3.6731,3.6492,0.0,3.6028,3.5504,0.0,0.0,0.0,3.5504,0.0,0.0,0.0,3.6252,3.6761,0.0,0.0,0.0,0.0,0.0,0.0,0.0,0.0,0.0,0.0,0.0,0.0,0.0,0.0,0.0,0.0,4.3329,4.3329,4.3329,4.3329,4.3329,4.3329,4.3329,4.3329,4.3329,4.3329,4.3329,4.3329,4.3329,4.3329,4.3329,4.3329,4.3329,4.3329,4.3329,4.3329,4.3329,4.3329,4.3329,4.3359,4.3688,4.405,4.4479,4.5784,4.6144,4.5918,4.6226,4.6344,4.6166,3.8149,3.7381,3.6843,3.6843,3.6228,3.5782,3.591,3.5683,3.5504,3.5504,3.5619,3.5778,3.5914,3.5921,3.6019,3.614,3.6034,3.5846,3.5733,3.5733,3.5668,3.5504,3.5504,3.5504,3.5504,3.5504,3.5504,3.5504,3.5504,3.5504,3.5504,3.5504,3.5504,3.5504,3.5504,3.5579,3.5729,3.6267,0.0,3.7375,0.0,3.715,3.7674,3.8332,3.8497,3.8482,3.917,3.9424,3.932,3.8616,3.8482,3.8452,3.7659,3.706,0.0,0.0,0.0,0.0,0.0,0.0,0.0,0.0,0.0,3.5504,0.0,0.0,0.0,0.0,0.0,0.0,0.0,0.0,0.0,0.0,0.0,0.0,0.0,0.0,0.0,0.0,0.0,0.0,0.0,4.3254,4.3329,4.3329,4.3329,4.3329,4.3329,4.3329,4.3329,4.3329,4.3329,4.3329,4.3329,4.3329,4.3329,4.3329,4.3329,4.3329,4.3329,4.3329,4.3329,4.3329,4.3329,4.3329,4.3329,4.3329,4.3643,4.4242,4.5454,4.6007,4.6202,4.6875,4.7115,4.6957,3.8799,3.8189,3.7632,3.7632,3.698,3.6737,3.7413,3.6368,3.5504,3.5504,3.6054,3.6724,3.7404,3.7477,3.7828,3.8432,3.7939,0.0,3.6492,0.0,3.6165,3.5504,3.5504,3.5504,3.5504,3.5504,3.5504,3.5504,3.5504,3.5504,3.5504,3.5504,3.5504,3.5504,3.5504,3.5833,3.6372,0.0,3.6851,0.0,3.7958,3.8212,0.0,3.9035,3.8931,3.8482,3.917,3.9424,3.932,0.0,3.8796,3.908,0.0,3.736,3.7195,3.6656,0.0,0.0,0.0,0.0,0.0,0.0,3.5504,0.0,0.0,0.0,0.0,3.5714,0.0,0.0,0.0,0.0,0.0,0.0,0.0,0.0,0.0,0.0,0.0,0.0,0.0,0.0,0.0,0.0,4.3329,4.3329,4.3329,4.3329,4.3329,4.3329,4.3329,4.3329,4.3329,4.3329,4.3329,4.3329,4.3329,4.3329,4.3329,4.3329,4.3329,4.3329,4.3329,4.3329,4.3329,4.3329,4.3329,4.3329,4.3374,4.3524,4.4257,4.49,4.5484,4.6187,4.6426,4.6516,3.7758,3.7306,3.698,3.6538,3.6196,3.607,3.643,3.591,3.5504,3.5504,3.5782,3.6201,0.0,0.0,0.0,0.0,0.0,3.8455,0.0,0.0,3.7499,3.8091,3.6432,3.5914,3.6761,3.5929,3.5504,3.5504,3.5504,3.5504,3.5504,3.5504,3.5504,3.5519,3.5908,0.0,3.6537,0.0,3.7524,0.0,0.0,0.0,0.0,3.9005,3.9245,3.9035,3.932,3.9424,3.9379,0.0,3.8916,0.0,0.0,0.0,0.0,0.0,0.0,0.0,0.0,0.0,0.0,0.0,0.0,0.0,3.5594,0.0,3.5504,0.0,0.0,0.0,0.0,0.0,0.0,0.0,3.6372,0.0,0.0,0.0,0.0,0.0,0.0,0.0,0.0,0.0,0.0,0.0,0.0,4.2776,4.2776,4.3135,4.3329,4.3329,4.3329,4.3329,4.3329,4.3329,4.3329,4.3329,4.3329,4.3329,4.3329,4.3329,4.3329,4.3329,4.3329,4.3329,4.3329,4.3329,4.3329,4.3359,4.3643,4.4152,4.4811,4.5484,4.5978,4.6367,3.7467,3.7084,3.6737,3.6196,3.5958,3.5718,3.5504,3.5668,3.5782,0.0,0.0,0.0,3.7679,3.7852,0.0,0.0,3.9876,3.9991,0.0,0.0,3.8848,0.0,0.0,0.0,0.0,3.6651,3.5914,3.5504,3.5504,3.5504,3.5504,3.5504,3.5504,3.5534,3.6013,3.6417,3.6806,0.0,3.8063,3.8003,3.8482,3.8377,3.8048,3.8841,3.926,3.9424,3.9424,3.9424,3.9424,3.9424,3.9095,0.0,3.9035,0.0,0.0,0.0,0.0,0.0,3.6611,0.0,0.0,0.0,0.0,0.0,0.0,0.0,0.0,0.0,0.0,0.0,0.0,0.0,3.5504,3.5504,0.0,3.5669,0.0,0.0,0.0,0.0,0.0,0.0,0.0,0.0,0.0,4.1788,4.1998,4.2254,4.2434,4.2821,4.315,4.3329,4.3329,4.3329,4.3329,4.3329,4.3329,4.3329,4.3329,4.3329,4.3329,4.3329,4.3329,4.3329,4.3329,4.3329,4.3329,4.3329,4.3329,4.3329,4.3329,4.3629,4.4122,4.4781,4.5334,4.5729,3.8978,3.8246,3.7748,3.7764,3.7084,3.6337,3.5619,0.0,0.0,0.0,0.0,0.0,0.0,0.0,0.0,0.0,0.0,4.1913,4.1189,0.0,4.0042,0.0,0.0,3.8455,0.0,0.0,3.695,3.5504,3.5504,3.5504,3.5504,3.5504,3.5504,3.5504,3.5534,3.6222,3.7375,3.7419,3.8182,3.9364,3.9379,3.9379,3.929,0.0,3.8841,3.9424,3.9424,0.0,0.0,3.9424,3.9409,0.0,0.0,0.0,0.0,0.0,0.0,0.0,0.0,0.0,0.0,3.7225,0.0,0.0,0.0,0.0,3.5504,0.0,0.0,0.0,0.0,3.5504,3.5504,3.5504,3.5504,0.0,0.0,0.0,0.0,0.0,0.0,0.0,0.0,0.0,0.0,4.0457,4.1055,4.1698,4.2404,4.2387,4.2686,4.3314,4.3329,4.3329,4.3329,4.3329,4.3329,4.3329,4.3329,4.3329,4.3329,4.3329,4.3329,4.3329,4.3329,4.3329,4.3329,4.3329,4.3329,4.3329,4.3329,4.3344,4.3449,4.4107,4.4362,4.4378,3.8302,3.7978,3.7632,0.0,0.0,0.0,0.0,3.7219,0.0,0.0,0.0,0.0,0.0,4.1124,4.1777,0.0,0.0,4.3141,4.3407,4.2235,0.0,0.0,0.0,3.9758,0.0,0.0,0.0,3.6228,3.5718,3.5504,3.5504,3.5504,3.5504,3.5534,3.5953,3.6626,0.0,0.0,0.0,0.0,0.0,3.8482,3.8167,0.0,0.0,3.9424,3.9424,3.9424,0.0,3.9424,3.9424,3.9379,3.914,3.8751,3.8347,3.8123,3.7749,0.0,0.0,0.0,3.7793,3.8003,0.0,0.0,0.0,0.0,0.0,0.0,0.0,0.0,0.0,3.5504,3.5504,3.5504,3.5504,3.5504,0.0,0.0,0.0,0.0,0.0,0.0,0.0,0.0,0.0,3.9679,3.9963,4.0561,4.1654,4.2132,4.2671,4.3314,4.3329,4.3329,4.3329,4.3329,4.3329,4.3329,4.3329,4.3329,4.3329,4.3329,4.3329,4.3329,4.3329,4.3329,4.3329,4.3329,4.3329,4.3329,4.3329,4.3329,4.3359,4.3584,4.3943,4.4154,3.8723,0.0,0.0,0.0,0.0,0.0,0.0,0.0,0.0,0.0,3.9379,0.0,4.1324,0.0,4.2482,0.0,4.3799,4.4045,4.4553,4.3417,0.0,4.4536,4.2427,0.0,0.0,0.0,0.0,0.0,0.0,3.6144,3.5863,3.6088,3.6193,3.6193,3.6626,3.7165,3.7778,3.8212,3.8527,0.0,0.0,3.8138,0.0,0.0,3.905,3.9095,0.0,3.9424,3.9424,3.9424,3.9424,3.9424,3.9424,3.911,3.8751,3.8751,3.8452,3.8212,3.8646,3.8571,0.0,3.8691,3.8078,0.0,3.7195,0.0,0.0,0.0,0.0,0.0,0.0,0.0,3.5504,3.5504,3.5504,3.5504,0.0,3.5504,0.0,0.0,0.0,0.0,0.0,0.0,3.7449,3.8317,3.8586,3.9394,0.0,0.0,4.2177,4.3299,4.3329,4.3329,4.3329,4.3329,4.3329,4.3329,4.3329,4.3329,4.3329,4.3329,4.3329,4.3329,4.3329,4.3329,4.3329,4.3329,4.3329,4.3329,4.3329,4.3329,4.3329,4.3329,4.322,4.2922,4.007,0.0,0.0,0.0,3.7863,0.0,0.0,0.0,3.8949,0.0,4.0337,4.156,4.2284,4.3031,4.3775,4.4519,4.4587,0.0,4.4587,4.3876,0.0,0.0,4.3876,4.3088,4.2361,0.0,0.0,0.0,0.0,3.7333,3.6603,3.7203,3.7473,3.7404,3.7404,0.0,3.8392,3.8347,3.8736,3.932,3.8691,3.8422,3.8392,3.8422,3.8422,3.8482,3.917,3.9424,3.9424,3.9424,3.9424,3.9424,3.9424,3.9424,3.9424,3.9424,3.9424,3.9424,3.9424,3.8931,3.8601,3.926,0.0,0.0,0.0,0.0,3.7404,0.0,0.0,0.0,0.0,0.0,3.5549,3.5504,3.5504,3.5504,3.5504,3.5504,0.0,0.0,0.0,0.0,0.0,3.6073,3.6447,3.6492,3.703,3.8227,0.0,0.0,4.1265,4.318,4.3299,4.3329,4.3329,4.3329,4.3329,4.3329,4.3329,4.3329,4.3329,4.3329,4.3329,4.3329,4.3329,4.3329,4.3329,4.3329,4.3329,4.325,4.325,4.317,4.317,4.317,4.2143,4.0625,4.007,4.007,3.9782,0.0,3.8635,3.8745,0.0,0.0,0.0,0.0,4.1429,4.2274,4.3064,4.3809,4.4367,4.4553,4.4587,0.0,0.0,0.0,0.0,4.457,4.4384,4.3939,4.3127,4.2385,0.0,4.03,0.0,3.8937,3.8169,3.8273,3.8035,3.7404,3.7404,3.7778,3.8362,3.7868,3.8033,3.8691,3.902,3.8841,0.0,0.0,3.8841,3.8482,3.917,3.9424,3.9424,3.9424,3.9424,3.9424,3.9424,3.9424,3.9424,3.9424,3.9424,3.9424,3.9424,3.929,3.92,3.9379,3.8781,3.8182,0.0,0.0,0.0,0.0,0.0,0.0,0.0,0.0,0.0,3.5579,3.5504,3.5504,3.5504,0.0,0.0,3.5504,0.0,0.0,3.5504,3.5654,3.5953,3.6447,3.6626,3.736,3.8826,0.0,0.0,4.1848,4.2836,4.3329,4.3329,4.3329,4.3329,4.3329,4.3329,4.3329,4.3329,4.3329,4.3329,4.3329,4.3329,4.3329,4.3329,4.3329,4.3329,4.325,4.2371,4.1518,4.0845,4.1684,4.1184,3.9999,4.007,0.0,0.0,3.9489,0.0,0.0,4.0046,0.0,0.0,4.1627,4.2625,0.0,4.3403,4.4113,4.4587,4.4587,4.4587,0.0,4.4587,0.0,0.0,4.4587,4.4587,4.4367,4.3927,4.3541,0.0,4.1708,0.0,0.0,3.916,3.947,3.9106,3.8287,3.8287,3.8497,3.8841,3.8751,3.8586,3.8452,3.914,0.0,0.0,3.8826,3.8916,3.8901,3.9275,3.9424,3.9424,3.9424,3.9424,3.9424,3.9424,3.9424,3.9424,3.9424,3.9424,3.9424,3.9424,3.9424,3.9424,3.9424,3.9125,3.8841,3.8841,3.8556,3.8287,0.0,0.0,0.0,0.0,0.0,0.0,3.5609,3.5504,3.5504,0.0,0.0,0.0,0.0,3.5213,0.0,3.4327,3.5001,3.5669,3.6028,3.5681,3.628,0.0,0.0,0.0,4.1324,4.2102,4.2476,4.2476,4.3045,4.3195,4.291,4.3195,4.3329,4.3329,4.3329,4.3329,4.3329,4.3329,4.3329,4.325,4.2725,4.2548,4.2467,4.1253,4.049,3.9899,4.0045,3.9683,3.906,0.0,0.0,0.0,0.0,0.0,0.0,0.0,4.1456,0.0,4.2286,0.0,4.4181,4.3504,4.4113,4.4587,4.4587,0.0,4.4587,4.4587,4.4587,4.4587,4.4587,4.4587,4.4621,4.4722,4.4722,4.4085,0.0,0.0,4.2356,4.0006,4.0613,4.0378,3.9424,3.9424,0.0,0.0,4.0447,3.9922,3.8767,3.9586,3.9324,3.8527,3.8652,3.8957,3.9424,3.9424,3.9424,3.9424,3.9424,3.9424,3.9424,3.9424,3.9424,3.9424,3.9424,3.9424,3.9424,3.9424,3.9424,3.9424,3.9424,3.9424,3.9424,3.9424,3.9424,3.9424,3.9424,3.8945,3.8497,0.0,0.0,0.0,3.5729,0.0,0.0,0.0,0.0,0.0,0.0,0.0,0.0,0.0,3.4327,3.5279,3.5148,3.4327,3.4955,0.0,0.0,0.0,4.0786,4.1205,0.0,4.1384,0.0,4.3045,4.2491,4.306,4.3329,4.3329,4.3329,4.3329,4.3329,4.3329,4.3329,4.325,4.2111,4.142,4.107,4.0059,3.9536,3.9285,3.8289,3.7848,3.7848,0.0,0.0,0.0,0.0,0.0,4.0747,4.2547,4.1977,4.161,4.2219,4.3064,4.3572,4.3436,4.4113,4.4587,4.4587,4.4587,0.0,0.0,0.0,0.0,4.4587,4.4587,4.4874,4.55,4.5517,4.5375,0.0,0.0,0.0,4.1613,4.174,4.0894,3.9424,3.9424,0.0,4.0653,4.207,0.0,4.0483,4.1897,4.1193,3.9301,3.9986,3.9939,3.9424,3.9424,3.9424,3.9424,3.9424,3.9424,3.9424,3.9424,3.9424,3.9424,3.9424,3.9424,3.9424,3.9424,3.9424,3.9424,3.9424,3.9424,3.9424,3.9424,3.9424,3.9424,3.9424,3.9334,3.9065,3.8497,0.0,0.0,0.0,0.0,0.0,0.0,0.0,0.0,0.0,0.0,3.4741,0.0,0.0,0.0,3.3185,3.2961,0.0,0.0,0.0,0.0,0.0,4.0232,0.0,0.0,0.0,4.3284,4.3165,4.3284,4.3329,4.3329,4.3329,4.3329,4.3329,4.3329,4.3329,4.325,4.2111,4.0462,3.8725,3.8469,3.7861,3.6989,3.6803,3.6709,3.6709,0.0,0.0,0.0,0.0,0.0,0.0,0.0,4.3516,0.0,4.3478,4.3792,4.4012,4.4012,4.435,4.4587,4.4587,4.4587,4.4587,4.4587,4.4942,4.5162,4.5162,4.5534,0.0,4.6261,4.665,4.6481,4.5703,0.0,0.0,4.2645,4.2645,4.2013,4.0789,4.1131,4.1544,0.0,0.0,0.0,4.2113,4.3161,4.2493,4.0774,4.1213,4.108,4.0774,4.0774,4.0774,4.0585,3.9666,3.9424,3.9481,3.992,4.0045,4.0045,4.0045,4.0045,3.999,3.9538,3.9424,3.9424,3.9424,3.9424,3.9424,3.9424,3.9424,3.9424,3.9424,3.9424,3.9215,3.8512,3.7883,0.0,0.0,0.0,0.0,0.0,0.0,0.0,0.0,0.0,0.0,0.0,0.0,0.0,0.0,0.0,0.0,0.0,0.0,0.0,0.0,0.0,0.0,0.0,0.0,0.0,4.0651,4.1216,4.1532,4.1532,4.2126,4.2126,4.1532,4.2126,4.2126,4.1449,4.029,3.8814,3.7243,3.7243,3.6883,3.6358,3.6358,3.6358,3.6358,0.0,4.0661,0.0,0.0,4.2021,0.0,4.4127,4.4855,4.5216,4.4986,4.4998,4.4961,4.4814,4.4814,4.472,4.4626,4.4722,4.4823,4.4823,4.5517,4.594,4.594,4.6481,4.687,4.7022,4.7614,4.7344,0.0,0.0,0.0,0.0,4.3372,4.2929,0.0,0.0,0.0,0.0,0.0,4.4949,4.3686,4.4415,4.3589,4.1997,4.2205,4.2125,4.1997,4.1997,4.1997,4.1804,4.0393,3.9935,4.006,4.0758,4.0946,4.0946,4.0946,4.0946,4.0758,3.992,3.9681,3.961,3.9409,3.9424,3.9424,3.9424,3.9424,3.9424,3.9424,3.9424,3.9245,3.8706,3.8497,0.0,0.0,0.0,0.0,0.0,0.0,0.0,0.0,0.0,0.0,3.381,0.0,0.0,0.0,0.0,0.0,0.0,0.0,0.0,0.0,0.0,3.5515,3.6004,0.0,3.8685,0.0,3.9374,3.9899,3.9899,4.0831,4.0746,3.9986,4.0831,4.0561,3.9448,3.8469,3.7415,3.6358,3.6358,3.6358,3.6358,3.6358,3.6263,3.5966,0.0,0.0,0.0,0.0,0.0,0.0,0.0,4.5209,4.5528,4.6134,4.624,4.6014,4.5459,4.5425,4.5178,4.4626,4.5213,4.5602,4.5602,4.6295,4.6684,4.6684,4.6752,4.7107,4.78,4.7885,4.7851,0.0,0.0,4.5958,0.0,0.0,0.0,0.0,0.0,0.0,0.0,4.7233,4.6753,4.5379,4.6207,4.4698,4.2062,4.2847,4.2724,4.1997,4.1997,4.1997,4.1997,4.1804,4.1739,4.1739,4.1869,4.1869,4.1869,4.1869,4.1869,4.1674,4.0826,4.0554,4.0378,3.961,3.9424,3.9424,3.9424,3.9424,3.9424,3.9424,3.9424,3.9394,3.9334,3.8811,3.8167,0.0,0.0,0.0,0.0,0.0,3.7105,3.647,0.0,0.0,0.0,3.2226,0.0,0.0,0.0,0.0,0.0,0.0,0.0,3.3716,0.0,3.4893,3.5502,3.7315,3.8463,3.8962,3.9568,3.9899,3.9899,3.9986,3.9986,3.9899,3.9986,3.936,3.8289,3.8107,3.7415,3.6358,3.6358,3.6358,3.6358,3.6358,3.5667,3.4581,0.0,0.0,0.0,0.0,0.0,0.0,0.0,4.6776,4.7192,4.75,4.6892,4.6319,4.617,4.6169,4.6075,4.5913,4.6177,4.6363,4.6363,4.7056,4.7462,4.7462,4.7885,4.8257,4.8562,4.8578,4.8359,0.0,0.0,0.0,0.0,0.0,0.0,0.0,0.0,4.6809,4.744,4.8236,4.7669,4.6301,4.665,4.5505,4.3604,4.3931,4.3873,4.3545,4.3545,4.3545,4.3545,4.3545,4.2892,4.2062,4.2583,4.2785,4.2785,4.2785,4.2785,4.2458,4.108,4.069,4.05,3.961,3.9424,3.9424,3.9424,3.9424,3.9424,3.9424,3.9424,3.9424,3.9424,3.9185,3.8781,0.0,0.0,0.0,0.0,0.0,0.0,3.6611,0.0,3.6339,0.0,0.0,0.0,0.0,0.0,0.0,0.0,0.0,0.0,3.3051,0.0,3.3144,3.4005,3.4769,3.5568,3.641,3.6985,3.7442,3.7782,3.8482,3.8827,3.8738,3.8134,3.7507,3.7057,3.7057,3.6803,3.6358,3.6358,3.6358,3.6263,3.5475,3.4872,3.4178,4.4973,0.0,4.4968,0.0,4.6172,4.6673,4.7038,4.8012,4.8673,4.8673,4.8134,4.7576,4.7219,4.7415,4.7526,4.7434,4.7597,4.7677,4.7408,4.8323,4.8651,4.824,4.894,0.0,4.9001,4.9001,4.8748,4.824,4.7479,0.0,0.0,0.0,0.0,0.0,4.7682,4.8037,4.8257,4.8562,4.7953,4.6769,4.6549,4.5703,4.4587,4.4587,4.4587,4.4587,4.4587,4.4587,4.4587,4.4587,4.3798,4.2892,4.3486,4.368,4.368,4.368,4.368,4.329,4.1543,4.108,4.0826,3.9666,3.9424,3.9424,3.9424,3.9424,3.9424,3.9424,3.9424,3.9424,3.9424,3.9424,3.9185,3.8497,0.0,0.0,0.0,0.0,0.0,0.0,3.703,3.6891,3.5567,0.0,0.0,0.0,0.0,0.0,0.0,0.0,0.0,0.0,0.0,0.0,0.0,3.2742,3.3382,3.4487,3.5203,3.5742,3.6213,3.7165,3.7586,3.7586,3.6709,3.6358,3.6358,3.6358,3.6358,3.6358,3.6358,3.6156,3.5667,3.4775,3.3871,3.2955,4.7101,4.6735,4.6395,4.6963,4.7075,4.7075,4.7113,4.8508,4.9572,4.9572,5.027,5.0213,4.8728,4.9279,4.9503,4.8933,4.9543,4.9661,4.891,5.0277,5.0445,0.0,0.0,4.9664,4.9001,4.9001,4.9001,4.8984,0.0,0.0,4.7885,0.0,4.7175,4.7902,4.7919,4.8308,4.8951,4.824,4.7479,4.6735,4.6007,4.5263,4.4587,4.4587,4.4587,4.4587,4.4587,4.4587,4.4587,4.4587,4.4587,4.457,4.457,4.457,4.457,4.457,4.457,4.4179,4.2442,4.1997,4.1543,3.9793,3.9424,3.9424,3.9424,3.9424,3.9424,3.9424,3.9424,3.9424,3.9424,3.9424,3.9185,3.8497,0.0,0.0,0.0,0.0,0.0,3.6641,3.703,3.6582,3.4627,0.0,0.0,0.0,0.0,0.0,0.0,0.0,0.0,3.0608,3.0093,0.0,3.1399,3.1951,3.2792,3.3922,3.5014,3.5542,3.5567,3.6107,3.6452,3.6452,3.6452,3.6358,3.6358,3.6358,3.6358,3.6358,3.6358,3.5571,3.4385,3.4385,3.2655,3.0317,4.7831,4.7834,4.7691,4.7882,4.7921,4.8122,4.871,4.9242,4.9793,5.0343,5.1114,5.1458,5.0981,5.0703,5.0509,0.0,5.0624,5.068,0.0,5.084,5.0876,5.0462,5.0626,5.039,4.9722,4.9664,4.9462,4.9001,0.0,0.0,0.0,4.8173,4.8426,4.8663,4.8663,4.8781,4.8951,4.8223,4.7479,4.6735,4.6007,4.5263,4.4587,4.4587,4.4587,4.4587,4.4587,4.4587,4.4587,4.4587,4.4587,4.4587,4.4587,4.4587,4.4587,4.4587,4.4587,4.4253,4.2442,4.1997,4.1609,3.9809,3.9424,3.9424,3.9424,3.9424,3.9424,3.9424,3.9424,3.9424,3.9424,3.9424,3.9185,3.8497,3.8781,0.0,0.0,0.0,0.0,3.7225,3.6704,3.6331,0.0,3.4169,0.0,0.0,0.0,0.0,0.0,0.0,0.0,0.0,3.1537,0.0,3.2528,3.2315,3.278,3.3909,3.4261,3.4813,3.5567,3.6107,3.6358,3.6358,3.6358,3.6358,3.6358,3.6358,3.5858,3.5078,3.5078,3.4166,3.2844,3.1938,3.103,3.0214,4.8214,4.8306,4.8306,4.8306,4.8306,4.86,4.9462,4.9848,5.0325,5.1151,5.1958,5.2454,5.2454,5.2065,0.0,5.1886,5.1892,5.1777,5.1494,5.171,5.1661,5.1138,5.1343,5.112,5.0445,0.0,0.0,4.9359,4.865,4.8325,4.8342,4.8781,4.9001,4.9001,4.9001,4.8849,4.8545,4.7817,4.7056,4.6312,4.5585,4.4993,4.4587,4.4587,4.4587,4.4587,4.4587,4.4587,4.4587,4.4587,4.4587,4.4587,4.4587,4.4587,4.4587,4.4587,4.4587,4.4253,4.2442,4.1997,4.1609,3.9809,3.9424,3.9424,3.9424,3.9424,3.9424,3.9424,3.9424,3.9424,3.9424,3.9424,3.9275,3.8841,3.914,3.9035,3.7928,0.0,0.0,0.0,0.0,0.0,0.0,3.4753,0.0,0.0,0.0,0.0,0.0,0.0,0.0,3.1888,3.1901,0.0,3.2754,3.239,3.2679,3.3596,3.3796,3.4474,3.5554,3.5893,3.6169,3.6358,3.6358,3.6358,3.6358,3.587,3.5174,3.4385,3.3773,3.2755,3.1429,3.0618,3.0016,2.9303,4.8306,4.8306,0.0,0.0,4.8306,0.0,4.9536,5.0306,5.1114,5.1958,5.2747,5.3206,5.3206,5.3206,5.3206,5.3206,0.0,0.0,0.0,5.2831,5.2635,5.1292,5.1856,5.1856,5.1189,5.1189,5.077,4.9976,4.9359,4.9063,4.9001,4.9001,4.9001,4.9001,4.8951,4.8545,4.7868,4.7056,4.6329,4.5652,4.4891,4.4587,4.4587,4.4587,4.4587,4.4587,4.4587,4.4587,4.4587,4.4587,4.4587,4.4587,4.4587,4.4587,4.4587,4.4587,4.4587,4.4253,4.2583,4.2062,4.1609,3.9935,3.9409,3.9424,3.9424,3.9424,3.9424,3.9424,3.9424,3.9424,3.9424,3.9424,3.9424,3.9424,3.9424,3.9185,3.8482,0.0,0.0,0.0,0.0,0.0,0.0,3.5333,3.4458,0.0,0.0,0.0,0.0,0.0,3.1512,3.1512,3.1512,3.175,3.2265,3.2277,3.2541,3.3081,3.3633,3.4437,3.5429,3.5516,3.583,3.6307,3.6345,3.6358,3.6156,3.4872,3.4288,3.3981,3.2644,3.1327,3.011,3.011,2.9303,2.795,0.0,0.0,4.8306,4.8306,4.8306,4.8802,5.0288,5.0674,5.1316,5.2729,5.3096,5.3206,5.3206,5.3206,5.3206,5.3206,5.3206,5.3121,5.2937,5.3103,5.306,5.2725,5.2831,5.2599,5.1856,5.1856,5.1223,4.9976,4.9821,4.9521,4.9001,4.9001,4.9001,4.8984,4.8426,4.8071,4.7834,4.6515,4.5872,4.5652,4.4891,4.4587,4.4587,4.4587,4.4587,4.4587,4.4587,4.4587,4.4587,4.4587,4.4587,4.4587,4.4587,4.4587,4.4587,4.4587,4.4587,4.4384,4.3306,4.252,4.1739,4.069,3.9864,3.9424,3.9424,3.9424,3.9424,3.9424,3.9424,3.9424,3.9424,3.9424,3.9424,3.9424,3.9424,3.9185,3.8482,3.8527,0.0,0.0,3.7605,3.7199,3.7239,3.5795,3.443,0.0,0.0,0.0,0.0,3.2277,3.2679,3.2679,3.2679,3.2742,3.2867,3.2867,3.2943,3.3081,3.3633,3.4035,3.4324,3.5165,3.5617,3.5768,3.6182,3.587,3.4872,3.4483,3.3155,3.1235,3.0927,2.9911,2.8804,2.8804,2.7814,2.6608,4.8306,4.8306,4.8306,4.8306,4.8306,4.8875,5.0545,5.0802,5.1389,5.3004,5.3206,5.3206,5.3206,5.3206,5.3206,5.3206,5.3206,5.3206,5.3206,5.3206,5.3206,5.3206,5.3206,5.2999,5.2599,5.2599,5.2065,5.0964,5.0662,5.0146,4.9462,4.9103,4.8805,4.8477,4.7733,4.7225,4.6853,4.6041,4.5517,4.5162,4.4739,4.4587,4.4587,4.4587,4.4587,4.4587,4.4587,4.4587,4.4587,4.4587,4.4587,4.4587,4.4587,4.4587,4.4587,4.4587,4.4587,4.4384,4.3562,4.2645,4.1674,4.0447,3.9737,3.9424,3.9424,3.9424,3.9424,3.9424,3.9424,3.9424,3.9424,3.9424,3.9424,3.9424,3.9155,3.8811,3.8437,3.8392,0.0,3.8392,3.8132,3.7738,3.7147,3.6067,3.4832,3.3571,0.0,0.0,3.2177,3.2491,3.2679,3.2679,3.2943,3.3081,3.3081,3.3081,3.3081,3.3081,3.3382,3.3658,3.3922,3.4512,3.4674,3.4572,3.4961,3.4438,3.3353,3.2755,3.1644,3.0214,2.9608,2.8562,2.7276,2.7276,2.6381,2.4931,4.8306,4.8306,4.8306,4.8306,4.8306,4.882,5.038,5.0618,5.1151,5.2656,5.2858,5.2858,5.2858,5.2858,5.2858,5.2858,5.2858,5.2949,5.3188,5.3206,5.3206,5.3206,5.3206,5.3206,5.3206,5.3206,5.2777,5.1932,5.1365,5.0647,4.9781,4.9066,4.8432,4.7802,4.7014,4.6295,4.5703,4.5585,4.5162,4.4587,4.4587,4.4587,4.4587,4.4587,4.4587,4.4587,4.4587,4.4587,4.4587,4.4587,4.4587,4.4587,4.4587,4.4587,4.4587,4.4587,4.4587,4.4457,4.3697,4.2769,4.1609,3.9809,3.9424,3.9424,3.9424,3.9424,3.9424,3.9424,3.9424,3.9424,3.9424,3.9424,3.9394,3.929,3.8766,3.8347,3.8257,0.0,3.8392,3.8392,3.8847,3.8368,3.6355,3.6053,3.5183,3.3227,3.2616,3.2516,0.0,3.2566,3.2303,3.2215,3.278,3.3081,3.3081,3.3081,3.3081,3.3081,3.3081,3.3233,3.3495,3.3582,3.3357,3.3054,3.3207,3.2736,3.1827,3.0689,3.0214,2.9911,2.8465,2.7168,2.6045,2.5818,2.482,2.3263,4.8306,4.8306,4.8306,4.8306,4.8306,4.8636,4.9627,4.9774,5.0105,5.1059,5.1169,5.1169,5.1169,5.1169,5.1169,5.1169,5.1169,5.1756,5.3115,5.3206,5.3206,5.3206,5.3206,5.3206,5.3206,5.3206,5.2503,5.1102,5.0962,5.0222,4.8886,4.8187,4.7845,4.7662,4.6448,4.5821,4.5669,4.5026,4.4688,4.4587,4.4587,4.4587,4.4587,4.4587,4.4587,4.4587,4.4587,4.4587,4.4587,4.4587,4.4587,4.4587,4.4587,4.4587,4.4587,4.4587,4.4587,4.457,4.444,4.3213,4.1609,3.9809,3.9424,3.9424,3.9424,3.9424,3.9424,3.9424,3.9424,3.9424,3.9424,3.9424,3.923,3.8646,3.8467,3.8197,3.7644,0.0,3.8392,3.8392,3.8209,3.7572,3.629,3.544,3.4428,3.3154,3.2993,3.2767,3.2365,3.2717,3.2717,3.2227,3.278,3.3081,3.3081,3.3081,3.3081,3.3081,3.3081,3.2562,3.1632,3.219,3.1736,3.0793,3.1644,3.1263,3.0077,3.0263,2.9608,2.8485,2.7041,2.6264,2.5936,2.4599,2.3263,2.1919,4.8306,4.8306,4.8306,4.8306,4.8306,4.86,4.9462,4.9591,4.9884,5.0692,5.0802,5.0802,5.0802,5.0802,5.0802,5.0802,5.0802,5.1132,5.1867,5.1922,5.1922,5.1922,5.1922,5.1922,5.1922,5.1922,5.1559,5.0866,5.0842,5.028,4.9252,4.8537,4.7799,4.7069,4.6038,4.5435,4.5077,4.4722,4.4587,4.4587,4.4587,4.4587,4.4587,4.4587,4.4587,4.4587,4.4587,4.4587,4.4587,4.4587,4.4587,4.4587,4.4587,4.4587,4.4587,4.4587,4.4587,4.4384,4.3469,4.2645,4.1609,3.9809,3.9424,3.9424,3.9424,3.9424,3.9424,3.9424,3.9424,3.9424,3.9424,3.9424,3.9185,3.8497,3.8392,0.0,0.0,3.7973,3.8392,3.8392,3.8529,3.7979,3.6369,3.5734,3.4802,3.324,3.3081,3.2955,3.2692,3.293,3.2955,3.2692,3.293,3.3081,3.3081,3.3081,3.2797,3.2052,3.2052,3.1412,3.0226,3.0479,3.0075,2.9126,2.957,2.9384,2.8674,2.8773,2.8133,2.7051,2.6381,2.5151,2.359,2.2927,2.1707,2.0242,4.8306,4.8306,4.8306,4.8306,4.8306,4.8526,4.9187,4.9297,4.9517,5.0141,5.0215,5.0215,5.0215,5.0215,5.0215,5.0215,5.0215,5.0215,5.0215,5.0215,5.0398,5.0784,5.0802,5.0802,5.0802,5.0802,5.071,5.0508,5.0508,5.0159,4.9365,4.8638,4.7665,4.6517,4.5806,4.5178,4.4587,4.4587,4.4587,4.4587,4.4587,4.4587,4.4587,4.4587,4.4587,4.4587,4.4587,4.4587,4.4587,4.4587,4.4587,4.4587,4.4587,4.4587,4.4587,4.4587,4.4457,4.3931,4.2442,4.1869,4.1346,3.9809,3.9424,3.9424,3.9424,3.9424,3.9424,3.9424,3.9424,3.9424,3.9424,3.9424,3.9185,3.8497,0.0,0.0,0.0,3.8078,3.8452,3.8601,3.8865,3.8383,3.6774,3.6132,3.5197,3.3543,3.324,3.3081,3.3081,3.3081,3.3081,3.3081,3.3081,3.3081,3.3081,3.2797,3.2152,3.1223,3.0956,3.0135,2.8947,2.8947,2.8513,2.7641,2.7744,2.7462,2.7083,2.7179,2.6579,2.5489,2.5151,2.359,2.1465,2.0773,1.9768,1.8642,4.8306,4.8306,4.8306,4.8306,4.8306,4.8324,4.8398,4.8398,4.8416,4.8489,4.8489,4.8489,4.8489,4.8489,4.8489,4.8489,4.8489,4.8489,4.8489,4.8489,4.9187,5.0729,5.0802,5.0802,5.0802,5.0802,5.0435,4.9682,4.9682,4.926,4.8394,4.7783,4.7089,4.6406,4.5749,4.5178,4.4587,4.4587,4.4587,4.4587,4.4587,4.4587,4.4587,4.4587,4.4587,4.4587,4.4587,4.4587,4.4587,4.4587,4.4587,4.4587,4.4587,4.4587,4.4587,4.4587,4.4006,4.3169,4.2252,4.1412,4.0554,3.961,3.9424,3.9424,3.9424,3.9424,3.9424,3.9424,3.9424,3.9424,3.9424,3.9424,3.9185,3.8497,0.0,0.0,3.8317,3.8362,3.8631,3.9275,3.8517,3.7829,3.7677,3.5935,3.4746,3.4594,3.3628,3.3081,3.3081,3.3081,3.3081,3.3081,3.3081,3.3081,3.3081,3.1952,3.1311,3.1223,3.0045,2.8866,2.7767,2.7767,2.7051,2.5898,2.63,2.5996,2.505,2.5403,2.4919,2.3822,2.2476,2.1805,2.1237,1.8351,1.7319,1.6968,4.8306,4.8306,4.8306,4.8306,4.8306,4.8306,4.8306,4.8306,4.8306,4.8306,4.8306,4.8306,4.8306,4.8306,4.8306,4.8306,4.8306,4.8306,4.8306,4.8306,4.8581,4.9224,4.926,4.926,4.926,4.926,4.9095,4.8783,4.8783,4.8618,4.8306,4.7656,4.7044,4.6383,4.5783,4.5178,4.4587,4.4587,4.4587,4.4587,4.4587,4.4587,4.4587,4.4587,4.4587,4.4587,4.4587,4.4587,4.4587,4.4587,4.4587,4.4587,4.4587,4.4587,4.4587,4.4587,4.4006,4.3246,4.2909,4.1804,4.05,3.961,3.9424,3.9424,3.9424,3.9424,3.9424,3.9424,3.9424,3.9424,3.9424,3.9424,3.9185,3.8497,0.0,3.8871,3.8452,3.8751,3.9125,3.9394,3.9031,3.8546,3.7829,3.6462,3.5359,3.4746,3.3713,3.3081,3.3081,3.3081,3.3081,3.3081,3.2326,3.1965,3.1965,3.14,3.0496,2.8958,2.8495,2.7673,2.639,2.639,2.6207,2.5645,2.4984,2.4656,2.4418,2.3965,2.3045,2.2069,2.173,2.043,1.8584,1.743,1.6374,1.5311,4.8306,4.8306,4.8306,4.8306,4.8306,4.8306,4.8306,4.8306,4.8306,4.8306,4.8306,4.8306,4.8306,4.8306,4.8306,4.8306,4.8306,4.8306,4.8306,4.8306,4.8306,4.8306,4.8306,4.8306,4.8306,4.8306,4.8306,4.8306,4.8306,4.8306,4.8306,4.7897,4.7237,4.6383,4.5965,4.532,4.4587,4.4587,4.4587,4.4587,4.4587,4.4587,4.4587,4.4587,4.4587,4.4587,4.4587,4.4587,4.4587,4.4587,4.4587,4.4587,4.4587,4.4587,4.4587,4.4587,4.3798,4.2909,4.2909,4.1609,4.0239,3.9864,3.961,3.9424,3.9424,3.9424,3.9424,3.9424,3.9424,3.9424,3.9424,3.9424,3.926,3.8796,3.911,3.926,3.8781,3.9125,3.9424,3.9424,3.9424,3.8943,3.7904,3.6852,3.5814,3.4746,3.3713,3.3081,3.3081,3.3081,3.2896,3.2513,3.1689,3.0855,3.0045,3.0045,2.9223,2.7589,2.722,2.6572,2.5742,2.5742,2.543,2.502,2.4097,2.3397,2.2954,2.2274,2.134,2.0355,2.0195,1.8816,1.6844,1.5897,1.4831,1.3651,4.8306,4.8306,4.8306,4.8306,4.8306,4.8306,4.8306,4.8306,4.8306,4.8306,4.8306,4.8306,4.8306,4.8306,4.8306,4.8306,4.8306,4.8306,4.8306,4.8306,4.8306,4.8306,4.8306,4.8306,4.8306,4.8306,4.8306,4.8306,4.8306,4.8306,4.8306,4.8306,4.7614,4.6383,4.6383,4.5732,4.4587,4.4587,4.4587,4.4587,4.4587,4.4587,4.4587,4.4587,4.4587,4.4587,4.4587,4.4587,4.4587,4.4587,4.4587,4.4587,4.4587,4.4587,4.4587,4.4587,4.335,4.1997,4.1997,4.0774,3.961,4.05,4.006,3.9424,3.9424,3.9424,3.9424,3.9424,3.9424,3.9424,3.9424,3.9424,3.9424,3.9424,3.9424,3.9424,3.9424,3.9424,3.9424,3.9424,3.9424,3.8943,3.7904,3.6852,3.5734,3.4746,3.3713,3.3081,3.3081,3.3081,3.2525,3.1223,3.1211,3.0045,2.7589,2.7589,2.7589,2.7589,2.6294,2.5732,2.5635,2.5635,2.4922,2.3692,2.3683,2.2274,2.0143,2.0364,1.9832,1.8711,1.7456,1.6962,1.6609,1.3402,1.2213,1.1976,4.8306,4.8306,4.8306,4.8306,4.8306,4.8306,4.8306,4.8306,4.8306,4.8306,4.8306,4.8306,4.8306,4.8306,4.8306,4.8306,4.8306,4.8306,4.8306,4.8306,4.8306,4.8306,4.8306,4.8306,4.8306,4.8306,4.8306,4.8306,4.8306,4.8306,4.8306,4.7856,4.7237,4.6383,4.5965,4.532,4.4587,4.4587,4.4587,4.4587,4.4587,4.4587,4.4587,4.4587,4.4587,4.4587,4.4587,4.4587,4.4587,4.4587,4.4587,4.4587,4.4587,4.4587,4.4587,4.4587,4.4253,4.368,4.3108,4.2078,4.0961,4.006,3.961,3.9424,3.9424,3.9424,3.9424,3.9424,3.9424,3.9424,3.9424,3.9424,3.9424,3.9424,3.9424,3.9424,3.9424,3.9424,3.9424,3.9424,3.8708,3.8144,3.7829,3.616,3.5061,3.4746,3.3713,3.3081,3.3081,3.2239,3.1589,3.1223,2.959,2.8319,2.7589,2.7589,2.7125,2.6294,2.5927,2.5226,2.4304,2.4304,2.3583,2.2257,2.1253,2.0395,1.9702,1.8985,1.7987,1.6916,1.6712,1.5392,1.3522,1.2569,1.1499,1.0422,4.855,4.8421,4.8306,4.8306,4.8306,4.8306,4.8306,4.8306,4.8306,4.8306,4.8306,4.8306,4.8306,4.8306,4.8306,4.8306,4.8306,4.8306,4.8306,4.8306,4.8306,4.8306,4.8306,4.8306,4.8306,4.8306,4.8306,4.8306,4.8306,4.8306,4.8306,4.7937,4.7428,4.6756,4.6161,4.5494,4.4961,4.472,4.4587,4.4587,4.4587,4.4587,4.4587,4.4587,4.4587,4.4587,4.4587,4.4587,4.4587,4.4587,4.4587,4.4587,4.4587,4.4587,4.4587,4.4587,4.4384,4.3948,4.3426,4.2645,4.1674,4.0239,3.9681,3.9424,3.9424,3.9424,3.9424,3.9424,3.9424,3.9424,3.9424,3.9424,3.9424,3.9424,3.9424,3.9424,3.9424,3.9424,3.9424,3.9424,3.8472,3.7663,3.7175,3.5682,3.4511,3.4108,3.3471,3.3081,3.3081,3.1865,3.0944,3.0496,2.8588,2.7315,2.6849,2.6849,2.6476,2.5732,2.5128,2.451,2.3692,2.3176,2.2156,2.0845,1.993,1.9324,1.8729,1.7668,1.6753,1.5997,1.5095,1.3687,1.2097,1.1499,1.066,0.9822,4.8945,4.864,4.8364,4.8364,4.8326,4.8306,4.8306,4.8306,4.8306,4.8306,4.8306,4.8306,4.8306,4.8306,4.8306,4.8306,4.8306,4.8306,4.8306,4.8306,4.8306,4.8306,4.8306,4.8306,4.8306,4.8306,4.8306,4.8306,4.8306,4.8306,4.8306,4.8306,4.7995,4.7385,4.6756,4.6112,4.5459,4.4906,4.4626,4.4587,4.4587,4.4587,4.4587,4.4587,4.4587,4.4587,4.4587,4.4587,4.4587,4.4587,4.4587,4.4587,4.4587,4.4587,4.4587,4.4587,4.4064,4.3383,4.3306,4.2707,4.1933,4.1013,4.0185,3.9481,3.9409,3.9424,3.9424,3.9424,3.9424,3.9424,3.9424,3.9424,3.9424,3.9424,3.9424,3.9424,3.9424,3.9424,3.9424,3.9424,3.8383,3.7252,3.6277,3.5197,3.4108,3.3154,3.3081,3.3081,3.3081,3.1777,3.0496,2.9407,2.8132,2.6849,2.5732,2.5538,2.5528,2.5538,2.4304,2.3583,2.3285,2.2055,2.0735,1.942,1.942,1.8603,1.7279,1.6331,1.5824,1.5423,1.2878,1.1913,1.1856,1.0301,0.9822,0.9704,4.9356,4.9062,4.8779,4.8779,4.8513,4.8306,4.8306,4.8306,4.8306,4.8306,4.8306,4.8306,4.8306,4.8306,4.8306,4.8306,4.8306,4.8306,4.8306,4.8306,4.8306,4.8306,4.8306,4.8306,4.8306,4.8306,4.8306,4.8306,4.8306,4.8306,4.8306,4.8306,4.7995,4.7385,4.7237,4.6542,4.5511,4.5372,4.5052,4.4587,4.4587,4.4587,4.4587,4.4587,4.4587,4.4587,4.4587,4.4587,4.4587,4.4587,4.4587,4.4587,4.4587,4.4587,4.4587,4.4587,4.4457,4.4196,4.3502,4.3169,4.2785,4.1933,4.108,4.0239,3.9538,3.9424,3.9424,3.9424,3.9424,3.9424,3.9424,3.9424,3.9424,3.9424,3.9424,3.9424,3.9424,3.9424,3.9424,3.9424,3.7724,3.6448,3.6198,3.4568,3.3313,3.3167,3.3081,3.3081,3.3081,3.0956,2.967,2.9407,2.7305,2.6014,2.5742,2.4609,2.4097,2.4097,2.3791,2.2567,2.0436,2.0238,1.9317,1.7989,1.7989,1.7239,1.5855,1.5583,1.4339,1.2452,1.1808,1.1102,1.0301,0.994,0.9832,0.9477,4.9773,4.9475,4.9171,4.9171,4.8829,4.8604,4.8604,4.8421,4.8306,4.8306,4.8306,4.8306,4.8306,4.8306,4.8306,4.8306,4.8306,4.8306,4.8306,4.8306,4.8306,4.8306,4.8306,4.8306,4.8306,4.8306,4.8306,4.8306,4.8306,4.8306,4.8306,4.8306,4.8114,4.7797,4.753,4.7017,4.6353,4.5732,4.532,4.4998,4.472,4.4587,4.4587,4.4587,4.4587,4.4587,4.4587,4.4587,4.4587,4.4587,4.4587,4.4587,4.4587,4.4587,4.4587,4.4587,4.4587,4.4514,4.4064,4.3931,4.368,4.2847,4.1933,4.108,4.0255,3.9666,3.9424,3.9424,3.9424,3.9424,3.9424,3.9424,3.9424,3.9424,3.9424,3.9424,3.9424,3.9424,3.9192,3.8708,3.7175,3.5814,3.4802,3.37,3.3081,3.3081,3.3081,3.2797,3.2239,3.0406,2.9131,2.8588,2.6658,2.5742,2.5742,2.4402,2.3384,2.2767,2.2064,2.0947,1.9627,1.8916,1.7871,1.6499,1.6499,1.5743,1.4341,1.3691,1.2644,1.1425,1.0743,1.0259,0.9822,0.9832,0.9741,0.9522,5.0206,4.9827,4.9504,4.9504,4.9108,4.8813,4.8813,4.8513,4.8306,4.8306,4.8306,4.8306,4.8306,4.8306,4.8306,4.8306,4.8306,4.8306,4.8306,4.8306,4.8306,4.8306,4.8306,4.8306,4.8306,4.8306,4.8306,4.8306,4.8306,4.8306,4.8306,4.8306,4.8306,4.8267,4.7797,4.7488,4.7342,4.6161,4.5597,4.5459,4.4869,4.4587,4.4587,4.4587,4.4587,4.4587,4.4587,4.4587,4.4587,4.4587,4.4587,4.4587,4.4587,4.4587,4.4587,4.4587,4.4587,4.4587,4.4587,4.4587,4.444,4.368,4.2847,4.1997,4.1147,4.0115,3.9424,3.9424,3.9424,3.9424,3.9424,3.9424,3.9424,3.9424,3.9424,3.9424,3.9424,3.9424,3.9017,3.7919,3.6696,3.5183,3.3326,3.3081,3.3081,3.3081,3.3081,3.2513,3.1311,3.0045,2.8866,2.7683,2.639,2.5635,2.5333,2.3998,2.2667,2.1347,1.993,1.922,1.922,1.8094,1.6823,1.5417,1.5417,1.4449,1.2837,1.1647,1.1081,1.1044,0.9831,0.9551,0.9798,0.9727,0.9777,0.9691,5.0624,4.9999,4.9504,4.9504,4.8881,4.8402,4.8402,4.8326,4.8306,4.8306,4.8306,4.8306,4.8306,4.8306,4.8306,4.8306,4.8306,4.8306,4.8306,4.8306,4.8306,4.8306,4.8306,4.8306,4.8306,4.8306,4.8306,4.8306,4.8306,4.8306,4.8306,4.8306,4.8306,4.8306,4.821,4.7897,4.7342,4.6571,4.5965,4.5459,4.4869,4.4587,4.4587,4.4587,4.4587,4.4587,4.4587,4.4587,4.4587,4.4587,4.4587,4.4587,4.4587,4.4587,4.4587,4.4587,4.4587,4.4587,4.4587,4.4587,4.457,4.444,4.3756,4.2909,4.1997,4.0585,3.9424,3.9424,3.9424,3.9424,3.9424,3.9424,3.9424,3.9424,3.9424,3.9424,3.9424,3.9424,3.9017,3.7919,3.6094,3.4428,3.324,3.3081,3.3081,3.3081,3.3081,3.2513,3.1311,3.0045,2.8866,2.7683,2.639,2.5118,2.3989,2.2667,2.1245,1.9826,1.8506,1.7891,1.7891,1.7687,1.6823,1.5417,1.5417,1.3911,1.1428,1.1214,1.0461,0.9536,0.9347,0.9392,0.9566,0.9741,0.9811,0.8937,5.0702,5.0249,4.9846,4.9846,4.9171,4.864,4.864,4.8458,4.8306,4.8306,4.8306,4.8306,4.8306,4.8306,4.8306,4.8306,4.8306,4.8306,4.8306,4.8306,4.8306,4.8306,4.8306,4.8306,4.8306,4.8306,4.8306,4.8306,4.8306,4.8306,4.8306,4.8306,4.8306,4.8306,4.8306,4.8172,4.7838,4.7237,4.6819,4.6495,4.5511,4.5089,4.5089,4.472,4.4587,4.4587,4.4587,4.4587,4.4587,4.4587,4.4587,4.4587,4.4587,4.4587,4.4587,4.4587,4.4587,4.4587,4.4587,4.4587,4.4587,4.4587,4.3931,4.3047,4.2189,4.1028,3.999,3.9481,3.9424,3.9424,3.9424,3.9424,3.9424,3.9424,3.9424,3.9424,3.9424,3.9424,3.8782,3.7098,3.5047,3.3641,3.3154,3.3081,3.3081,3.3081,3.2426,3.15,3.0226,2.9039,2.7861,2.6572,2.5294,2.4304,2.3692,2.1558,2.0238,1.9627,1.8199,1.7582,1.7582,1.6717,1.563,1.4126,1.3372,1.186,0.9919,0.9919,0.9572,0.9171,0.9228,0.9334,0.9697,0.9784,0.7431,0.3952]},{"header":{"parameterUnit":"m.s-1","parameterCategory":1,"la1":30.6,"la2":28.766,"lo1":-90.7593,"lo2":-88.6598,"dy":0.0162,"dx":0.0183,"nx":116,"ny":114,"refTime":"2023-04-23T06:00:00:Z","depth":0,"parameterNumber":3,"parameterNumberName":"V-component_of_WINDS"},"data":[0.0,0.0,0.0,0.0,0.0,0.0,0.0,0.0,0.0,0.0,0.0,0.0,0.0,0.0,0.0,0.0,0.0,0.0,0.0,0.0,0.0,0.0,0.0,0.0,0.0,0.0,0.0,0.0,0.0,0.0,0.0,0.0,0.0,0.0,0.0,0.0,0.0,0.0,0.0,0.0,0.0,0.0,0.0,0.0,0.0,0.0,0.0,0.0,0.0,0.0,0.0,0.0,0.0,0.0,0.0,0.0,0.0,0.0,0.0,0.0,0.0,0.0,0.0,0.0,0.0,0.0,0.0,0.0,0.0,0.0,0.0,0.0,0.0,0.0,0.0,0.0,0.0,0.0,0.0,0.0,0.0,0.0,0.0,0.0,0.0,0.0,0.0,0.0,0.0,0.0,0.0,0.0,0.0,0.0,0.0,0.0,0.0,0.0,0.0,0.0,0.0,0.0,0.0,0.0,0.0,0.0,0.0,0.0,0.0,0.0,0.0,0.0,0.0,0.0,0.0,0.0,0.0,0.0,0.0,0.0,0.0,0.0,0.0,0.0,0.0,0.0,0.0,0.0,0.0,0.0,0.0,0.0,0.0,0.0,0.0,0.0,0.0,0.0,0.0,0.0,0.0,0.0,0.0,0.0,0.0,0.0,0.0,0.0,0.0,0.0,0.0,0.0,0.0,0.0,0.0,0.0,0.0,0.0,0.0,0.0,0.0,0.0,0.0,0.0,0.0,0.0,0.0,0.0,0.0,0.0,0.0,0.0,0.0,0.0,0.0,0.0,0.0,0.0,0.0,0.0,0.0,0.0,0.0,0.0,0.0,0.0,0.0,0.0,0.0,0.0,0.0,0.0,0.0,0.0,0.0,0.0,0.0,0.0,0.0,0.0,0.0,0.0,0.0,0.0,0.0,0.0,0.0,0.0,0.0,0.0,0.0,0.0,0.0,0.0,0.0,0.0,0.0,0.0,0.0,0.0,0.0,0.0,0.0,0.0,0.0,0.0,0.0,0.0,0.0,0.0,0.0,0.0,0.0,0.0,0.0,0.0,0.0,0.0,0.0,0.0,0.0,0.0,0.0,0.0,0.0,0.0,0.0,0.0,0.0,0.0,0.0,0.0,0.0,0.0,0.0,0.0,0.0,0.0,0.0,0.0,0.0,0.0,0.0,0.0,0.0,0.0,0.0,0.0,0.0,0.0,0.0,0.0,0.0,0.0,0.0,0.0,0.0,0.0,0.0,0.0,0.0,0.0,0.0,0.0,0.0,0.0,0.0,0.0,0.0,0.0,0.0,0.0,0.0,0.0,0.0,0.0,0.0,0.0,0.0,0.0,0.0,0.0,0.0,0.0,0.0,0.0,0.0,0.0,0.0,0.0,0.0,0.0,0.0,0.0,0.0,0.0,0.0,0.0,0.0,0.0,0.0,0.0,0.0,0.0,0.0,0.0,0.0,0.0,0.0,0.0,0.0,0.0,0.0,0.0,0.0,0.0,0.0,0.0,0.0,0.0,0.0,0.0,0.0,0.0,0.0,0.0,0.0,0.0,0.0,0.0,0.0,0.0,0.0,0.0,0.0,0.0,0.0,0.0,0.0,0.0,0.0,0.0,0.0,0.0,0.0,0.0,0.0,0.0,0.0,0.0,0.0,0.0,0.0,0.0,0.0,0.0,0.0,0.0,0.0,0.0,0.0,0.0,0.0,0.0,0.0,0.0,0.0,0.0,0.0,0.0,0.0,0.0,0.0,0.0,0.0,0.0,0.0,0.0,0.0,0.0,0.0,0.0,0.0,0.0,0.0,0.0,0.0,0.0,0.0,0.0,0.0,0.0,0.0,0.0,0.0,0.0,0.0,0.0,0.0,0.0,0.0,0.0,0.0,0.0,0.0,0.0,0.0,0.0,0.0,0.0,0.0,0.0,0.0,0.0,0.0,0.0,0.0,0.0,0.0,0.0,0.0,0.0,0.0,0.0,0.0,0.0,0.0,0.0,0.0,0.0,0.0,0.0,0.0,0.0,0.0,0.0,0.0,0.0,0.0,0.0,0.0,0.0,0.0,0.0,0.0,0.0,0.0,0.0,0.0,0.0,0.0,0.0,0.0,0.0,0.0,0.0,0.0,0.0,0.0,0.0,0.0,0.0,0.0,0.0,0.0,0.0,0.0,0.0,0.0,0.0,0.0,0.0,0.0,0.0,0.0,0.0,0.0,0.0,0.0,0.0,0.0,0.0,0.0,0.0,0.0,0.0,0.0,0.0,0.0,0.0,0.0,0.0,0.0,0.0,0.0,0.0,0.0,0.0,0.0,0.0,0.0,0.0,0.0,0.0,0.0,0.0,0.0,0.0,0.0,0.0,0.0,0.0,0.0,0.0,0.0,0.0,0.0,0.0,0.0,0.0,0.0,0.0,0.0,0.0,0.0,0.0,0.0,0.0,0.0,0.0,0.0,0.0,0.0,0.0,0.0,0.0,0.0,0.0,0.0,0.0,0.0,0.0,0.0,0.0,0.0,0.0,0.0,0.0,0.0,0.0,0.0,0.0,0.0,0.0,0.0,0.0,0.0,0.0,0.0,0.0,0.0,0.0,0.0,0.0,0.0,0.0,0.0,0.0,0.0,0.0,0.0,0.0,0.0,0.0,0.0,0.0,0.0,0.0,0.0,0.0,0.0,0.0,0.0,0.0,0.0,0.0,0.0,0.0,0.0,0.0,0.0,0.0,0.0,0.0,0.0,0.0,0.0,0.0,0.0,0.0,0.0,0.0,0.0,0.0,0.0,0.0,0.0,0.0,0.0,0.0,0.0,0.0,0.0,0.0,0.0,0.0,0.0,0.0,0.0,0.0,0.0,0.0,0.0,0.0,0.0,0.0,0.0,0.0,0.0,0.0,0.0,0.0,0.0,0.0,0.0,0.0,0.0,0.0,0.0,0.0,0.0,0.0,0.0,0.0,0.0,0.0,0.0,0.0,0.0,0.0,0.0,0.0,0.0,0.0,0.0,0.0,0.0,0.0,0.0,0.0,0.0,0.0,0.0,0.0,0.0,0.0,0.0,0.0,0.0,0.0,0.0,0.0,0.0,0.0,0.0,0.0,0.0,0.0,0.0,0.0,0.0,0.0,0.0,0.0,0.0,0.0,0.0,0.0,0.0,0.0,0.0,0.0,0.0,0.0,0.0,0.0,0.0,0.0,0.0,0.0,0.0,0.0,0.0,0.0,0.0,0.0,0.0,0.0,0.0,0.0,0.0,0.0,0.0,0.0,0.0,0.0,0.0,0.0,0.0,0.0,0.0,0.0,0.0,0.0,0.0,0.0,0.0,0.0,0.0,0.0,0.0,0.0,0.0,0.0,0.0,0.0,0.0,0.0,0.0,0.0,0.0,0.0,0.0,0.0,0.0,0.0,0.0,0.0,0.0,0.0,0.0,0.0,0.0,0.0,0.0,0.0,0.0,0.0,0.0,0.0,0.0,0.0,0.0,0.0,0.0,0.0,0.0,0.0,0.0,0.0,0.0,0.0,0.0,0.0,0.0,0.0,0.0,0.0,0.0,0.0,0.0,0.0,0.0,0.0,0.0,0.0,0.0,0.0,0.0,0.0,0.0,0.0,0.0,0.0,0.0,0.0,0.0,0.0,0.0,0.0,0.0,0.0,0.0,0.0,0.0,0.0,0.0,0.0,0.0,0.0,0.0,0.0,0.0,0.0,0.0,0.0,0.0,0.0,0.0,0.0,0.0,0.0,0.0,0.0,0.0,0.0,0.0,0.0,0.0,0.0,0.0,0.0,0.0,0.0,0.0,0.0,0.0,0.0,0.0,0.0,0.0,0.0,0.0,0.0,0.0,0.0,0.0,0.0,0.0,0.0,0.0,0.0,0.0,0.0,0.0,0.0,0.0,0.0,0.0,0.0,0.0,0.0,0.0,0.0,0.0,0.0,0.0,0.0,0.0,0.0,0.0,0.0,0.0,0.0,0.0,0.0,0.0,0.0,0.0,0.0,0.0,0.0,0.0,0.0,0.0,0.0,0.0,0.0,0.0,0.0,0.0,0.0,0.0,0.0,0.0,0.0,0.0,0.0,0.0,0.0,0.0,0.0,0.0,0.0,0.0,0.0,0.0,0.0,0.0,0.0,0.0,0.0,0.0,0.0,0.0,0.0,0.0,0.0,0.0,0.0,0.0,0.0,0.0,0.0,0.0,0.0,0.0,0.0,0.0,0.0,0.0,0.0,0.0,0.0,0.0,0.0,0.0,0.0,0.0,0.0,0.0,0.0,0.0,0.0,0.0,0.0,0.0,0.0,0.0,0.0,0.0,0.0,0.0,0.0,0.0,0.0,0.0,0.0,0.0,0.0,0.0,0.0,0.0,0.0,0.0,0.0,0.0,0.0,0.0,0.0,0.0,0.0,0.0,0.0,0.0,0.0,0.0,0.0,0.0,0.0,0.0,0.0,0.0,0.0,0.0,0.0,0.0,0.0,0.0,0.0,0.0,0.0,0.0,0.0,0.0,0.0,0.0,0.0,0.0,0.0,0.0,0.0,0.0,0.0,0.0,0.0,0.0,0.0,0.0,0.0,0.0,0.0,0.0,0.0,0.0,0.0,0.0,0.0,0.0,0.0,0.0,0.0,0.0,0.0,0.0,0.0,0.0,0.0,0.0,0.0,0.0,0.0,0.0,0.0,0.0,0.0,0.0,0.0,0.0,0.0,0.0,0.0,0.0,0.0,0.0,0.0,0.0,0.0,0.0,0.0,0.0,0.0,0.0,0.0,0.0,0.0,0.0,0.0,0.0,0.0,0.0,0.0,0.0,0.0,0.0,0.0,0.0,0.0,0.0,0.0,0.0,0.0,0.0,0.0,0.0,0.0,0.0,0.0,0.0,0.0,0.0,0.0,0.0,0.0,0.0,0.0,0.0,0.0,0.0,0.0,0.0,0.0,0.0,0.0,0.0,0.0,0.0,0.0,0.0,0.0,0.0,0.0,0.0,0.0,0.0,0.0,0.0,0.0,0.0,0.0,0.0,0.0,0.0,0.0,0.0,0.0,0.0,0.0,0.0,0.0,0.0,0.0,0.0,0.0,0.0,0.0,0.0,0.0,0.0,0.0,0.0,0.0,0.0,0.0,0.0,0.0,0.0,0.0,0.0,0.0,0.0,0.0,0.0,0.0,0.0,0.0,0.0,0.0,0.0,0.0,0.0,0.0,0.0,0.0,0.0,0.0,0.0,0.0,0.0,0.0,0.0,0.0,0.0,0.0,0.0,0.0,0.0,0.0,0.0,0.0,0.0,0.0,0.0,0.0,0.0,0.0,0.0,0.0,0.0,0.0,0.0,0.0,0.0,0.0,0.0,0.0,0.0,0.0,0.0,0.0,0.0,0.0,0.0,0.0,0.0,0.0,0.0,0.0,0.0,0.0,0.0,0.0,0.0,0.0,0.0,0.0,0.0,0.0,0.0,0.0,0.0,0.0,0.0,0.0,0.0,0.0,0.0,0.0,0.0,0.0,0.0,0.0,0.0,0.0,0.0,0.0,0.0,0.0,0.0,0.0,0.0,0.0,0.0,0.0,0.0,0.0,0.0,0.0,0.0,0.0,0.0,0.0,0.0,0.0,0.0,0.0,0.0,0.0,0.0,0.0,0.0,0.0,0.0,0.0,0.0,0.0,0.0,0.0,0.0,0.0,0.0,0.0,0.0,0.0,0.0,0.0,0.0,0.0,0.0,0.0,0.0,0.0,0.0,0.0,0.0,0.0,0.0,0.0,0.0,0.0,0.0,0.0,0.0,0.0,0.0,0.0,0.0,0.0,0.0,0.0,0.0,0.0,0.0,0.0,0.0,0.0,0.0,0.0,0.0,0.0,0.0,0.0,0.0,0.0,0.0,0.0,0.0,0.0,0.0,0.0,0.0,0.0,0.0,0.0,0.0,0.0,0.0,0.0,0.0,0.0,0.0,0.0,0.0,0.0,0.0,0.0,0.0,0.0,0.0,0.0,0.0,0.0,0.0,0.0,0.0,0.0,0.0,0.0,0.0,0.0,0.0,0.0,0.0,0.0,0.0,0.0,0.0,0.0,0.0,0.0,0.0,0.0,0.0,0.0,0.0,0.0,0.0,0.0,0.0,0.0,-3.0871,0.0,0.0,0.0,0.0,0.0,0.0,0.0,0.0,0.0,0.0,0.0,0.0,0.0,0.0,0.0,0.0,0.0,0.0,0.0,0.0,0.0,0.0,0.0,0.0,0.0,0.0,0.0,0.0,0.0,0.0,0.0,0.0,0.0,0.0,0.0,0.0,0.0,0.0,0.0,-1.7642,-1.7047,-1.6067,-1.4692,-1.377,-1.3173,0.0,0.0,0.0,0.0,0.0,0.0,0.0,0.0,0.0,0.0,0.0,0.0,0.0,0.0,0.0,0.0,0.0,0.0,0.0,0.0,0.0,0.0,0.0,0.0,0.0,0.0,0.0,0.0,0.0,0.0,0.0,0.0,0.0,0.0,0.0,0.0,0.0,0.0,0.0,0.0,0.0,0.0,0.0,0.0,0.0,0.0,0.0,0.0,0.0,0.0,0.0,0.0,0.0,0.0,0.0,0.0,0.0,0.0,0.0,0.0,0.0,0.0,0.0,0.0,0.0,0.0,0.0,0.0,0.0,0.0,0.0,-3.1135,0.0,0.0,0.0,0.0,0.0,0.0,0.0,0.0,0.0,0.0,0.0,0.0,0.0,0.0,0.0,0.0,0.0,0.0,0.0,0.0,0.0,0.0,0.0,0.0,-1.8008,-1.8008,-1.7862,-1.7862,0.0,0.0,0.0,0.0,0.0,0.0,0.0,-1.8315,-1.8084,-1.7267,-1.7726,-1.7074,-1.5466,-1.4897,-1.4416,-1.3851,-1.3343,0.0,0.0,0.0,0.0,0.0,0.0,0.0,0.0,0.0,0.0,0.0,0.0,0.0,0.0,0.0,0.0,0.0,0.0,0.0,0.0,0.0,0.0,0.0,0.0,0.0,0.0,0.0,0.0,0.0,0.0,0.0,0.0,0.0,0.0,0.0,0.0,0.0,0.0,0.0,0.0,0.0,0.0,0.0,0.0,0.0,0.0,0.0,0.0,0.0,0.0,0.0,0.0,0.0,0.0,0.0,0.0,0.0,0.0,0.0,0.0,0.0,0.0,0.0,0.0,-3.1687,-3.1687,-3.1687,-3.1687,-3.1675,-3.1587,-3.1788,-3.2139,0.0,0.0,0.0,0.0,0.0,0.0,0.0,0.0,0.0,0.0,0.0,0.0,0.0,0.0,0.0,0.0,0.0,0.0,0.0,0.0,0.0,0.0,-1.8008,-1.8008,-1.8008,-1.7285,-1.7139,0.0,0.0,0.0,0.0,0.0,0.0,-1.8555,-1.8089,-1.8028,-1.8469,-1.7547,-1.6579,-1.5399,-1.5355,-1.5237,-1.5046,-1.3422,-1.1933,-1.0781,0.0,0.0,0.0,0.0,0.0,0.0,0.0,0.0,0.0,0.0,0.0,0.0,0.0,0.0,0.0,0.0,0.0,0.0,0.0,0.0,0.0,0.0,0.0,0.0,0.0,0.0,0.0,0.0,0.0,0.0,0.0,0.0,0.0,0.0,0.0,0.0,0.0,0.0,0.0,0.0,0.0,-1.9716,-2.1301,0.0,0.0,0.0,0.0,0.0,0.0,0.0,0.0,0.0,0.0,0.0,0.0,0.0,0.0,-2.8842,-3.006,-3.0841,-3.1197,-3.2389,-3.2855,-3.2855,-3.2855,-3.2855,-3.283,-3.2315,0.0,-3.2202,-3.2064,0.0,0.0,0.0,0.0,0.0,0.0,0.0,0.0,0.0,0.0,0.0,0.0,0.0,0.0,0.0,0.0,0.0,0.0,0.0,0.0,0.0,-1.7353,-1.7211,-1.6697,-1.6442,-1.6404,-1.6634,0.0,0.0,0.0,0.0,-1.8706,-1.8108,-1.8194,-1.8115,-1.7712,-1.6601,-1.592,-1.5638,-1.5638,-1.5249,-1.4565,-1.3665,-1.278,-1.1876,-1.1503,0.0,0.0,0.0,0.0,0.0,0.0,0.0,0.0,0.0,0.0,0.0,0.0,0.0,0.0,0.0,0.0,0.0,0.0,0.0,0.0,0.0,0.0,0.0,0.0,0.0,0.0,0.0,0.0,0.0,0.0,0.0,0.0,0.0,0.0,0.0,0.0,0.0,0.0,0.0,-2.0071,-2.1578,-2.2454,-2.2764,-2.2803,0.0,0.0,0.0,0.0,0.0,0.0,0.0,0.0,0.0,-2.9479,-2.9502,-3.002,-3.1177,-3.1723,-3.2105,-3.2239,-3.2797,-3.3081,-3.3081,-3.3081,-3.3081,-3.3068,-3.2805,-3.2704,-3.2667,-3.2353,-3.2215,-3.2248,0.0,0.0,0.0,0.0,0.0,-3.4747,0.0,0.0,0.0,0.0,0.0,0.0,0.0,0.0,0.0,0.0,0.0,0.0,-1.6799,-1.6722,-1.643,-1.5758,-1.5702,-1.5659,-1.57,-1.6696,0.0,0.0,-1.8689,-1.8917,-1.7854,-1.8073,-1.7613,-1.6632,-1.5821,-1.5618,-1.5832,-1.5832,-1.5337,-1.4364,-1.3686,-1.2959,-1.2097,-1.1446,-1.141,-1.1741,0.0,0.0,0.0,0.0,0.0,0.0,0.0,0.0,0.0,0.0,0.0,0.0,0.0,0.0,0.0,0.0,0.0,0.0,0.0,0.0,0.0,0.0,0.0,0.0,0.0,0.0,0.0,0.0,0.0,0.0,0.0,0.0,0.0,0.0,0.0,0.0,0.0,-2.1923,-2.3156,-2.3252,-2.4105,-2.4459,0.0,0.0,0.0,0.0,0.0,0.0,-2.8717,-2.9,-2.9762,-3.1184,-3.1196,-3.1847,-3.3068,-3.3081,-3.3081,-3.3081,-3.3081,-3.3081,-3.3081,-3.3081,-3.3081,-3.3081,-3.3081,-3.3081,-3.3043,-3.2616,-3.2441,-3.25,-3.307,-3.306,-3.275,-3.3525,-3.3914,-3.4388,0.0,0.0,0.0,0.0,0.0,0.0,0.0,0.0,0.0,0.0,0.0,-1.7009,-1.7009,-1.6444,-1.6051,-1.5967,-1.5158,-1.5011,-1.5899,-1.6144,-1.6682,-1.7599,-1.9042,-1.9345,-1.8249,-1.7219,-1.6284,-1.5483,-1.5671,-1.5812,-1.5832,-1.5832,-1.5737,-1.5635,-1.3108,-1.1236,-0.9984,-1.1014,-1.0707,-0.9591,-1.049,0.0,0.0,0.0,0.0,0.0,0.0,0.0,0.0,0.0,0.0,0.0,0.0,0.0,0.0,0.0,0.0,0.0,0.0,0.0,0.0,0.0,0.0,0.0,0.0,0.0,0.0,0.0,0.0,0.0,0.0,0.0,0.0,0.0,0.0,0.0,0.0,0.0,0.0,-2.388,-2.6604,0.0,0.0,0.0,0.0,-2.7993,-2.9025,-2.9964,-3.0477,-3.1466,-3.2259,-3.292,-3.2945,-3.3043,-3.3081,-3.3081,-3.3081,-3.3081,-3.3081,-3.3081,-3.3081,-3.3081,-3.3081,-3.3081,-3.3081,-3.3081,-3.3081,-3.3043,-3.3031,-3.298,-3.2512,-3.2273,-3.2248,-3.2248,-3.2941,-3.4033,0.0,0.0,0.0,0.0,0.0,0.0,0.0,0.0,-1.7794,-1.7207,-1.7069,-1.652,-1.5348,-1.5327,-1.5189,-1.4489,-1.4367,-1.4405,-1.4724,-1.5506,-1.6381,-1.7429,-1.7952,-1.7917,-1.7227,-1.6279,-1.5732,-1.5671,-1.5778,-1.5832,-1.5832,-1.5832,-1.5832,-1.573,-1.4854,-1.3154,-1.1153,-1.0665,-1.0642,-1.0726,-1.112,-1.1288,0.0,0.0,0.0,0.0,0.0,0.0,0.0,0.0,0.0,0.0,0.0,0.0,0.0,0.0,0.0,0.0,0.0,0.0,0.0,0.0,0.0,0.0,0.0,0.0,0.0,0.0,0.0,0.0,0.0,0.0,0.0,0.0,0.0,0.0,0.0,0.0,0.0,-2.6583,-2.7922,0.0,-2.7988,-2.911,-2.9858,-2.9757,-3.1125,-3.2031,-3.2228,-3.2584,-3.2867,-3.3068,-3.3081,-3.3081,-3.3081,-3.3081,-3.3081,-3.3081,-3.3081,-3.3081,-3.3081,-3.3445,-3.3608,-3.3621,-3.3985,-3.4135,-3.4135,-3.4135,-3.3721,-3.3093,-3.3244,-3.3294,-3.3419,-3.4585,-3.5214,-3.5805,0.0,0.0,0.0,0.0,0.0,0.0,0.0,0.0,-1.7705,-1.6827,-1.6685,-1.608,-1.4637,-1.467,-1.4515,-1.3794,-1.4062,-1.4195,-1.4095,-1.5565,-1.648,-1.6764,-1.6876,-1.6846,-1.6736,-1.5825,-1.5538,-1.5832,-1.5832,-1.5832,-1.5832,-1.5832,-1.5832,-1.5825,-1.5343,-1.4465,-1.3108,-1.1361,-1.0794,-1.0943,-1.0491,-1.0548,-1.105,0.0,0.0,0.0,0.0,0.0,0.0,0.0,0.0,0.0,0.0,0.0,0.0,0.0,0.0,0.0,0.0,0.0,0.0,0.0,0.0,0.0,0.0,0.0,0.0,0.0,0.0,0.0,0.0,0.0,0.0,0.0,0.0,0.0,0.0,0.0,-2.8431,-2.8327,-2.9431,-3.0097,-2.9642,-3.0723,-3.1442,-3.1442,-3.25,-3.3081,-3.3081,-3.3081,-3.3081,-3.3081,-3.3081,-3.3081,-3.3081,-3.3257,-3.3357,-3.3357,-3.3545,-3.3633,-3.3646,-3.401,-3.4173,-3.4198,-3.4562,-3.4726,-3.4726,-3.4726,-3.4299,-3.3671,-3.4035,-3.4173,-3.43,-3.5502,-3.6144,-3.681,0.0,0.0,0.0,0.0,0.0,0.0,0.0,-1.8008,-1.7732,-1.7063,-1.6387,-1.5761,-1.51,-1.4476,-1.4088,-1.4088,-1.4355,-1.4402,-1.4122,-1.6369,-1.7056,-1.5733,-1.5948,-1.6424,-1.6973,-1.5936,-1.5545,-1.5832,-1.5832,-1.5832,-1.5832,-1.5832,-1.5832,-1.573,-1.4555,-1.4657,-1.5534,-1.3011,-1.1263,-0.9981,-0.8549,-0.9234,-1.1268,0.0,0.0,0.0,0.0,0.0,0.0,0.0,0.0,0.0,0.0,0.0,0.0,0.0,0.0,0.0,0.0,0.0,0.0,0.0,0.0,0.0,0.0,0.0,0.0,0.0,0.0,0.0,0.0,0.0,0.0,0.0,0.0,0.0,-2.774,-2.9371,-3.0201,-2.9069,-3.1387,-3.2612,-3.14,-3.2339,-3.3081,-3.3081,-3.3081,-3.3081,-3.3081,-3.3081,-3.3081,-3.3106,-3.3106,-3.3106,-3.3131,-3.3658,-3.3922,-3.3935,-3.4462,-3.4726,-3.4726,-3.4738,-3.4751,-3.4751,-3.4763,-3.4776,-3.4776,-3.4776,-3.4776,-3.4776,-3.4751,-3.4751,-3.4751,-3.4853,-3.5607,-3.7021,0.0,0.0,0.0,0.0,0.0,0.0,0.0,-1.8008,-1.7515,-1.6161,-1.6005,-1.5529,-1.4163,-1.4068,-1.4088,-1.4088,-1.4355,-1.4489,-1.4402,-1.5067,-1.524,-1.4812,-1.6082,-1.6451,-1.5831,-1.5785,-1.5752,-1.5832,-1.5832,-1.5832,-1.5832,-1.5832,-1.5832,-1.5825,-1.5439,-1.4949,-1.4364,-1.3686,-1.3102,-1.2711,-1.1293,-1.0573,-1.0386,0.0,0.0,0.0,0.0,0.0,0.0,0.0,0.0,0.0,0.0,0.0,0.0,0.0,0.0,0.0,0.0,0.0,0.0,0.0,0.0,0.0,0.0,0.0,0.0,0.0,0.0,0.0,0.0,0.0,0.0,0.0,0.0,-3.0022,-2.9765,-3.0883,-3.1833,-3.1895,-3.2624,-3.2982,-3.2612,-3.2884,-3.3081,-3.3081,-3.3081,-3.3081,-3.3081,-3.3081,-3.3257,-3.3658,-3.3671,-3.3872,-3.4274,-3.4424,-3.45,-3.45,-3.465,-3.4726,-3.4738,-3.514,-3.5316,-3.5341,-3.5742,-3.5906,-3.5906,-3.5906,-3.5906,-3.5868,-3.5479,-3.5316,-3.5537,-3.7679,-3.973,-4.1506,0.0,0.0,0.0,0.0,0.0,0.0,0.0,-1.8008,-1.7432,-1.5922,-1.587,-1.5428,-1.3939,-1.3981,-1.4088,-1.4088,-1.4355,-1.4469,-1.4349,-1.4449,-1.4798,-1.556,-1.6083,-1.607,-1.5578,-1.5745,-1.5832,-1.5832,-1.5832,-1.5832,-1.5832,-1.5832,-1.5832,-1.5832,-1.5832,-1.5439,-1.4657,-1.4166,-1.3878,-1.3872,-1.3006,-1.2193,-1.1611,-1.2924,-1.287,-1.2296,-1.3393,-1.3851,-1.3826,-1.3665,0.0,0.0,0.0,0.0,0.0,0.0,0.0,0.0,0.0,0.0,0.0,0.0,0.0,0.0,0.0,0.0,0.0,0.0,0.0,0.0,0.0,0.0,0.0,0.0,-3.0203,-3.1333,-3.1565,-3.2214,-3.2704,-3.3031,-3.3081,-3.3081,-3.3081,-3.3081,-3.3081,-3.3081,-3.3294,-3.342,-3.342,-3.3646,-3.3909,-3.4236,-3.4248,-3.4399,-3.4726,-3.4951,-3.5064,-3.5064,-3.5303,-3.5416,-3.5416,-3.5742,-3.5893,0.0,-3.6219,-3.6358,-3.6358,-3.6358,-3.6722,0.0,0.0,0.0,0.0,0.0,-4.1435,-4.2644,0.0,0.0,0.0,0.0,0.0,0.0,0.0,-1.8008,-1.7516,-1.6213,-1.6,-1.5506,-1.4266,-1.4088,-1.4088,-1.4088,-1.4355,-1.4429,-1.4202,-1.4456,-1.528,-1.6784,-1.5957,-1.5565,-1.5818,-1.5832,-1.5832,-1.5832,-1.5832,-1.5832,-1.5832,-1.5832,-1.5832,-1.5832,-1.5832,-1.5845,-1.5777,-1.4604,-1.4226,-1.4256,-1.4256,-1.3993,-1.3743,-1.3725,-1.3513,-1.3439,-1.4553,-1.4942,-1.4962,-1.4929,0.0,0.0,0.0,0.0,0.0,0.0,0.0,0.0,0.0,0.0,0.0,0.0,0.0,0.0,0.0,0.0,0.0,0.0,0.0,0.0,0.0,0.0,0.0,0.0,-3.1257,-3.2491,-3.3006,-3.3081,-3.3081,-3.3081,-3.3081,-3.3081,-3.3081,-3.3131,-3.3169,-3.3169,-3.3684,-3.3985,-3.3985,0.0,0.0,0.0,0.0,-3.4851,-3.4901,-3.5391,-3.5642,-3.5642,-3.6119,-3.6358,-3.6358,-3.6358,-3.6358,-3.6358,-3.6358,-3.6358,-3.6358,-3.6358,-3.7057,-3.803,-3.715,-3.7507,-3.8725,-4.0802,-4.167,0.0,0.0,0.0,0.0,0.0,0.0,0.0,0.0,-1.8008,-1.7516,-1.6213,-1.6,-1.5506,-1.4266,-1.4088,-1.4088,-1.4088,-1.4355,-1.4596,-1.4783,-1.5064,-1.5369,-1.5654,-1.5712,-1.5772,-1.5832,-1.5832,-1.5832,-1.5832,-1.5832,-1.5832,-1.5832,-1.5832,-1.5832,-1.5832,-1.5832,-1.5965,-1.6186,-1.5985,-1.5921,-1.613,-1.613,-1.5218,-1.3999,-1.4968,-1.4777,-1.4134,-1.4334,-1.457,-1.4819,-1.4503,-1.5126,-1.5979,-1.5738,-1.5544,0.0,0.0,0.0,0.0,0.0,0.0,0.0,0.0,0.0,0.0,0.0,0.0,0.0,0.0,0.0,0.0,0.0,0.0,0.0,-3.0381,-3.1822,-3.2955,-3.3056,-3.3081,-3.3081,-3.3081,-3.3081,-3.3081,-3.3081,-3.3483,-3.3746,-3.3746,-3.4248,-3.4562,-3.4562,-3.4663,0.0,-3.5366,-3.5391,-3.5604,-3.6044,-3.6144,-3.6207,-3.6207,0.0,0.0,-3.6358,-3.6358,-3.6358,-3.6358,-3.6358,-3.6358,-3.6358,-3.6358,-3.7057,-3.8198,-3.8917,-3.9958,-4.0986,-4.142,-4.2193,-4.2981,0.0,0.0,0.0,0.0,0.0,0.0,0.0,-1.8008,-1.766,-1.6638,-1.6493,-1.5951,-1.4538,-1.4353,-1.4179,-1.3848,-1.4269,-1.4643,-1.4943,-1.5237,-1.5464,-1.5605,-1.5752,-1.5832,-1.5832,-1.5832,-1.5832,-1.5832,-1.5832,-1.5832,-1.5832,-1.5832,-1.5832,-1.5838,-1.5985,-1.6132,-1.6286,-1.6426,-1.6573,-1.6707,-1.6707,-1.6123,-1.536,-1.5967,-1.5954,-1.5463,-1.5463,-1.5657,-1.5752,-1.5513,-1.5978,-1.6466,-1.6313,-1.6072,-1.6264,0.0,0.0,0.0,0.0,0.0,0.0,0.0,0.0,0.0,0.0,0.0,0.0,0.0,0.0,-2.8287,0.0,0.0,-3.0819,-3.1333,-3.2338,-3.3081,-3.3081,-3.3319,-3.3382,-3.3106,-3.3319,-3.3483,-3.3483,-3.3985,-3.4311,-3.4311,-3.4826,-3.514,-3.514,-3.5391,-3.5667,-3.5943,-3.5956,-3.6094,-3.6358,-3.6358,-3.6358,-3.6358,-3.6358,-3.6358,-3.6358,-3.6358,-3.6358,-3.6358,-3.6358,-3.6358,-3.6452,-3.7691,-3.8827,-3.9944,-4.1169,-4.1601,-4.167,-4.2208,-4.2805,-4.3329,0.0,0.0,0.0,0.0,0.0,0.0,0.0,-1.8008,-1.7741,-1.7063,-1.6964,-1.6439,-1.5065,-1.4872,-1.4695,-1.4244,-1.4592,-1.4899,-1.5287,-1.5376,-1.5585,-1.5818,-1.5832,-1.5832,-1.5832,-1.5832,-1.5832,-1.5832,-1.5832,-1.5832,-1.5832,-1.5832,-1.5832,-1.5845,-1.6139,-1.6306,-1.638,-1.6667,-1.682,-1.6874,-1.6874,-1.6874,-1.6874,-1.6874,-1.684,-1.6794,-1.6794,-1.6794,-1.68,-1.6854,-1.684,-1.68,-1.686,-1.6673,-1.6869,-1.9051,-1.9865,0.0,0.0,0.0,0.0,0.0,0.0,0.0,0.0,0.0,-2.652,-2.6875,-2.7867,-2.9017,-3.0253,-3.0772,-3.1332,-3.2209,-3.2767,-3.3119,-3.3219,-3.3621,-3.3771,-3.3432,-3.3796,-3.406,-3.406,-3.4562,-3.4876,-3.4876,-3.5391,-3.5705,-3.5705,-3.6119,-3.6358,-3.6358,-3.6358,-3.6358,-3.6358,-3.6358,-3.6358,-3.6358,-3.6358,-3.6358,-3.6358,-3.6358,-3.6358,-3.6452,-3.6628,-3.6896,-3.7243,-3.936,-4.0746,-4.1684,-4.282,-4.2725,-4.2029,-4.2981,-4.3329,-4.3329,0.0,0.0,0.0,0.0,0.0,0.0,0.0,0.0,-1.7741,-1.7063,-1.6964,-1.6732,-1.5959,-1.5847,-1.5992,-1.6347,-1.5967,-1.59,-1.6397,-1.6012,-1.5798,-1.5832,-1.5832,-1.5832,-1.5832,-1.5832,-1.5832,-1.5832,-1.5832,-1.5832,-1.5832,-1.5832,-1.5832,-1.5845,-1.6139,-1.642,-1.668,-1.6974,-1.7248,-1.7482,-1.7482,-1.7482,-1.7482,-1.7482,-1.7321,-1.7101,-1.7101,-1.7101,-1.7134,-1.7395,-1.7315,-1.7148,-1.7402,-1.7288,-1.7638,-2.0055,-2.0726,-2.1001,-2.3176,-2.3789,-2.3857,-2.3857,-2.4102,-2.4463,0.0,0.0,-2.7285,-2.8785,-3.0053,-3.1233,-3.2524,-3.2759,-3.2882,-3.298,-3.3031,-3.3257,-3.3734,-3.3859,-3.406,-3.4487,-3.4587,-3.4625,-3.4625,-3.5127,-3.5454,-3.5454,-3.5956,-3.627,-3.627,-3.632,-3.6358,-3.6358,-3.6358,-3.6358,-3.6358,-3.6358,-3.6358,-3.6358,-3.6358,-3.6358,-3.6358,-3.6358,-3.6358,-3.6452,-3.7507,-3.8482,-3.9637,-4.0901,-4.1504,-4.1684,-4.282,-4.325,-4.3155,-4.325,-4.3329,-4.3329,0.0,0.0,0.0,0.0,0.0,0.0,0.0,0.0,0.0,0.0,-1.7558,-1.7254,-1.6462,-1.6012,-1.5831,-1.6053,-1.5986,-1.5992,-1.6211,-1.5943,-1.5832,-1.5832,-1.5832,-1.5832,-1.5832,-1.5832,-1.5832,-1.5832,-1.5832,-1.5832,-1.5832,-1.5832,-1.5832,-1.5852,-1.6313,-1.6593,-1.6734,-1.7201,-1.7468,-1.7582,-1.7582,-1.7582,-1.7582,-1.7582,-1.7508,-1.7479,-1.8009,-1.8252,0.0,-1.8401,-1.8359,-1.8207,-1.7698,-1.7888,-1.8644,-2.0412,-2.1345,-2.2037,-2.4028,-2.4346,-2.4277,-2.4795,-2.4863,-2.4912,-2.5352,-2.692,-2.8521,-2.9271,-3.0956,-3.2426,-3.2982,-3.3081,-3.3181,0.0,-3.3558,-3.3746,-3.4299,-3.465,-3.4939,-3.5177,-3.5479,-3.5554,-3.524,-3.5692,-3.6019,-3.6019,-3.6232,-3.6358,-3.6358,-3.6358,-3.6358,-3.6358,-3.6358,-3.6358,-3.6358,-3.6358,-3.6358,-3.6358,-3.6358,-3.6358,-3.6358,-3.6358,-3.6803,-3.7415,-3.7848,-3.9156,-4.0916,-4.142,-4.2029,-4.2644,-4.3076,-4.3329,-4.3329,-4.3329,-4.3329,-4.3329,0.0,0.0,0.0,0.0,0.0,0.0,0.0,0.0,0.0,0.0,-1.8008,-1.7725,-1.707,-1.6546,-1.6318,-1.6422,-1.6206,-1.6156,-1.6345,-1.5973,-1.5745,-1.5825,-1.5832,-1.5832,-1.5832,-1.5832,-1.5832,-1.5832,-1.5832,-1.5832,-1.5832,-1.5832,-1.5832,-1.5852,-1.644,-1.6707,-1.6747,-1.7335,-1.7582,-1.7582,-1.7582,-1.7582,-1.7582,-1.7582,-1.7738,-1.8047,-1.8731,-1.8895,-1.8914,-1.9307,-1.9338,-1.9124,-1.8549,-1.8796,-1.9698,-2.0966,-2.2065,-2.3103,-2.4484,-2.4658,-2.46,-2.5361,-2.54,-2.5332,-2.5664,-2.74,-2.8866,-2.8866,-3.0866,-3.2612,-3.2612,-3.3008,-3.3432,-3.3834,-3.4022,-3.4324,-3.4876,-3.529,-3.5604,-3.5755,-3.6119,-3.6207,-3.5805,-3.6119,-3.6358,-3.6358,-3.6358,-3.6358,-3.6358,-3.6358,-3.6358,-3.6358,-3.6358,-3.6358,-3.6358,-3.6358,-3.6358,-3.6358,-3.6358,-3.6358,-3.6452,-3.6709,-3.7507,-3.8649,-3.8903,-4.0204,-4.2111,-4.2111,-4.2651,-4.3599,-4.3599,-4.3718,-4.3868,-4.3868,-4.3643,-4.3329,0.0,0.0,0.0,0.0,0.0,0.0,0.0,0.0,0.0,0.0,0.0,0.0,0.0,-1.7949,-1.8046,-1.8453,-1.7299,-1.6798,-1.7511,-1.6224,-1.5531,-1.5818,-1.5832,-1.5832,-1.5832,-1.5832,-1.5832,-1.5832,-1.5832,-1.5832,-1.5832,-1.5832,-1.5832,-1.5852,-1.644,-1.6707,-1.6747,-1.7335,-1.7582,-1.7582,-1.7582,-1.7582,-1.7582,-1.7582,-1.8116,-1.8962,-1.8955,-1.8748,-1.8663,-1.9917,-2.0164,-1.9935,-2.0207,-2.0313,-2.0586,-2.1951,-2.301,-2.3806,-2.4326,-2.4424,-2.4521,-2.498,-2.54,-2.5723,-2.5732,-2.6658,-2.7683,-2.7683,-2.959,-3.1223,-3.1223,-3.2668,-3.3884,-3.3897,-3.4349,-3.4889,-3.5441,-3.5449,-3.5742,-3.627,-3.6358,-3.6358,0.0,-3.6358,-3.6358,-3.6358,-3.6358,-3.6358,-3.6358,-3.6358,-3.6358,-3.6358,-3.6358,-3.6358,-3.6358,-3.6358,-3.6358,-3.6358,-3.6358,-3.6358,-3.6452,-3.7494,-3.8738,-3.9899,-4.0986,-4.2193,-4.325,-4.325,-4.3623,-4.4287,-4.4287,-4.4676,-4.5229,-4.5229,-4.4421,-4.3329,0.0,0.0,0.0,0.0,0.0,0.0,0.0,0.0,0.0,0.0,0.0,0.0,0.0,0.0,0.0,0.0,-1.7587,-1.7106,-1.6879,-1.6361,-1.5945,-1.5531,-1.5732,-1.5832,-1.5832,-1.5832,-1.5832,-1.5832,-1.5832,-1.5832,-1.5832,-1.5832,-1.5832,-1.5845,-1.6239,-1.6526,-1.6734,-1.7128,-1.7408,-1.7582,-1.7582,-1.7468,-1.7392,-1.8203,-1.8607,-1.8889,0.0,-2.0813,-2.0797,-2.1173,-2.1281,-2.1052,-2.0558,-2.0802,-2.1555,-2.2971,-2.3727,-2.4297,-2.4727,-2.4844,-2.4961,-2.54,-2.5625,-2.5742,-2.5742,-2.6668,-2.7589,-2.7589,-2.8855,-3.0045,-3.0045,-3.1187,-3.2374,-3.3089,-3.4033,-3.5039,-3.5956,-3.6094,-3.6157,-3.6345,-3.6358,0.0,0.0,0.0,0.0,-3.6358,-3.6358,-3.6358,-3.6358,-3.6358,-3.6358,-3.6358,-3.6358,-3.6358,-3.6358,-3.6358,-3.6358,-3.637,-3.6734,-3.7349,-3.8251,-3.8991,-4.0427,-4.2351,-4.2783,-4.3577,-4.4631,-4.4631,-4.4766,-4.496,-4.496,-4.5095,-4.5289,-4.5289,-4.5005,-4.4631,0.0,0.0,0.0,0.0,0.0,0.0,0.0,0.0,0.0,0.0,0.0,0.0,0.0,0.0,0.0,0.0,0.0,-1.7199,-1.6884,-1.6751,-1.6488,-1.621,-1.6519,-1.6692,-1.6692,-1.6692,-1.6508,-1.6054,-1.6158,-1.6033,-1.5678,-1.5785,-1.5832,-1.5845,-1.6139,-1.6433,-1.6727,-1.7021,-1.7503,-1.7888,-1.7991,-1.8091,-1.8217,-1.9116,-1.954,0.0,-2.1273,-2.2026,-2.227,-2.227,-2.227,-2.2153,-2.1786,-2.203,-2.2702,-2.3693,-2.4102,-2.4326,-2.4912,-2.5068,-2.5176,-2.5625,-2.5742,-2.5742,-2.5742,-2.6668,-2.7453,-2.6814,-2.8097,-2.9259,-2.8635,-3.0158,-3.1703,-3.209,-3.3344,-3.4644,-3.5544,-3.5667,-3.5858,-3.6358,-3.6358,-3.6358,0.0,0.0,0.0,-3.6358,-3.6358,-3.6358,-3.6358,-3.6358,-3.6358,-3.6358,-3.6558,-3.6659,-3.6659,-3.6847,-3.6948,-3.6948,-3.7756,-3.8554,-3.9468,-4.0665,-4.2133,-4.3618,-4.4049,-4.459,-4.5289,-4.5289,-4.5439,-4.5663,-4.5663,-4.5798,-4.6007,-4.6007,-4.6007,-4.5948,0.0,0.0,0.0,0.0,0.0,0.0,0.0,0.0,0.0,0.0,0.0,0.0,0.0,0.0,0.0,0.0,0.0,0.0,-1.7424,-1.7291,-1.7294,-1.7595,-1.7945,-1.814,-1.8156,-1.8156,-1.7723,-1.6675,-1.6899,-1.6519,-1.5562,-1.5839,-1.5873,-1.5981,-1.6272,-1.6562,-1.6853,-1.715,-1.7722,-1.8368,-1.8892,-1.9313,-1.9784,-2.0317,-2.0994,-2.1805,-2.1805,-2.2404,-2.3164,-2.3144,-2.3154,-2.3252,-2.3682,-2.3828,-2.3906,-2.4326,-2.417,-2.4043,-2.4873,-2.5098,-2.5205,-2.5635,-2.5742,-2.5742,-2.5742,-2.6648,-2.7065,-2.5461,-2.7325,-2.869,0.0,0.0,-3.1726,-3.0999,-3.246,-3.3851,-3.4412,-3.4483,-3.4981,0.0,0.0,0.0,0.0,0.0,0.0,-3.6358,0.0,-3.6358,-3.6358,-3.6383,-3.6408,-3.6408,-3.6935,-3.7224,-3.7224,-3.7751,-3.8002,-3.8015,-3.9316,-3.997,-4.016,-4.2589,-4.3719,-4.3892,-4.4946,-4.5394,-4.5394,-4.5394,-4.5783,-4.6367,-4.6367,-4.6756,-4.7309,-4.7309,-4.7309,-4.713,0.0,0.0,0.0,0.0,0.0,0.0,0.0,0.0,0.0,0.0,0.0,0.0,0.0,0.0,0.0,0.0,0.0,0.0,-1.7161,-1.7278,-1.7371,-1.7204,-1.7579,-1.7896,-1.8156,-1.8156,-1.807,-1.781,-1.7898,-1.7771,-1.7515,-1.7601,-1.7551,-1.7551,-1.7644,-1.7869,-1.811,-1.8551,-1.8981,-1.9352,-1.9894,-1.9958,-1.9939,-2.0993,-2.144,-2.1554,-2.2476,-2.3171,-2.3574,-2.3252,-2.3359,-2.3701,-2.4121,-2.4258,-2.4336,-2.4775,-2.4824,-2.4863,-2.542,-2.5566,-2.5596,-2.5713,-2.5742,-2.5742,-2.5742,-2.5757,-2.5664,-2.5614,-2.5849,-2.6128,-2.5988,0.0,0.0,-3.0988,-3.3232,0.0,-3.5796,-3.587,0.0,-3.6358,0.0,-3.6358,-3.6358,-3.6358,0.0,0.0,-3.6358,-3.6358,-3.6358,-3.6747,-3.6973,-3.6973,-3.7513,-3.7801,-3.7801,-3.7939,-3.8002,-3.8015,-3.9745,-4.1071,-4.2093,-4.4052,-4.5477,-4.634,-4.67,-4.68,-4.68,-4.68,-4.689,-4.7055,-4.7055,-4.716,-4.7309,-4.7309,-4.7309,-4.7249,0.0,0.0,0.0,0.0,0.0,0.0,0.0,0.0,0.0,0.0,0.0,0.0,0.0,0.0,0.0,0.0,0.0,0.0,0.0,-1.7812,-1.8017,-1.8098,-1.8408,-1.8797,-1.9268,-1.9277,-1.9029,-1.853,-1.8692,-1.8515,-1.8022,-1.8169,-1.8156,-1.8156,-1.8156,-1.836,-1.8621,-1.9068,-1.9604,0.0,0.0,-2.1058,-2.1131,-2.2051,-2.2246,-2.2217,-2.2862,-2.3418,-2.3779,-2.3721,-2.3994,-2.4394,-2.4629,-2.4697,-2.4785,-2.5234,-2.5225,-2.5166,-2.5615,-2.5742,-2.5742,-2.5742,-2.5742,-2.5684,-2.5488,-2.54,-2.5322,-2.5185,-2.5264,-2.5439,-2.5693,-2.8137,-3.0276,0.0,0.0,0.0,-3.5402,-3.5571,-3.5763,0.0,-3.6358,0.0,-3.6358,-3.6358,-3.6358,0.0,-3.6358,-3.6471,-3.6709,-3.7023,-3.7299,-3.7538,-3.809,-3.8504,-3.8743,-3.8755,-3.8755,-3.8743,-4.0958,-4.2345,-4.31,-4.5245,-4.6638,-4.7309,0.0,-4.7309,-4.7309,-4.7309,-4.7309,-4.7309,-4.7309,-4.7309,-4.7309,-4.7309,-4.7309,-4.7309,0.0,0.0,0.0,0.0,0.0,0.0,0.0,0.0,0.0,0.0,0.0,0.0,0.0,0.0,0.0,0.0,0.0,0.0,0.0,0.0,-1.875,-1.918,-1.9609,-2.0039,-2.0469,-2.0537,-2.0157,-1.9195,-1.9461,-1.9044,-1.8154,-1.838,-1.8531,-1.8531,-1.8531,-1.8621,-1.8937,-1.9393,-2.0015,-2.0793,-2.1563,-2.2213,-2.2637,0.0,-2.3135,-2.3144,-2.3203,-2.3506,-2.3935,-2.4365,-2.4756,-2.5078,-2.5137,-2.5156,-2.5234,-2.5625,-2.5459,-2.5244,-2.5635,-2.5742,-2.5742,-2.5742,-2.5742,-2.5635,-2.5244,-2.541,-2.5449,-2.4736,-2.5156,-2.5684,-2.5801,-2.8084,-2.9995,-2.9981,0.0,-3.3767,-3.4606,-3.4678,-3.5078,-3.6263,-3.6358,-3.6358,-3.6358,-3.6358,-3.6358,-3.6358,-3.6433,-3.6684,-3.7161,-3.7324,-3.7663,-3.8216,-3.8718,-3.9207,-3.9685,-3.9697,-3.9788,-3.9981,-4.2363,-4.3598,-4.3787,-4.6255,-4.7309,-4.7309,0.0,0.0,-4.7309,-4.7309,-4.7309,-4.7309,-4.7309,-4.7309,-4.7309,-4.7309,-4.7309,-4.7309,0.0,0.0,0.0,0.0,0.0,0.0,0.0,0.0,0.0,0.0,-1.8008,-1.8008,0.0,0.0,0.0,0.0,0.0,0.0,0.0,0.0,0.0,-1.873,-1.917,-1.96,-2.0019,-2.0381,-2.0489,-2.0323,-2.0391,-2.0272,-2.0115,-2.0182,-2.021,-2.021,-2.021,-2.0169,-2.0263,-2.0699,-2.1132,-2.1688,-2.2178,-2.2592,-2.3037,-2.3105,0.0,0.0,-2.3545,-2.3945,-2.4375,-2.4805,-2.5,-2.5137,-2.5508,-2.5625,-2.5635,-2.5713,-2.5684,-2.5635,-2.5713,-2.5742,-2.5742,-2.5742,-2.5742,-2.5713,-2.5635,-2.54,-2.5244,-2.5469,-2.5332,-2.541,-2.6143,-2.7657,-2.9332,-3.1064,-3.2603,-3.4257,-3.5784,-3.6061,-3.6168,0.0,-3.6358,-3.6358,-3.6358,-3.6358,0.0,0.0,0.0,-3.7086,-3.7174,-3.8065,-3.8831,-3.9383,-3.9496,-3.9597,-3.9697,-3.9697,-4.0275,-4.1319,-4.2834,-4.4069,-4.5115,-4.6638,-4.7309,-4.7309,0.0,0.0,-4.7309,-4.7309,-4.7309,-4.7309,-4.7309,-4.7309,-4.7309,-4.7309,-4.7309,-4.7309,0.0,0.0,0.0,0.0,0.0,0.0,0.0,-1.8008,-1.8008,-1.8008,-1.8008,-1.8008,-1.8008,-1.8008,-1.8008,0.0,0.0,0.0,0.0,0.0,0.0,0.0,-1.9053,-1.9482,-1.9902,-2.0342,-2.0566,-2.0566,0.0,-2.0566,-2.0566,-2.0566,-2.0566,-2.0566,-2.0566,-2.0566,-2.0596,-2.1045,-2.1484,-2.1924,-2.2344,-2.2764,-2.3135,0.0,0.0,0.0,-2.3379,-2.373,-2.4121,-2.4336,-2.4551,-2.4853,-2.5527,-2.5742,-2.5693,-2.5459,-2.5557,-2.5684,-2.5449,-2.5557,-2.5742,-2.5742,-2.5742,-2.5674,-2.5439,-2.54,-2.541,-2.5391,-2.54,-2.5615,-2.6269,-2.7523,-2.9064,-3.0927,-3.2622,-3.4268,-3.5706,-3.6182,-3.6358,-3.6358,-3.6358,-3.6358,-3.6358,-3.6358,-3.6483,0.0,0.0,-3.7613,-3.7613,-3.868,-3.9421,-3.9685,-3.9697,-3.9697,-3.9697,-3.9697,-3.9981,-4.0655,-4.2544,-4.3787,-4.4456,-4.6447,-4.7309,-4.7309,-4.7309,0.0,-4.7309,-4.7309,-4.7309,-4.7309,-4.7309,-4.7309,-4.7309,-4.7309,-4.7309,-4.7309,0.0,0.0,0.0,0.0,0.0,0.0,0.0,-1.8008,-1.8008,-1.8008,-1.8008,-1.8008,-1.8008,-1.8008,-1.8008,0.0,0.0,0.0,0.0,0.0,0.0,0.0,0.0,0.0,0.0,0.0,0.0,0.0,-2.0566,0.0,0.0,0.0,0.0,0.0,-2.0566,-2.0566,-2.0586,-2.0937,-2.1396,0.0,0.0,-2.2685,0.0,0.0,0.0,0.0,0.0,-2.3418,-2.3789,-2.3789,-2.4072,-2.4541,-2.5234,-2.5459,-2.54,-2.5146,-2.5322,-2.5537,-2.5283,-2.5469,-2.5742,-2.5742,-2.5742,-2.5644,-2.5293,-2.5488,-2.5635,-2.5283,-2.5488,-2.5869,-2.6309,-2.7158,-2.8496,-3.0593,-3.1807,-3.3232,-3.5214,-3.5719,-3.5924,-3.6345,-3.6358,-3.6358,-3.6358,-3.6358,0.0,0.0,0.0,0.0,-3.8354,-3.9207,-3.9697,-3.9697,-3.9697,-3.9697,-3.9697,-3.9697,-3.9981,-4.0554,-4.2558,-4.3787,-4.4349,-4.6358,-4.7309,-4.7309,-4.7309,0.0,0.0,-4.7309,-4.7309,-4.7309,-4.7309,-4.7309,-4.7309,-4.7309,-4.7309,-4.7309,0.0,0.0,0.0,0.0,0.0,0.0,0.0,-1.8008,-1.8008,-1.8008,-1.8008,-1.8008,-1.8008,-1.8008,-1.8008,0.0,0.0,0.0,0.0,0.0,0.0,0.0,0.0,0.0,0.0,0.0,0.0,0.0,0.0,0.0,0.0,0.0,0.0,0.0,0.0,0.0,-2.0566,-2.0605,0.0,0.0,0.0,0.0,0.0,0.0,0.0,0.0,0.0,-2.3418,-2.3789,-2.3789,-2.4072,-2.4424,-2.4512,-2.4541,-2.4609,-2.4971,-2.5098,-2.5205,-2.5576,-2.5703,-2.5742,-2.5742,-2.5742,-2.5723,-2.5684,-2.5713,-2.5723,-2.5684,-2.5713,-2.5869,-2.6309,-2.6153,-2.7002,-3.0345,-2.9794,-3.0403,-3.4916,-3.4609,-3.452,-3.62,-3.6358,-3.6358,-3.6358,-3.6358,0.0,0.0,0.0,0.0,-3.9484,-3.9634,-3.9697,-3.9697,-3.9697,-3.9697,-3.9697,-3.9697,-4.0844,-4.3122,-4.3409,-4.4734,-4.6931,-4.7207,-4.7309,-4.7309,0.0,0.0,0.0,-4.7309,-4.7309,-4.7309,-4.7309,-4.7309,-4.7309,-4.7309,-4.7309,-4.7309,0.0,0.0,0.0,0.0,0.0,0.0,-1.8008,-1.8462,-1.8787,-1.8787,-1.9233,-1.9562,-1.9562,-1.911,-1.8586,-1.8076,0.0,0.0,0.0,0.0,0.0,0.0,0.0,0.0,0.0,0.0,0.0,-2.0566,0.0,0.0,0.0,0.0,0.0,0.0,0.0,0.0,0.0,-2.0566,0.0,0.0,0.0,0.0,0.0,0.0,0.0,0.0,0.0,0.0,-2.3398,-2.3398,-2.3506,-2.3652,-2.3652,-2.3652,-2.373,-2.417,-2.4658,-2.5049,-2.4961,-2.5332,-2.5742,-2.5742,-2.5742,-2.5664,-2.54,-2.5547,-2.5664,-2.5391,-2.5547,-2.5791,-2.5967,-2.5859,-2.6683,-2.9559,-2.9703,-3.0759,-3.4458,-3.4854,-3.5157,-3.6295,-3.6358,0.0,0.0,0.0,0.0,0.0,0.0,0.0,-3.9647,-3.9697,-3.9697,-3.9697,-3.9697,-3.9697,-3.9697,-4.0453,-4.1319,-4.2363,-4.3882,-4.5207,-4.6166,-4.6931,-4.7309,-4.7309,-4.7309,0.0,0.0,-4.7309,-4.7309,-4.7309,-4.7309,-4.7309,-4.7309,-4.7309,-4.7309,-4.7309,0.0,0.0,0.0,0.0,0.0,-1.8008,-1.8008,-1.8721,-1.9299,-1.9299,-2.0074,-2.059,-2.059,-2.0074,-1.9299,-1.8462,-1.8144,0.0,0.0,0.0,0.0,0.0,0.0,0.0,0.0,0.0,-2.0566,-2.0566,-2.0566,0.0,0.0,0.0,0.0,0.0,0.0,0.0,0.0,0.0,0.0,0.0,0.0,0.0,0.0,0.0,0.0,0.0,0.0,0.0,0.0,0.0,0.0,-2.3135,-2.3135,-2.3135,-2.3223,-2.3662,-2.4219,-2.4678,-2.4629,-2.5068,-2.5566,-2.5703,-2.5635,-2.5459,-2.5137,-2.5312,-2.5449,-2.5137,-2.543,-2.5742,-2.5742,-2.6014,-2.6935,-2.9039,-2.9698,-3.1032,-3.4028,-3.4666,-3.5059,-3.583,0.0,0.0,0.0,0.0,0.0,0.0,0.0,0.0,0.0,-3.9697,-3.9697,-3.9697,-3.9697,-3.989,-4.0262,-4.1119,-4.1985,-4.2738,-4.4549,-4.5584,-4.5973,-4.6916,-4.7309,-4.7309,0.0,0.0,0.0,-4.7309,-4.7309,-4.7309,-4.7309,-4.7309,-4.7309,-4.7309,-4.7452,-4.7764,0.0,0.0,0.0,0.0,0.0,0.0,-1.8008,-1.8721,-1.9299,-1.9299,-2.0074,-2.059,-2.059,-2.059,-2.0268,-1.9365,-1.8529,0.0,0.0,0.0,0.0,0.0,0.0,0.0,0.0,0.0,-2.0566,-2.0566,-2.0566,-2.0566,-2.0566,-2.0566,0.0,0.0,0.0,0.0,0.0,0.0,0.0,0.0,0.0,0.0,0.0,0.0,0.0,0.0,0.0,0.0,0.0,0.0,0.0,0.0,0.0,-2.3135,-2.3223,-2.3662,-2.3799,-2.3984,-2.4834,-2.5068,-2.5176,-2.5625,-2.54,-2.5078,-2.5068,-2.5068,-2.5078,-2.5068,-2.543,-2.5742,-2.5742,-2.6764,-2.7955,-2.9223,-2.9407,-3.041,-3.3456,-3.3345,-3.3397,0.0,0.0,-3.5554,0.0,0.0,0.0,0.0,0.0,0.0,0.0,-3.9697,-3.9697,-3.9697,-3.9697,-4.0262,-4.1604,-4.1604,-4.2834,-4.5403,-4.5403,-4.6062,-4.7309,-4.7309,-4.7309,0.0,0.0,0.0,0.0,-4.7309,-4.7309,-4.7309,-4.7309,-4.7309,-4.7309,-4.7309,-4.7919,-4.8743,0.0,0.0,0.0,0.0,0.0,0.0,0.0,-1.911,-1.9748,-2.091,-2.1302,-2.1678,-2.2249,-2.1803,-2.1365,-2.1101,-1.9759,0.0,0.0,0.0,0.0,0.0,0.0,0.0,0.0,0.0,-2.0566,-2.0566,-2.0566,-2.0566,-2.0566,-2.0566,-2.0566,-2.0566,0.0,0.0,0.0,0.0,0.0,0.0,0.0,0.0,0.0,0.0,0.0,0.0,0.0,0.0,0.0,0.0,0.0,0.0,0.0,0.0,0.0,-2.4222,-2.4145,-2.3848,-2.4121,-2.4404,-2.4658,-2.4795,-2.4727,-2.4551,-2.4258,-2.4414,-2.4888,-2.5777,-2.5608,-2.5648,-2.6788,-2.7315,-2.8049,-2.9223,-3.0135,-3.1413,-3.3633,-3.399,0.0,-3.5149,-3.5768,-3.6107,0.0,0.0,0.0,0.0,0.0,0.0,0.0,-3.9484,-3.9697,-3.9697,-3.9697,-3.989,-4.0262,-4.2084,-4.3313,-4.4163,-4.5869,-4.6916,-4.7309,-4.7309,0.0,0.0,0.0,0.0,0.0,-4.7309,-4.7309,-4.7309,-4.7309,-4.7309,-4.7381,-4.8072,-4.8527,-4.8907,0.0,0.0,0.0,0.0,0.0,0.0,0.0,-1.9562,-2.0268,-2.169,-2.2125,-2.2567,-2.3078,-2.2641,-2.2333,-2.2226,-2.0859,0.0,0.0,0.0,0.0,0.0,0.0,0.0,-2.0557,-2.0566,-2.0566,-2.0566,-2.0566,-2.0566,-2.0566,-2.0566,-2.0566,-2.0566,-2.0566,0.0,0.0,0.0,0.0,0.0,0.0,0.0,-2.3135,0.0,0.0,0.0,0.0,0.0,0.0,0.0,0.0,0.0,0.0,0.0,0.0,0.0,-2.4836,-2.4341,-2.4845,-2.4923,-2.4836,-2.5007,-2.4562,-2.4111,-2.3848,-2.4336,-2.5098,-2.6051,-2.6368,-2.6837,-2.8046,-2.868,-2.9223,-2.9954,-3.1134,-3.2262,-3.3446,0.0,0.0,-3.5165,0.0,0.0,0.0,0.0,0.0,0.0,0.0,0.0,0.0,-3.9396,-3.9697,-3.9697,-3.9697,-4.0173,-4.1119,-4.2738,-4.3975,-4.4918,-4.6535,-4.7309,-4.7309,-4.7309,0.0,0.0,0.0,0.0,0.0,-4.7309,-4.7309,-4.7309,-4.7309,-4.7538,-4.7904,-4.8594,-4.9296,-5.0071,0.0,0.0,0.0,0.0,0.0,0.0,0.0,-2.0009,-2.0846,-2.1678,-2.2506,-2.3005,-2.3005,-2.3115,-2.3083,-2.2807,0.0,0.0,0.0,0.0,0.0,0.0,0.0,0.0,-2.0566,-2.0566,-2.0566,-2.0566,-2.0566,-2.0566,-2.0566,-2.0566,-2.0566,-2.0566,-2.0596,-2.0879,0.0,0.0,0.0,0.0,0.0,0.0,0.0,0.0,0.0,0.0,0.0,0.0,0.0,0.0,0.0,0.0,0.0,0.0,0.0,0.0,0.0,0.0,0.0,-2.6378,-2.5553,-2.5994,-2.5084,-2.3999,-2.3999,-2.4768,0.0,-2.6423,-2.7588,-2.878,-2.9397,-3.0406,-3.1223,-3.1223,-3.2239,-3.3081,0.0,-3.3583,0.0,0.0,0.0,0.0,0.0,0.0,0.0,0.0,0.0,0.0,0.0,-3.9333,-3.9647,-3.9697,-3.9697,-4.0844,-4.3218,-4.3409,-4.4734,-4.7019,-4.7207,-4.7309,-4.7309,-4.7309,0.0,0.0,0.0,0.0,0.0,-4.7309,-4.7309,-4.7309,-4.7309,-4.7919,-4.8825,-4.8907,-5.0211,-5.1921,0.0,0.0,0.0,0.0,0.0,0.0,0.0,0.0,0.0,0.0,-2.1678,-2.2199,-2.2199,-2.3146,-2.3779,0.0,0.0,0.0,0.0,0.0,0.0,0.0,0.0,0.0,-2.0566,-2.0566,-2.0566,-2.0566,-2.0566,-2.0566,-2.0566,-2.0566,-2.0566,-2.0576,-2.0918,-2.1504,0.0,0.0,0.0,0.0,0.0,0.0,0.0,0.0,0.0,0.0,-2.4372,-2.4628,0.0,0.0,0.0,0.0,0.0,0.0,0.0,0.0,-2.751,-2.7626,-2.8846,0.0,-2.6256,-2.6378,-2.6154,-2.5899,0.0,-2.6067,-2.673,-2.8618,-2.8453,0.0,0.0,-3.1033,-3.1223,-3.1223,-3.2239,-3.3081,-3.3081,0.0,0.0,0.0,0.0,0.0,0.0,0.0,0.0,0.0,0.0,0.0,0.0,-3.8755,-3.9258,-3.9685,-3.9697,-3.9981,-4.0554,-4.2558,-4.3787,-4.4442,-4.6358,-4.7309,-4.7309,-4.7309,0.0,0.0,0.0,0.0,-4.7309,-4.7309,-4.7309,-4.7309,-4.7309,-4.7919,-4.8907,-4.9694,-5.0855,-5.1993,0.0,0.0,0.0,0.0,0.0,0.0,0.0,0.0,0.0,0.0,0.0,-2.1584,-2.221,-2.2548,0.0,0.0,0.0,0.0,0.0,0.0,0.0,0.0,0.0,-2.0566,-2.0566,-2.0566,-2.0566,-2.0566,-2.0566,-2.0566,-2.0566,-2.0566,-2.0674,-2.0898,-2.208,-2.2549,0.0,0.0,0.0,0.0,-2.3135,0.0,0.0,0.0,0.0,0.0,-2.5389,-2.5546,0.0,-2.6871,-2.7197,-2.7197,0.0,0.0,0.0,0.0,-2.8505,-2.8347,-2.9456,-2.8542,-2.7197,-2.7197,-2.6883,-2.6483,-2.6483,-2.6883,-2.7743,-2.9463,-2.9665,0.0,0.0,-3.2052,0.0,0.0,-3.2822,0.0,0.0,0.0,0.0,0.0,0.0,0.0,0.0,0.0,0.0,0.0,0.0,0.0,0.0,-3.8417,-3.9007,-3.9308,-3.9559,-3.9981,-4.0554,-4.2558,-4.3787,-4.4349,-4.6358,-4.7309,-4.7309,-4.7309,-4.7309,0.0,0.0,0.0,-4.7309,-4.7309,-4.7309,-4.7309,-4.7309,-4.7919,-4.8907,-5.0009,-5.1021,-5.2065,0.0,0.0,0.0,0.0,0.0,0.0,0.0,0.0,0.0,0.0,0.0,0.0,0.0,0.0,0.0,0.0,0.0,0.0,0.0,0.0,0.0,0.0,-2.0566,-2.0566,-2.0566,-2.0566,-2.0566,-2.0566,-2.0566,-2.0566,-2.0566,-2.0635,-2.1017,-2.1769,-2.3453,-2.3753,0.0,0.0,0.0,0.0,-2.3637,0.0,0.0,0.0,0.0,0.0,0.0,0.0,0.0,-2.8016,-2.8347,-2.8347,-2.8347,0.0,0.0,0.0,0.0,0.0,-2.9534,-2.9106,-2.8347,-2.8347,-2.7695,-2.6976,-2.6976,-2.7695,-2.8647,-2.9797,-3.0787,0.0,0.0,-3.3206,0.0,0.0,0.0,0.0,0.0,0.0,0.0,0.0,0.0,0.0,0.0,0.0,0.0,0.0,0.0,0.0,0.0,-3.8165,-3.8781,-3.8868,-3.9408,-4.0262,-4.1604,-4.2834,-4.4163,-4.5403,-4.6726,-4.7309,-4.7309,-4.7309,-4.7309,0.0,0.0,0.0,-4.7309,-4.7309,-4.7309,-4.7309,-4.7309,-4.7919,-4.8907,-4.9852,-5.093,-5.2065,0.0,0.0,0.0,0.0,0.0,0.0,0.0,0.0,0.0,0.0,0.0,0.0,0.0,0.0,0.0,0.0,0.0,0.0,0.0,0.0,0.0,-2.0566,-2.0566,-2.0566,-2.0566,-2.0566,-2.0566,-2.0566,-2.0566,-2.0566,-2.0576,-2.0957,-2.201,-2.3752,-2.4052,-2.4834,-2.5876,-2.6108,-2.6141,-2.5975,-2.5975,0.0,0.0,0.0,0.0,0.0,0.0,0.0,0.0,-2.9197,-2.9534,-2.9534,-2.9534,0.0,0.0,0.0,0.0,0.0,-2.9792,-2.9702,-2.9534,-2.9534,-2.9456,-2.9287,-2.9287,-2.9456,-2.9845,-3.0916,-3.1304,-3.1876,0.0,-3.3771,-3.3922,0.0,0.0,0.0,0.0,0.0,0.0,0.0,0.0,0.0,0.0,0.0,0.0,0.0,0.0,0.0,0.0,0.0,-3.8366,-3.8856,-3.9408,-4.0262,-4.1604,-4.2834,-4.4163,-4.5403,-4.6726,-4.7309,-4.7309,-4.7309,-4.7309,0.0,0.0,-4.7309,-4.7309,-4.7309,-4.7309,-4.7309,-4.7309,-4.7919,-4.8825,-4.8988,-5.0227,-5.2065,0.0,0.0,0.0,0.0,0.0,0.0,0.0,0.0,0.0,0.0,0.0,0.0,0.0,0.0,0.0,0.0,0.0,0.0,0.0,0.0,-2.0566,-2.0566,-2.0566,-2.0566,-2.0566,-2.0566,-2.0566,-2.0566,-2.0566,-2.0684,-2.0937,-2.2231,-2.332,-2.4291,-2.5676,-2.6411,-2.6565,-2.7128,-2.7046,-2.6483,0.0,0.0,0.0,0.0,0.0,0.0,0.0,0.0,0.0,0.0,-2.9792,-2.9792,-2.9792,0.0,0.0,0.0,0.0,0.0,-2.9792,-2.9792,-2.9867,-3.0168,-3.0018,-2.9792,-2.9792,-3.0018,-3.0457,-3.1235,-3.1625,0.0,0.0,0.0,0.0,0.0,0.0,0.0,0.0,0.0,0.0,0.0,0.0,0.0,0.0,0.0,0.0,0.0,0.0,0.0,0.0,0.0,-3.7826,-3.8391,-3.961,-4.1005,-4.2641,-4.3882,-4.4826,-4.5403,-4.6726,-4.7309,-4.7309,-4.7309,-4.7309,-4.7309,0.0,-4.7309,-4.7309,-4.7309,-4.7309,-4.7309,-4.7309,-4.7609,-4.8157,-4.9231,-5.1005,-5.287,0.0,0.0,0.0,0.0,0.0,0.0,0.0,0.0,0.0,0.0,0.0,0.0,0.0,0.0,0.0,0.0,0.0,0.0,0.0,0.0,-2.0566,-2.0566,-2.0566,-2.0566,-2.0566,-2.0566,-2.0566,-2.0566,-2.0674,-2.0996,-2.1543,-2.331,-2.4416,-2.4863,-2.7094,-2.7775,-2.7302,-2.8187,-2.8028,-2.7302,0.0,0.0,0.0,0.0,0.0,0.0,0.0,0.0,0.0,0.0,0.0,0.0,0.0,0.0,0.0,-2.9792,-2.9792,-2.9792,-2.9792,-2.9792,-2.9892,-3.0319,-3.0206,-3.0018,-3.0143,-3.0595,-3.1135,-3.1675,-3.2215,0.0,0.0,-3.4387,0.0,0.0,0.0,0.0,0.0,0.0,0.0,0.0,0.0,0.0,0.0,0.0,0.0,0.0,0.0,0.0,0.0,0.0,-3.7459,-3.8168,-3.9881,-4.1705,-4.3659,-4.4847,-4.5584,-4.5869,-4.6829,-4.7309,-4.7309,-4.7309,-4.7309,-4.7309,-4.7309,-4.7309,-4.7309,-4.7309,-4.7309,-4.7309,-4.7309,-4.7309,-4.7538,-4.9631,-5.141,-5.28,0.0,0.0,0.0,0.0,0.0,0.0,0.0,0.0,0.0,0.0,0.0,0.0,0.0,0.0,0.0,0.0,0.0,0.0,0.0,0.0,-2.0566,-2.0566,-2.0566,-2.0566,-2.0566,-2.0566,-2.0566,-2.0566,-2.0986,-2.1611,-2.2422,-2.3608,-2.4916,-2.6427,-2.7591,-2.8597,-2.9546,-2.9624,-2.9624,-2.9546,-2.9546,0.0,0.0,0.0,0.0,0.0,0.0,0.0,0.0,0.0,0.0,0.0,0.0,0.0,-2.9792,-2.9792,-2.9792,-2.9792,-2.9792,-2.9792,-2.9804,-2.9842,-3.0206,-3.0683,-3.1173,-3.17,-3.2252,-3.283,0.0,0.0,0.0,0.0,0.0,0.0,0.0,0.0,0.0,0.0,0.0,0.0,0.0,0.0,0.0,0.0,0.0,0.0,0.0,0.0,0.0,0.0,0.0,-3.8765,-4.0139,-4.1964,-4.4346,-4.501,-4.5973,-4.7121,-4.7294,-4.7309,-4.7309,-4.7309,-4.7309,-4.7309,-4.7309,-4.7309,-4.7309,-4.7309,-4.7309,-4.7309,-4.7309,-4.7309,-4.7538,-4.9631,-5.0474,-5.0871,0.0,0.0,0.0,0.0,0.0,0.0,0.0,0.0,0.0,0.0,0.0,0.0,0.0,0.0,0.0,0.0,0.0,0.0,0.0,-2.2264,-2.2113,-2.1517,-2.1441,-2.1231,-2.0644,-2.0566,-2.0703,-2.0986,-2.2382,-2.3227,-2.3565,-2.5628,-2.6921,-2.7522,-2.8688,-2.9365,-2.9792,-2.9792,-2.9792,-2.9792,-2.9792,-2.9792,0.0,0.0,0.0,0.0,0.0,0.0,0.0,0.0,-2.9792,-2.9792,-2.9792,-2.9792,-2.9792,-2.9792,-2.9792,-2.9792,-2.9792,-3.0043,-3.0382,-3.0708,-3.0947,-3.106,-3.0934,-3.1863,-3.2805,-3.3031,-3.3784,0.0,0.0,0.0,0.0,0.0,0.0,0.0,0.0,0.0,0.0,0.0,0.0,0.0,0.0,0.0,0.0,0.0,0.0,0.0,0.0,0.0,0.0,-3.7795,-3.905,-4.091,-4.3343,-4.4414,-4.5683,-4.7309,-4.7309,-4.7309,-4.7309,-4.7309,-4.7309,-4.7309,-4.7309,-4.7309,-4.7309,-4.7309,-4.7309,-4.7309,-4.7309,-4.7679,-4.8377,-4.9852,-5.0779,-5.1541,0.0,0.0,0.0,0.0,0.0,0.0,0.0,0.0,0.0,0.0,0.0,0.0,0.0,0.0,0.0,0.0,0.0,0.0,-2.2999,-2.3294,-2.322,-2.2478,-2.2478,-2.2188,-2.1527,-2.1671,-2.1751,-2.1769,-2.3745,-2.4755,-2.4999,-2.7105,-2.8096,-2.8176,-2.9275,-2.9792,-2.9792,-2.9792,-2.9792,-2.9792,-2.9792,-2.9792,0.0,0.0,0.0,0.0,0.0,0.0,0.0,0.0,-2.9792,-2.9792,-2.9792,-2.9792,-2.9792,-2.9792,-2.9792,-2.9792,-2.9792,-3.0193,-3.0708,-3.106,-3.1399,-3.1599,-3.1436,-3.2265,-3.3181,-3.352,-3.4474,-3.5303,-3.5504,0.0,0.0,0.0,0.0,0.0,0.0,0.0,0.0,0.0,0.0,0.0,0.0,0.0,0.0,0.0,0.0,0.0,0.0,0.0,0.0,0.0,-3.8527,-4.0078,-4.209,-4.3792,-4.523,-4.643,-4.7016,-4.7309,-4.7309,-4.7309,-4.7309,-4.7309,-4.7309,-4.7309,-4.7309,-4.7309,-4.7309,-4.7309,-4.7309,-4.7679,-4.8444,-4.9551,-5.0304,-5.1064,0.0,0.0,0.0,0.0,0.0,0.0,0.0,0.0,0.0,0.0,0.0,0.0,0.0,0.0,0.0,0.0,0.0,0.0,-2.5004,-2.4047,-2.3514,-2.3514,-2.3514,-2.3526,-2.3526,-2.4018,-2.3896,-2.2917,-2.4867,-2.6071,-2.6565,-2.7602,-2.8096,-2.8176,-2.9287,-2.9792,-2.9792,-2.9792,-2.9792,-2.9792,-2.9792,-2.9792,-2.9792,0.0,0.0,0.0,0.0,0.0,0.0,0.0,-2.9792,-2.9792,-2.9792,-2.9792,-2.9792,-2.9792,-2.9792,-2.9804,-2.9804,-3.0206,-3.0633,-3.0633,0.0,0.0,-3.2955,-3.3081,-3.3395,-3.45,-3.5592,-3.6194,-3.5642,0.0,0.0,0.0,0.0,0.0,0.0,0.0,0.0,0.0,0.0,0.0,0.0,0.0,0.0,0.0,0.0,0.0,0.0,0.0,0.0,0.0,-3.8754,-3.9583,-4.0755,-4.3336,-4.4541,-4.4659,-4.6416,-4.7294,-4.7309,-4.7309,-4.7309,-4.7309,-4.7309,-4.7309,-4.7309,-4.7309,-4.7309,-4.7309,-4.7309,-4.7309,-4.7467,-4.8444,-4.8825,-4.8988,0.0,0.0,0.0,0.0,0.0,0.0,0.0,0.0,0.0,0.0,0.0,0.0,0.0,0.0,0.0,0.0,0.0,0.0,-2.5087,-2.5358,-2.5276,-2.4564,-2.4564,-2.4426,-2.4104,-2.5715,-2.6,-2.4979,-2.6565,-2.745,-2.7683,-2.8779,-2.9287,-2.9287,-2.9624,-2.9792,-2.9792,-2.9792,-2.9792,-2.9792,-2.9792,-2.9792,-2.9792,0.0,0.0,0.0,0.0,0.0,0.0,0.0,0.0,0.0,-2.9792,-2.9792,-2.9792,-2.9792,-3.0068,-3.0369,-3.0369,-3.1035,0.0,-3.1738,0.0,0.0,0.0,-3.3658,-3.3859,-3.4575,-3.5592,-3.6194,-3.5642,0.0,0.0,0.0,0.0,0.0,0.0,0.0,0.0,0.0,0.0,0.0,0.0,0.0,0.0,0.0,0.0,0.0,0.0,0.0,0.0,0.0,-3.7143,-3.8385,-4.0755,-4.156,-4.3195,-4.5765,-4.633,-4.686,-4.7309,-4.7309,-4.7309,-4.7309,-4.7309,-4.7309,-4.7309,-4.7309,-4.7309,-4.7309,-4.7309,-4.7309,-4.7467,-4.8444,-4.8825,-4.8988,0.0,0.0,0.0,0.0,0.0,0.0,0.0,0.0,0.0,0.0,-2.4637,0.0,0.0,0.0,0.0,0.0,0.0,0.0,0.0,-2.6164,-2.6245,-2.5581,-2.5788,-2.5949,-2.6134,-2.7396,-2.7842,-2.7408,-2.8282,-2.8767,-2.8767,-2.9456,-2.9792,-2.9792,-2.9792,-2.9792,-2.9792,-2.9792,-2.9792,-2.9792,-2.9792,-2.9792,-2.9792,0.0,0.0,0.0,0.0,0.0,0.0,0.0,0.0,0.0,-2.9792,-2.9792,-2.9792,-2.9792,-3.0181,-3.062,-3.062,-3.1399,0.0,-3.2215,-3.239,-3.2792,-3.3696,0.0,0.0,0.0,0.0,-3.6257,-3.5931,0.0,0.0,0.0,0.0,0.0,0.0,0.0,0.0,0.0,0.0,0.0,0.0,0.0,0.0,0.0,0.0,0.0,0.0,0.0,0.0,0.0,-3.6358,-3.7224,-3.9066,-4.0185,-4.2054,-4.4531,-4.5732,-4.6666,-4.7309,-4.7309,-4.7309,-4.7309,-4.7309,-4.7309,-4.7309,-4.7309,-4.7309,-4.7309,-4.7309,-4.7309,-4.7381,-4.7988,-4.821,-4.8293,0.0,0.0,0.0,0.0,0.0,0.0,0.0,0.0,0.0,0.0,-2.5955,-2.6533,0.0,0.0,0.0,0.0,0.0,0.0,0.0,-2.6533,-2.6546,-2.6596,-2.7105,-2.7896,-2.89,-2.8976,-2.9264,-2.9792,-2.9792,-2.9792,-2.9792,-2.9792,-2.9792,-2.9792,-2.9792,-2.9792,-2.9792,-2.9792,-2.9792,-2.9792,-2.9792,-2.9792,-2.9792,-2.9792,0.0,0.0,0.0,0.0,0.0,0.0,0.0,0.0,-2.9792,-2.9792,-2.9792,-2.9792,-3.0181,-3.062,-3.067,-3.1436,0.0,-3.2277,-3.2767,0.0,-3.3859,-3.4826,-3.5592,0.0,0.0,0.0,0.0,0.0,0.0,0.0,0.0,0.0,0.0,0.0,0.0,0.0,0.0,0.0,0.0,0.0,0.0,0.0,0.0,0.0,0.0,0.0,0.0,0.0,-3.6358,-3.6452,-3.6534,-3.9248,-4.0976,0.0,-4.4704,-4.6491,-4.7219,-4.7279,-4.7309,-4.7309,-4.7309,-4.7309,-4.7309,-4.7309,-4.7309,-4.7309,-4.7309,-4.7309,-4.7309,-4.7309,-4.7309,-4.7309,0.0,0.0,0.0,0.0,0.0,0.0,0.0,0.0,0.0,0.0,0.0,0.0,0.0,0.0,0.0,0.0,0.0,0.0,0.0,-2.6533,-2.6722,-2.708,-2.8047,-2.8687,-2.8925,-2.9377,-2.9666,-2.9792,-2.9792,-2.9792,-2.9792,-2.9792,-2.9792,-2.9792,-2.9792,-2.9792,-2.9792,-2.9792,-2.9792,-2.9792,-2.9792,-2.9792,-2.9792,-2.9792,-2.9792,0.0,0.0,0.0,0.0,0.0,0.0,0.0,-2.9792,-2.9792,-2.9792,-2.9792,-3.0181,-3.0708,-3.111,-3.17,0.0,0.0,-3.3633,-3.4399,-3.4512,-3.5391,-3.5943,0.0,0.0,0.0,0.0,0.0,0.0,0.0,0.0,0.0,0.0,0.0,0.0,0.0,0.0,0.0,0.0,0.0,0.0,0.0,0.0,0.0,0.0,0.0,0.0,-3.6358,-3.6358,-3.6803,-3.7769,-3.8317,-3.9898,0.0,-4.3589,-4.4978,-4.6546,-4.707,-4.7309,-4.7309,-4.7309,-4.7309,-4.7309,-4.7309,-4.7309,-4.7309,-4.7309,-4.7309,-4.7309,-4.7309,-4.7309,-4.7309,0.0,0.0,0.0,0.0,0.0,0.0,0.0,0.0,0.0,0.0,0.0,0.0,0.0,0.0,0.0,0.0,0.0,0.0,0.0,0.0,-2.7218,-2.8034,-2.8624,-2.9063,-2.934,-2.9641,-2.9792,-2.9792,-2.9792,-2.9792,-2.9792,-2.9792,-2.9792,-2.9792,-2.9792,-2.9792,-2.9792,-2.9792,-2.9792,-2.9792,-2.9792,-2.9792,-2.9792,-2.9792,-2.9792,-2.9792,-2.9792,0.0,0.0,0.0,0.0,0.0,0.0,0.0,-2.9792,-2.9792,-3.0181,-3.0733,-3.1248,0.0,0.0,-3.293,0.0,-3.4726,-3.4726,-3.5579,-3.6194,0.0,0.0,0.0,0.0,0.0,0.0,0.0,0.0,0.0,0.0,0.0,0.0,0.0,0.0,0.0,0.0,0.0,0.0,0.0,0.0,0.0,0.0,-3.6358,-3.6358,-3.6358,-3.6358,-3.6722,-3.723,-3.7848,-3.902,-4.0933,-4.1797,-4.3356,-4.5505,-4.6721,-4.7309,-4.7309,-4.7309,-4.7309,-4.7309,-4.7309,-4.7309,-4.7309,-4.7309,-4.7309,-4.7309,-4.7309,-4.7309,-4.7309,0.0,0.0,0.0,0.0,0.0,0.0,0.0,0.0,0.0,0.0,0.0,0.0,0.0,0.0,0.0,0.0,0.0,0.0,0.0,0.0,0.0,-2.8888,-2.9026,-2.9302,-2.9779,-2.9792,-2.9792,-2.9792,-2.9792,-2.9792,-2.9792,-2.9792,-2.9792,-2.9792,-2.9792,-2.9792,-2.9792,-2.9792,-2.9792,-2.9792,-2.9792,-2.9792,-2.9792,-2.9792,-2.9792,-2.9792,-2.9792,-2.9792,-2.9792,-2.9792,0.0,0.0,0.0,0.0,-2.9792,-2.9792,-3.0118,-3.0583,-3.1122,0.0,-3.2353,-3.293,-3.3909,0.0,-3.4726,-3.5579,-3.6358,0.0,0.0,0.0,0.0,0.0,0.0,0.0,0.0,0.0,0.0,0.0,0.0,0.0,0.0,0.0,0.0,0.0,0.0,0.0,0.0,0.0,-3.6358,-3.6358,-3.6358,-3.6358,-3.6358,-3.6358,-3.6358,-3.7322,-3.8175,-3.8912,-4.0164,-4.2121,-4.4659,-4.6137,-4.7001,-4.7309,-4.7309,-4.7309,-4.7309,-4.7309,-4.7309,-4.7309,-4.7309,-4.7309,-4.7309,-4.7309,-4.7309,-4.7309,0.0,0.0,0.0,0.0,0.0,0.0,0.0,0.0,0.0,0.0,0.0,0.0,0.0,0.0,0.0,0.0,0.0,0.0,-2.6533,0.0,0.0,-2.89,-2.9415,-2.9716,-2.9792,-2.9792,-2.9792,-2.9792,-2.9792,-2.9792,-2.9792,-2.9792,-2.9792,-2.9792,-2.9792,-2.9792,-2.9792,-2.9792,-2.9792,-2.9792,-2.9792,-2.9792,-2.9792,-2.9792,-2.9792,-2.9792,-2.9792,-2.9792,-2.9792,-2.9792,-2.9792,0.0,0.0,0.0,-2.9792,-2.9792,-2.9842,-3.0018,-3.057,0.0,-3.2353,0.0,-3.3909,-3.4726,0.0,0.0,-3.6358,0.0,0.0,0.0,0.0,0.0,0.0,0.0,0.0,0.0,0.0,0.0,0.0,0.0,0.0,0.0,0.0,0.0,0.0,0.0,0.0,0.0,-3.6358,-3.6358,-3.6358,-3.6358,-3.6358,-3.6358,-3.6358,-3.6534,-3.7188,-3.8226,-3.9973,-4.2121,-4.4644,-4.4834,-4.583,-4.7309,-4.7309,-4.7309,-4.7309,-4.7309,-4.7309,-4.7309,-4.7309,-4.7309,-4.7309,-4.7309,-4.7309,-4.7309,0.0,0.0,0.0,0.0,0.0,0.0,0.0,0.0,0.0,0.0,0.0,0.0,0.0,0.0,0.0,-2.6533,-2.6741,-2.718,-2.7808,-2.8298,-2.8812,-2.939,-2.9654,-2.9792,-2.9792,-2.9792,-2.9792,-2.9792,-2.9792,-2.9792,-2.9792,-2.9792,-2.9792,-2.9792,-2.9792,-2.9792,-2.9792,-2.9792,-2.9792,-2.9792,-2.9792,-2.9792,-2.9792,-2.9792,-2.9792,-2.9792,-2.9792,-2.9792,-2.9792,-2.9792,-2.9792,-2.9792,-2.9792,0.0,0.0,0.0,-2.9792,-2.9917,-3.047,-3.1399,-3.2277,0.0,-3.3671,-3.4726,-3.4726,0.0,0.0,0.0,0.0,0.0,0.0,0.0,0.0,0.0,0.0,0.0,0.0,0.0,0.0,0.0,0.0,0.0,0.0,0.0,0.0,0.0,0.0,-3.6358,-3.6358,-3.6358,-3.6358,-3.6358,-3.6358,-3.6358,-3.6358,-3.6358,-3.6628,-3.7163,-3.8964,-4.0414,-4.1584,-4.2929,-4.4902,-4.7309,-4.7309,-4.7309,-4.7309,-4.7309,-4.7309,-4.7309,-4.7309,-4.7309,-4.7309,-4.7309,-4.7309,-4.7309,0.0,0.0,0.0,0.0,0.0,0.0,0.0,0.0,0.0,0.0,0.0,0.0,0.0,0.0,0.0,0.0,-2.7042,-2.7758,-2.885,-2.8925,-2.9189,-2.9767,-2.9792,-2.9792,-2.9792,-2.9792,-2.9792,-2.9792,-2.9792,-2.9792,-2.9792,-2.9792,-2.9792,-2.9792,-2.9792,-2.9792,-2.9792,-2.9792,-2.9792,-2.9792,-2.9792,-2.9792,-2.9792,-2.9792,-2.9792,-2.9792,-2.9792,-2.9792,-2.9792,-2.9792,-2.9792,-2.9792,-2.9792,-2.9792,0.0,0.0,0.0,-2.9917,0.0,0.0,-3.1876,-3.2139,-3.337,-3.455,0.0,0.0,0.0,0.0,0.0,0.0,0.0,0.0,0.0,0.0,0.0,0.0,0.0,0.0,0.0,0.0,0.0,0.0,0.0,0.0,0.0,0.0,0.0,-3.6358,-3.6358,-3.6358,-3.6358,-3.6358,-3.6358,-3.6358,-3.6358,-3.6358,-3.6358,-3.6465,-3.7748,-3.8648,-3.919,-4.1137,-4.3533,-4.6124,-4.6652,-4.7019,-4.7309,-4.7309,-4.7309,-4.7309,-4.7309,-4.7309,-4.7309,-4.7309,-4.7309,-4.7309,0.0,0.0,0.0,0.0,0.0,0.0,0.0,0.0,0.0,0.0,0.0,0.0,-2.6533,-2.6533,-2.6666,-2.7193,-2.7268,-2.7758,-2.885,-2.8925,-2.9189,-2.9767,-2.9792,0.0,-2.9792,-2.9792,-2.9792,-2.9792,-2.9792,-2.9792,-2.9792,-2.9792,-2.9792,-2.9792,-2.9792,-2.9792,-2.9792,-2.9792,-2.9792,-2.9792,-2.9792,-2.9792,-2.9792,-2.9792,-2.9792,-2.9792,-2.9792,-2.9792,-2.9792,-2.9792,-2.9792,-2.9792,-2.9792,-2.9792,-2.9792,0.0,0.0,0.0,0.0,-3.0658,0.0,-3.1964,-3.3081,0.0,0.0,0.0,0.0,0.0,0.0,0.0,0.0,0.0,0.0,0.0,0.0,0.0,0.0,0.0,0.0,0.0,0.0,0.0,0.0,0.0,0.0,0.0,0.0,-3.6358,-3.6358,-3.6358,-3.6358,-3.6358,-3.6358,-3.6358,-3.6358,-3.6358,-3.6358,-3.6358,-3.6477,-3.7471,-3.9071,-3.9787,-4.1126,-4.3046,-4.4767,-4.6166,-4.7309,-4.7309,-4.7309,-4.7309,-4.7309,-4.7309,-4.7309,-4.7309,-4.7309,-4.7309,0.0,0.0,0.0,0.0,0.0,0.0,0.0,0.0,0.0,0.0,0.0,0.0,0.0,-2.6979,-2.7205,-2.7758,-2.8134,-2.8662,-2.9428,-2.9478,-2.9578,-2.9779,-2.9792,-2.9792,-2.9792,-2.9792,-2.9792,-2.9792,-2.9792,-2.9792,-2.9792,-2.9792,-2.9792,-2.9792,-2.9792,-2.9792,-2.9792,-2.9792,-2.9792,-2.9792,-2.9792,-2.9792,-2.9792,-2.9792,-2.9792,0.0,0.0,0.0,-3.0369,-3.0708,-3.0595,-3.0319,-3.0319,-3.008,-2.9792,-2.9792,-2.9792,-2.9829,0.0,0.0,0.0,-3.1097,-3.229,-3.342,-3.3621,0.0,0.0,0.0,0.0,0.0,0.0,0.0,0.0,0.0,0.0,0.0,0.0,0.0,0.0,0.0,0.0,0.0,0.0,0.0,0.0,0.0,0.0,0.0,-3.6358,-3.6358,-3.6358,-3.6358,-3.6358,-3.6358,-3.6358,-3.6358,-3.6358,-3.6358,-3.6358,-3.6729,-3.739,-3.7941,-3.9151,-4.0925,-4.2005,-4.3798,-4.6166,-4.6931,-4.7309,-4.7309,-4.7309,-4.7309,-4.7309,-4.7309,-4.7309,-4.7309,0.0,0.0,0.0,0.0,0.0,0.0,0.0,0.0,0.0,-2.6741,0.0,0.0,0.0,0.0,-2.7783,-2.8335,-2.89,-2.9377,-2.9767,-2.9792,-2.9792,-2.9792,-2.9792,-2.9792,-2.9792,-2.9792,-2.9792,-2.9792,-2.9792,-2.9792,-2.9792,-2.9792,-2.9792,-2.9792,-2.9792,-2.9792,-2.9792,-2.9792,-2.9792,-2.9792,-2.9792,-2.9792,-2.9817,-2.9993,-3.0068,0.0,0.0,0.0,0.0,-3.1273,-3.1047,-3.062,-3.062,-3.0231,-2.9792,-2.9792,-2.9792,-2.9792,-2.9792,-3.0068,-3.0382,0.0,0.0,-3.2616,-3.2993,0.0,0.0,0.0,0.0,0.0,0.0,0.0,0.0,0.0,0.0,0.0,0.0,0.0,0.0,0.0,0.0,0.0,0.0,0.0,0.0,0.0,0.0,0.0,-3.6358,-3.6358,-3.6358,-3.6358,-3.6358,-3.6358,-3.6358,-3.6358,-3.6358,-3.6358,-3.6358,-3.6358,-3.6383,-3.6935,-3.7833,-3.9042,-4.0294,-4.2561,-4.5494,-4.6344,-4.6916,-4.7309,-4.7309,-4.7309,-4.7309,-4.7309,-4.7309,-4.7309,0.0,0.0,0.0,0.0,0.0,0.0,0.0,0.0,-2.7306,-2.7306,0.0,0.0,0.0,0.0,0.0,-2.89,-2.9465,-2.9792,-2.9792,-2.9792,-2.9792,-2.9792,-2.9792,-2.9792,-2.9792,-2.9792,-2.9792,-2.9792,-2.9792,-2.9792,-2.9792,-2.9792,-2.9792,-2.9792,-2.9792,-2.9792,-2.9792,-2.9792,-2.9792,-2.9792,-2.9817,-2.9817,-2.988,0.0,0.0,0.0,-3.1223,-3.1411,0.0,-3.1436,0.0,0.0,0.0,-3.0218,-2.9792,-2.9792,-2.9792,-2.9792,0.0,0.0,0.0,0.0,0.0,0.0,-3.2767,0.0,0.0,0.0,0.0,0.0,0.0,0.0,0.0,0.0,0.0,0.0,0.0,0.0,0.0,0.0,0.0,0.0,0.0,0.0,0.0,0.0,0.0,-3.6358,-3.6358,-3.6358,-3.6358,-3.6358,-3.6358,-3.6358,-3.6358,-3.6358,-3.6358,-3.6358,-3.6358,-3.6358,-3.6383,-3.691,-3.7174,-3.7333,-3.9641,-4.2412,-4.524,-4.5283,-4.6062,-4.7207,-4.7207,-4.7207,-4.7207,-4.7207,-4.7207,-4.7207,0.0,0.0,0.0,0.0,0.0,0.0,-2.7438,-2.777,-2.7871,0.0,0.0,0.0,-2.8662,-2.9076,-2.939,-2.9541,-2.9691,-2.9792,-2.9792,-2.9792,-2.9792,-2.9792,-2.9792,-2.9792,-2.9792,-2.9792,-2.9792,-2.9792,-2.9792,-2.9792,-2.9792,-2.9792,-2.9792,-2.9792,-2.9792,-2.9792,-2.9792,-2.9792,-2.9792,-2.9829,-3.0231,-3.0382,0.0,0.0,0.0,0.0,0.0,-3.1989,-3.2051,0.0,-3.1964,-3.1035,0.0,-2.9917,-2.9792,-2.9792,-2.9792,-2.9792,-2.9792,0.0,0.0,0.0,0.0,0.0,0.0,0.0,0.0,0.0,0.0,0.0,0.0,0.0,0.0,0.0,0.0,0.0,0.0,0.0,0.0,0.0,0.0,0.0,0.0,0.0,0.0,0.0,-3.6358,-3.6358,-3.6358,-3.6358,-3.6358,-3.6358,-3.6358,-3.6358,-3.6358,-3.6358,-3.6358,-3.6358,-3.6358,-3.6358,-3.637,-3.6521,-3.681,-3.7199,-3.7876,-3.9429,-4.1597,-4.3318,-4.4734,-4.5869,-4.4918,-4.5115,-4.5973,-4.5973,-4.5973,-4.6062,0.0,0.0,0.0,0.0,0.0,-2.7029,-2.7974,-2.8298,-2.8448,0.0,0.0,0.0,-2.9252,-2.9591,-2.9792,-2.9792,-2.9792,-2.9792,-2.9792,-2.9792,-2.9792,-2.9792,-2.9792,-2.9792,-2.9792,-2.9792,-2.9792,-2.9792,-2.9792,-2.9792,-2.9792,-2.9792,-2.9792,-2.9792,-2.9792,-2.9792,-2.9792,-2.9792,-2.993,0.0,-3.0231,0.0,0.0,-3.1198,-3.1386,0.0,0.0,0.0,-3.2629,-3.2968,-3.2478,0.0,0.0,0.0,-3.0093,-2.9867,-2.9792,-2.9792,-2.9792,-2.9792,-2.9792,-2.9792,0.0,0.0,-3.0947,-3.1926,0.0,0.0,0.0,0.0,0.0,0.0,0.0,0.0,0.0,0.0,0.0,0.0,0.0,0.0,0.0,0.0,0.0,0.0,0.0,-3.6358,-3.6358,-3.6358,-3.6358,-3.6358,-3.6358,-3.6358,-3.6358,-3.6358,-3.6358,-3.6358,-3.6358,-3.6358,-3.6358,-3.6358,-3.6358,-3.6358,-3.6533,-3.686,-3.7086,-3.782,-3.8908,-4.0566,-4.2412,-4.4181,-4.369,-4.3975,-4.4642,-4.4642,-4.4642,-4.4826,0.0,0.0,-2.5635,-2.6569,-2.7582,-2.8222,-2.8285,-2.8712,-2.9026,0.0,-2.9478,-2.9792,-2.9792,-2.9792,-2.9792,-2.9792,-2.9792,-2.9792,-2.9792,-2.9792,-2.9792,-2.9792,-2.9792,-2.9792,-2.9792,-2.9792,-2.9792,-2.9792,-2.9792,-2.9792,-2.9792,-2.9792,-2.9792,-2.9792,-2.9792,-2.9792,-2.9792,-2.9792,0.0,-3.057,-3.0143,-3.0294,0.0,0.0,-3.1574,-3.1712,-3.2717,-3.3081,-3.3056,-3.293,-3.2591,0.0,0.0,0.0,0.0,0.0,-2.9842,-2.9792,-2.9792,-2.9792,-2.9792,-2.9792,0.0,0.0,-3.0495,-3.1361,-3.2353,0.0,0.0,0.0,0.0,0.0,0.0,0.0,0.0,0.0,0.0,0.0,0.0,0.0,0.0,0.0,0.0,-3.6358,-3.6358,-3.6358,-3.6358,-3.6358,-3.6358,-3.6358,-3.6358,-3.6358,-3.6358,-3.6358,-3.6358,-3.6358,-3.6358,-3.6358,-3.6358,-3.6358,-3.6358,-3.6358,-3.6358,-3.6383,-3.6872,-3.7098,-3.7136,-3.7688,-3.9769,-4.2554,-4.2807,-4.3149,-4.3313,-4.3313,-4.3313,-4.3504,-2.5712,-2.6788,-2.7693,-2.83,-2.8612,-2.8925,-2.939,-2.9553,-2.9616,-2.9616,-2.9729,-2.9792,-2.9792,-2.9792,-2.9792,-2.9792,-2.9792,-2.9792,-2.9792,-2.9792,-2.9792,-2.9792,-2.9792,-2.9792,-2.9792,-2.9792,-2.9792,-2.9792,-2.9792,-2.9792,-2.9792,-2.9792,-2.9792,-2.9792,-2.9792,-2.9792,-2.9792,-2.9792,0.0,-3.0645,-3.0959,0.0,-3.1964,-3.2528,-3.2754,-3.278,-3.3006,-3.3081,-3.2943,-3.2026,-3.1938,-3.2001,0.0,0.0,0.0,-3.0482,0.0,-2.9792,-2.9792,-2.9792,-2.9792,0.0,0.0,0.0,-3.0495,-3.0771,-3.1235,0.0,0.0,0.0,0.0,0.0,0.0,0.0,0.0,0.0,0.0,0.0,0.0,0.0,0.0,0.0,0.0,-3.6358,-3.6358,-3.6358,-3.6358,-3.6358,-3.6358,-3.6358,-3.6358,-3.6358,-3.6358,-3.6358,-3.6358,-3.6358,-3.6358,-3.6358,-3.6358,-3.6358,-3.6358,-3.6358,-3.6358,-3.637,-3.6471,-3.6521,-3.6571,-3.7111,-3.8865,-4.112,-4.0119,-4.0728,-4.1985,-4.1985,-4.1985,-4.2168,-2.6302,-2.7335,-2.8203,-2.8472,-2.8944,-2.9453,-2.9741,-2.9792,-2.9792,-2.9792,-2.9792,-2.9792,-2.9792,-2.9792,-2.9792,-2.9792,-2.9792,-2.9792,-2.9792,-2.9792,-2.9792,-2.9792,-2.9792,-2.9792,-2.9792,-2.9792,-2.9792,-2.9792,-2.9792,-2.9792,-2.9792,-2.9792,-2.9792,-2.9792,-2.9792,-2.9792,-2.9817,0.0,-3.052,-3.0997,-3.0997,0.0,-3.1863,-3.2428,-3.2641,-3.2692,-3.2968,-3.3081,-3.2955,-3.2089,-3.1989,0.0,0.0,-3.0821,-3.062,0.0,-3.0231,-2.9792,0.0,0.0,0.0,-2.9792,0.0,0.0,0.0,-3.0419,-3.0846,0.0,0.0,0.0,0.0,0.0,0.0,0.0,0.0,0.0,0.0,0.0,0.0,0.0,0.0,0.0,0.0,-3.6358,-3.6358,-3.6358,-3.6358,-3.6358,-3.6358,-3.6358,-3.6358,-3.6358,-3.6358,-3.6358,-3.6358,-3.6358,-3.6358,-3.6358,-3.6358,-3.6358,-3.6358,-3.6358,-3.6358,-3.6358,-3.6358,-3.6358,-3.6383,-3.6659,-3.7622,-3.9007,-3.893,-3.9411,-4.0269,-4.0539,-4.0642,-4.0844,-2.5975,-2.7035,-2.7763,-2.7763,-2.8688,-2.9365,-2.9209,-2.9546,-2.9792,-2.9792,-2.9624,-2.9493,-2.9605,-2.9349,-2.9167,-2.9266,-2.918,-2.9287,-2.9456,-2.9456,-2.9534,-2.9792,-2.9792,-2.9792,-2.9792,-2.9792,-2.9792,-2.9792,-2.9792,-2.9792,-2.9792,-2.9792,-2.9792,-2.9792,-2.9792,-2.9854,-2.998,-3.0432,0.0,-3.1361,0.0,-3.1173,-3.1612,-3.2164,-3.2303,-3.229,-3.2867,-3.3081,-3.2993,-3.2403,-3.229,-3.2265,-3.1599,-3.1097,0.0,0.0,0.0,0.0,0.0,0.0,0.0,0.0,0.0,-2.9792,0.0,0.0,0.0,0.0,0.0,0.0,0.0,0.0,0.0,0.0,0.0,0.0,0.0,0.0,0.0,0.0,0.0,0.0,0.0,-3.6295,-3.6358,-3.6358,-3.6358,-3.6358,-3.6358,-3.6358,-3.6358,-3.6358,-3.6358,-3.6358,-3.6358,-3.6358,-3.6358,-3.6358,-3.6358,-3.6358,-3.6358,-3.6358,-3.6358,-3.6358,-3.6358,-3.6358,-3.6358,-3.6358,-3.6621,-3.7123,-3.814,-3.8605,-3.8768,-3.9333,-3.9534,-3.9752,-2.4957,-2.588,-2.6719,-2.6719,-2.7614,-2.7936,-2.7058,-2.8542,-2.9792,-2.9792,-2.8937,-2.8435,-2.8831,-2.7731,-2.6982,-2.7413,-2.7062,0.0,-2.8255,0.0,-2.8767,-2.9792,-2.9792,-2.9792,-2.9792,-2.9792,-2.9792,-2.9792,-2.9792,-2.9792,-2.9792,-2.9792,-2.9792,-2.9792,-2.9792,-3.0068,-3.052,0.0,-3.0922,0.0,-3.1851,-3.2064,0.0,-3.2754,-3.2667,-3.229,-3.2867,-3.3081,-3.2993,0.0,-3.2554,-3.2792,0.0,-3.1348,-3.121,-3.0758,0.0,0.0,0.0,0.0,0.0,0.0,-2.9792,0.0,0.0,0.0,0.0,-2.9967,0.0,0.0,0.0,0.0,0.0,0.0,0.0,0.0,0.0,0.0,0.0,0.0,0.0,0.0,0.0,0.0,-3.6358,-3.6358,-3.6358,-3.6358,-3.6358,-3.6358,-3.6358,-3.6358,-3.6358,-3.6358,-3.6358,-3.6358,-3.6358,-3.6358,-3.6358,-3.6358,-3.6358,-3.6358,-3.6358,-3.6358,-3.6358,-3.6358,-3.6358,-3.6358,-3.6395,-3.6521,-3.7136,-3.7676,-3.8165,-3.8755,-3.8956,-3.9032,-2.6438,-2.7105,-2.7614,-2.8291,-2.8791,-2.8949,-2.8462,-2.9209,-2.9792,-2.9792,-2.9365,-2.9315,0.0,0.0,0.0,0.0,0.0,-2.7178,0.0,0.0,-2.8515,-2.8574,-2.9371,-2.9605,-2.9241,-2.9617,-2.9792,-2.9792,-2.9792,-2.9792,-2.9792,-2.9792,-2.9792,-2.9804,-3.0131,0.0,-3.0658,0.0,-3.1486,0.0,0.0,0.0,0.0,-3.2729,-3.293,-3.2754,-3.2993,-3.3081,-3.3043,0.0,-3.2654,0.0,0.0,0.0,0.0,0.0,0.0,0.0,0.0,0.0,0.0,0.0,0.0,0.0,-2.9867,0.0,-2.9792,0.0,0.0,0.0,0.0,0.0,0.0,0.0,-3.052,0.0,0.0,0.0,0.0,0.0,0.0,0.0,0.0,0.0,0.0,0.0,0.0,-3.5893,-3.5893,-3.6194,-3.6358,-3.6358,-3.6358,-3.6358,-3.6358,-3.6358,-3.6358,-3.6358,-3.6358,-3.6358,-3.6358,-3.6358,-3.6358,-3.6358,-3.6358,-3.6358,-3.6358,-3.6358,-3.6358,-3.6383,-3.6621,-3.7048,-3.76,-3.8165,-3.858,-3.8906,-2.6849,-2.7441,-2.7936,-2.8791,-2.9118,-2.9443,-2.9792,-2.9534,-2.9365,0.0,0.0,0.0,-2.9306,-2.7881,0.0,0.0,-2.7151,-2.6595,0.0,0.0,-2.7838,0.0,0.0,0.0,0.0,-2.9285,-2.9605,-2.9792,-2.9792,-2.9792,-2.9792,-2.9792,-2.9792,-2.9817,-3.0218,-3.0557,-3.0884,0.0,-3.1938,-3.1888,-3.229,-3.2202,-3.1926,-3.2591,-3.2943,-3.3081,-3.3081,-3.3081,-3.3081,-3.3081,-3.2805,0.0,-3.2754,0.0,0.0,0.0,0.0,0.0,-3.0721,0.0,0.0,0.0,0.0,0.0,0.0,0.0,0.0,0.0,0.0,0.0,0.0,0.0,-2.9792,-2.9792,0.0,-2.993,0.0,0.0,0.0,0.0,0.0,0.0,0.0,0.0,0.0,-3.5064,-3.524,-3.5299,-3.5449,-3.5931,-3.6207,-3.6358,-3.6358,-3.6358,-3.6358,-3.6358,-3.6358,-3.6358,-3.6358,-3.6358,-3.6358,-3.6358,-3.6358,-3.6358,-3.6358,-3.6358,-3.6358,-3.6358,-3.6358,-3.6358,-3.6358,-3.6609,-3.7023,-3.7575,-3.804,-3.8541,-2.4713,-2.5797,-2.6554,-2.6565,-2.7441,-2.8518,-2.9624,0.0,0.0,0.0,0.0,0.0,0.0,0.0,0.0,0.0,0.0,-2.4935,-2.6114,0.0,-2.6128,0.0,0.0,-2.7683,0.0,0.0,-2.9129,-2.9792,-2.9792,-2.9792,-2.9792,-2.9792,-2.9792,-2.9792,-2.9817,-3.0394,-3.1361,-3.1399,-3.2039,-3.3031,-3.3043,-3.3043,-3.2968,0.0,-3.2591,-3.3081,-3.3081,0.0,0.0,-3.3081,-3.3068,0.0,0.0,0.0,0.0,0.0,0.0,0.0,0.0,0.0,0.0,-3.1235,0.0,0.0,0.0,0.0,-2.9792,0.0,0.0,0.0,0.0,-2.9792,-2.9792,-2.9792,-2.9792,0.0,0.0,0.0,0.0,0.0,0.0,0.0,0.0,0.0,0.0,-3.3947,-3.4449,-3.4989,-3.5424,-3.5567,-3.5818,-3.6345,-3.6358,-3.6358,-3.6358,-3.6358,-3.6358,-3.6358,-3.6358,-3.6358,-3.6358,-3.6358,-3.6358,-3.6358,-3.6358,-3.6358,-3.6358,-3.6358,-3.6358,-3.6358,-3.6358,-3.637,-3.6458,-3.701,-3.7224,-3.7568,-2.5714,-2.6224,-2.6719,0.0,0.0,0.0,0.0,-2.729,0.0,0.0,0.0,0.0,0.0,-2.6325,-2.5726,0.0,0.0,-2.5159,-2.5824,-2.6136,0.0,0.0,0.0,-2.7325,0.0,0.0,0.0,-2.8688,-2.9443,-2.9792,-2.9792,-2.9792,-2.9792,-2.9817,-3.0168,-3.0733,0.0,0.0,0.0,0.0,0.0,-3.229,-3.2026,0.0,0.0,-3.3081,-3.3081,-3.3081,0.0,-3.3081,-3.3081,-3.3043,-3.2842,-3.2516,-3.2177,-3.1989,-3.1675,0.0,0.0,0.0,-3.1712,-3.1888,0.0,0.0,0.0,0.0,0.0,0.0,0.0,0.0,0.0,-2.9792,-2.9792,-2.9792,-2.9792,-2.9792,0.0,0.0,0.0,0.0,0.0,0.0,0.0,0.0,0.0,-3.3294,-3.3533,-3.4035,-3.4951,-3.5353,-3.5805,-3.6345,-3.6358,-3.6358,-3.6358,-3.6358,-3.6358,-3.6358,-3.6358,-3.6358,-3.6358,-3.6358,-3.6358,-3.6358,-3.6358,-3.6358,-3.6358,-3.6358,-3.6358,-3.6358,-3.6358,-3.6358,-3.6383,-3.6571,-3.6872,-3.7711,-2.5147,0.0,0.0,0.0,0.0,0.0,0.0,0.0,0.0,0.0,-2.6562,0.0,-2.7093,0.0,-2.6033,0.0,-2.5928,-2.543,-2.5723,-2.5959,0.0,-2.5713,-2.6383,0.0,0.0,0.0,0.0,0.0,0.0,-2.9663,-3.0093,-3.0281,-3.0369,-3.0369,-3.0733,-3.1185,-3.17,-3.2064,-3.2328,0.0,0.0,-3.2001,0.0,0.0,-3.2767,-3.2805,0.0,-3.3081,-3.3081,-3.3081,-3.3081,-3.3081,-3.3081,-3.2817,-3.2516,-3.2516,-3.2265,-3.2064,-3.2428,-3.2365,0.0,-3.2466,-3.1951,0.0,-3.121,0.0,0.0,0.0,0.0,0.0,0.0,0.0,-2.9792,-2.9792,-2.9792,-2.9792,0.0,-2.9792,0.0,0.0,0.0,0.0,0.0,0.0,-3.1424,-3.2152,-3.2378,-3.3056,0.0,0.0,-3.5391,-3.6332,-3.6358,-3.6358,-3.6358,-3.6358,-3.6358,-3.6358,-3.6358,-3.6358,-3.6358,-3.6358,-3.6358,-3.6358,-3.6358,-3.6358,-3.6358,-3.6358,-3.6358,-3.6358,-3.6358,-3.6358,-3.6358,-3.6358,-3.724,-3.8817,-2.3135,0.0,0.0,0.0,-2.6389,0.0,0.0,0.0,-2.6395,0.0,-2.5451,-2.5593,-2.4536,-2.4844,-2.5273,-2.5703,-2.5742,0.0,-2.5742,-2.5332,0.0,0.0,-2.5332,-2.5635,-2.6599,0.0,0.0,0.0,0.0,-2.9431,-3.0578,-3.1079,-3.1304,-3.1386,-3.1386,0.0,-3.2215,-3.2177,-3.2503,-3.2993,-3.2466,-3.224,-3.2215,-3.224,-3.224,-3.229,-3.2867,-3.3081,-3.3081,-3.3081,-3.3081,-3.3081,-3.3081,-3.3081,-3.3081,-3.3081,-3.3081,-3.3081,-3.3081,-3.2667,-3.239,-3.2943,0.0,0.0,0.0,0.0,-3.1386,0.0,0.0,0.0,0.0,0.0,-2.9829,-2.9792,-2.9792,-2.9792,-2.9792,-2.9792,0.0,0.0,0.0,0.0,0.0,-3.0269,-3.0583,-3.062,-3.1072,-3.2077,0.0,0.0,-3.4625,-3.6232,-3.6332,-3.6358,-3.6358,-3.6358,-3.6358,-3.6358,-3.6358,-3.6358,-3.6358,-3.6358,-3.6358,-3.6358,-3.6358,-3.6358,-3.6358,-3.6358,-3.6358,-3.6452,-3.6452,-3.6546,-3.6546,-3.6546,-3.828,-4.0803,-2.3135,-2.3135,-2.3551,0.0,-2.521,-2.5041,0.0,0.0,0.0,0.0,-2.4526,-2.4901,-2.4863,-2.5293,-2.5615,-2.5723,-2.5742,0.0,0.0,0.0,0.0,-2.5732,-2.5625,-2.5496,-2.553,-2.6228,0.0,-2.6801,0.0,-2.868,-2.9821,-3.0037,-3.0526,-3.1386,-3.1386,-3.17,-3.219,-3.1775,-3.1913,-3.2466,-3.2742,-3.2591,0.0,0.0,-3.2591,-3.229,-3.2867,-3.3081,-3.3081,-3.3081,-3.3081,-3.3081,-3.3081,-3.3081,-3.3081,-3.3081,-3.3081,-3.3081,-3.3081,-3.2968,-3.2893,-3.3043,-3.2541,-3.2039,0.0,0.0,0.0,0.0,0.0,0.0,0.0,0.0,0.0,-2.9854,-2.9792,-2.9792,-2.9792,0.0,0.0,-2.9792,0.0,0.0,-2.9792,-2.9917,-3.0168,-3.0583,-3.0733,-3.1348,-3.2579,0.0,0.0,-3.5115,-3.5943,-3.6358,-3.6358,-3.6358,-3.6358,-3.6358,-3.6358,-3.6358,-3.6358,-3.6358,-3.6358,-3.6358,-3.6358,-3.6358,-3.6358,-3.6358,-3.6358,-3.6452,-3.7322,-3.8211,-3.893,-3.803,-3.8742,-4.035,-2.3135,0.0,0.0,-2.3963,0.0,0.0,-2.4062,0.0,0.0,-2.4033,-2.4609,0.0,-2.5059,-2.5469,-2.5742,-2.5742,-2.5742,0.0,-2.5742,0.0,0.0,-2.5742,-2.5742,-2.5615,-2.5361,-2.5904,0.0,-2.6316,0.0,0.0,-2.9913,-3.015,-3.0967,-3.2127,-3.2127,-3.2303,-3.2591,-3.2516,-3.2378,-3.2265,-3.2842,0.0,0.0,-3.2579,-3.2654,-3.2641,-3.2955,-3.3081,-3.3081,-3.3081,-3.3081,-3.3081,-3.3081,-3.3081,-3.3081,-3.3081,-3.3081,-3.3081,-3.3081,-3.3081,-3.3081,-3.3081,-3.283,-3.2591,-3.2591,-3.2353,-3.2127,0.0,0.0,0.0,0.0,0.0,0.0,-2.988,-2.9792,-2.9792,0.0,0.0,0.0,0.0,-3.0075,0.0,-3.0908,-3.0292,-2.993,-3.0231,-3.061,-3.1261,0.0,0.0,0.0,-3.4675,-3.5328,-3.5642,-3.5642,-3.6119,-3.6245,-3.6006,-3.6245,-3.6358,-3.6358,-3.6358,-3.6358,-3.6358,-3.6358,-3.6358,-3.6452,-3.6977,-3.715,-3.7243,-3.8469,-3.9271,-3.9899,-3.9697,-4.0031,-4.0802,0.0,0.0,0.0,0.0,0.0,0.0,0.0,-2.4786,0.0,-2.4414,0.0,-2.5508,-2.5117,-2.5469,-2.5742,-2.5742,0.0,-2.5742,-2.5742,-2.5742,-2.5742,-2.5742,-2.5742,-2.5762,-2.582,-2.582,-2.6098,0.0,0.0,-2.8435,-3.0284,-3.0744,-3.1689,-3.3081,-3.3081,0.0,0.0,-3.3194,-3.291,-3.21,-3.2488,-3.2561,-3.2328,-3.2147,-3.2544,-3.3081,-3.3081,-3.3081,-3.3081,-3.3081,-3.3081,-3.3081,-3.3081,-3.3081,-3.3081,-3.3081,-3.3081,-3.3081,-3.3081,-3.3081,-3.3081,-3.3081,-3.3081,-3.3081,-3.3081,-3.3081,-3.3081,-3.3081,-3.2679,-3.2303,0.0,0.0,0.0,-2.998,0.0,0.0,0.0,0.0,0.0,0.0,0.0,0.0,0.0,-3.0908,-2.9998,-3.0152,-3.0908,-3.1612,0.0,0.0,0.0,-3.4223,-3.4575,0.0,-3.4726,0.0,-3.6119,-3.5655,-3.6132,-3.6358,-3.6358,-3.6358,-3.6358,-3.6358,-3.6358,-3.6358,-3.6452,-3.7586,-3.8289,-3.8635,-3.9711,-4.0232,-4.0504,-4.142,-4.185,-4.185,0.0,0.0,0.0,0.0,0.0,-2.3525,-2.4937,-2.448,-2.4023,-2.4375,-2.4863,-2.5156,-2.5078,-2.5469,-2.5742,-2.5742,-2.5742,0.0,0.0,0.0,0.0,-2.5742,-2.5742,-2.5908,-2.6269,-2.6279,-2.6329,0.0,0.0,0.0,-2.9545,-2.9636,-3.0956,-3.3081,-3.3081,0.0,-3.1335,-3.0847,0.0,-3.1204,-3.072,-3.1466,-3.2832,-3.1807,-3.2054,-3.3081,-3.3081,-3.3081,-3.3081,-3.3081,-3.3081,-3.3081,-3.3081,-3.3081,-3.3081,-3.3081,-3.3081,-3.3081,-3.3081,-3.3081,-3.3081,-3.3081,-3.3081,-3.3081,-3.3081,-3.3081,-3.3081,-3.3081,-3.3006,-3.278,-3.2303,0.0,0.0,0.0,0.0,0.0,0.0,0.0,0.0,0.0,0.0,-3.1557,0.0,0.0,0.0,-3.2046,-3.2249,0.0,0.0,0.0,0.0,0.0,-3.3759,0.0,0.0,0.0,-3.632,-3.6219,-3.632,-3.6358,-3.6358,-3.6358,-3.6358,-3.6358,-3.6358,-3.6358,-3.6452,-3.7586,-3.9244,-4.0986,-4.1253,-4.1864,-4.2739,-4.29,-4.2981,-4.2981,0.0,0.0,0.0,0.0,0.0,0.0,0.0,-2.2533,0.0,-2.485,-2.5283,-2.541,-2.541,-2.5605,-2.5742,-2.5742,-2.5742,-2.5742,-2.5742,-2.5947,-2.6074,-2.6074,-2.6289,0.0,-2.6709,-2.6934,-2.6836,-2.6387,0.0,0.0,-2.8495,-2.8495,-2.9418,-3.1158,-3.1418,-3.1164,0.0,0.0,0.0,-3.0457,-3.0503,-3.0732,-3.1146,-3.0496,-3.0676,-3.1146,-3.1146,-3.1146,-3.1424,-3.2698,-3.3081,-3.2982,-3.2326,-3.214,-3.214,-3.214,-3.214,-3.2239,-3.2884,-3.3081,-3.3081,-3.3081,-3.3081,-3.3081,-3.3081,-3.3081,-3.3081,-3.3081,-3.3081,-3.2905,-3.2315,-3.1788,0.0,0.0,0.0,0.0,0.0,0.0,0.0,0.0,0.0,0.0,0.0,0.0,0.0,0.0,0.0,0.0,0.0,0.0,0.0,0.0,0.0,0.0,0.0,0.0,0.0,-3.725,-3.7934,-3.8225,-3.8225,-3.7599,-3.7599,-3.8225,-3.7599,-3.7599,-3.8315,-3.942,-4.0901,-4.2467,-4.2467,-4.2805,-4.3329,-4.3329,-4.3329,-4.3329,0.0,-2.2888,0.0,0.0,-2.1296,0.0,-2.0812,-2.0916,-2.1931,-2.4553,-2.4815,-2.4922,-2.5226,-2.5226,-2.543,-2.5635,-2.582,-2.5879,-2.5879,-2.6279,-2.6523,-2.6523,-2.6836,-2.706,-2.7148,-2.749,-2.7334,0.0,0.0,0.0,0.0,-2.7631,-2.8279,0.0,0.0,0.0,0.0,0.0,-3.0319,-2.9745,-2.9958,-2.9818,-2.9407,-2.9143,-2.9223,-2.9407,-2.9407,-2.9407,-2.9681,-3.1701,-3.2339,-3.2152,-3.1134,-3.0855,-3.0855,-3.0855,-3.0855,-3.1134,-3.2326,-3.2711,-3.2797,-3.3068,-3.3081,-3.3081,-3.3081,-3.3081,-3.3081,-3.3081,-3.3081,-3.293,-3.2478,-3.2303,0.0,0.0,0.0,0.0,0.0,0.0,0.0,0.0,0.0,0.0,-3.3225,0.0,0.0,0.0,0.0,0.0,0.0,0.0,0.0,0.0,0.0,-3.5361,-3.6004,0.0,-3.8516,0.0,-3.9374,-3.9899,-3.9899,-3.8917,-3.9006,-3.9812,-3.8917,-3.9169,-4.0318,-4.1253,-4.229,-4.3329,-4.3329,-4.3329,-4.3329,-4.3329,-4.3409,-4.363,0.0,0.0,0.0,0.0,0.0,0.0,0.0,-2.1081,-2.123,-2.2005,-2.2055,-2.2567,-2.3791,-2.3899,-2.4402,-2.5635,-2.6103,-2.6328,-2.6328,-2.6728,-2.6953,-2.6953,-2.6992,-2.7197,-2.7598,-2.7646,-2.7627,0.0,0.0,-2.7342,0.0,0.0,0.0,0.0,0.0,0.0,0.0,-2.8521,-2.837,-2.877,-2.7764,-2.8202,-2.9315,-2.8226,-2.8412,-2.9407,-2.9407,-2.9407,-2.9407,-2.9681,-2.9772,-2.9772,-2.959,-2.959,-2.959,-2.959,-2.959,-2.9863,-3.1045,-3.14,-3.1689,-3.2797,-3.3081,-3.3081,-3.3081,-3.3081,-3.3081,-3.3081,-3.3081,-3.3056,-3.3006,-3.2566,-3.2026,0.0,0.0,0.0,0.0,0.0,-3.1135,-3.0738,0.0,0.0,0.0,-3.3663,0.0,0.0,0.0,0.0,0.0,0.0,0.0,-3.3569,0.0,-3.4741,-3.5347,-3.7152,-3.8296,-3.8792,-3.9568,-3.9899,-3.9899,-3.9812,-3.9812,-3.9899,-3.9812,-4.0404,-4.142,-4.1587,-4.229,-4.3329,-4.3329,-4.3329,-4.3329,-4.3329,-4.3849,-4.4662,0.0,0.0,0.0,0.0,0.0,0.0,0.0,-1.8899,-1.9067,-1.9191,-2.0633,-2.2342,-2.3907,-2.4034,-2.4757,-2.6374,-2.666,-2.6768,-2.6768,-2.7168,-2.7402,-2.7402,-2.7646,-2.7861,-2.8037,-2.8047,-2.792,0.0,0.0,0.0,0.0,0.0,0.0,0.0,0.0,-2.8126,-2.8364,-2.8131,-2.7939,-2.7683,-2.7206,-2.7073,-2.7115,-2.6658,-2.6754,-2.721,-2.721,-2.721,-2.721,-2.721,-2.8121,-2.9315,-2.8588,-2.8319,-2.8319,-2.8319,-2.8319,-2.8773,-3.0676,-3.1223,-3.15,-3.2797,-3.3081,-3.3081,-3.3081,-3.3081,-3.3081,-3.3081,-3.3081,-3.3081,-3.3081,-3.288,-3.2541,0.0,0.0,0.0,0.0,0.0,0.0,-3.0721,0.0,-3.2291,0.0,0.0,0.0,0.0,0.0,0.0,0.0,0.0,0.0,-3.4981,0.0,-3.6649,-3.7767,-3.8446,-3.9329,-4.0437,-4.1076,-4.1584,-4.1961,-4.1267,-4.0916,-4.1,-4.1616,-4.2208,-4.2629,-4.2629,-4.29,-4.3329,-4.3329,-4.3329,-4.3409,-4.4004,-4.4434,-4.4946,-2.0141,0.0,-1.967,0.0,-1.8304,-1.815,-1.7353,-1.7475,-1.7716,-1.7716,-1.9447,-2.1307,-2.2903,-2.3126,-2.3825,-2.5487,-2.5843,-2.6022,-2.655,-2.6511,-2.6967,-2.7851,-2.7689,0.0,-2.8291,-2.8291,-2.8144,-2.7851,-2.7412,0.0,0.0,0.0,0.0,0.0,-2.7529,-2.7734,-2.7861,-2.8037,-2.7685,-2.7002,-2.6875,-2.6387,-2.5742,-2.5742,-2.5742,-2.5742,-2.5742,-2.5742,-2.5742,-2.5742,-2.6839,-2.8121,-2.7305,-2.703,-2.703,-2.703,-2.703,-2.7579,-3.0045,-3.0676,-3.1045,-3.2698,-3.3081,-3.3081,-3.3081,-3.3081,-3.3081,-3.3081,-3.3081,-3.3081,-3.3081,-3.3081,-3.288,-3.2303,0.0,0.0,0.0,0.0,0.0,0.0,-3.1072,-3.1928,-3.3312,0.0,0.0,0.0,0.0,0.0,0.0,0.0,0.0,0.0,0.0,0.0,0.0,-3.902,-3.9783,-4.11,-4.1953,-4.2596,-4.2966,-4.2379,-4.2111,-4.2111,-4.2981,-4.3329,-4.3329,-4.3329,-4.3329,-4.3329,-4.3329,-4.3472,-4.3849,-4.451,-4.5153,-4.5778,-1.9751,-1.9358,-1.8745,-1.7442,-1.725,-1.725,-1.7148,-1.7655,-1.8043,-1.8043,-1.8297,-1.8899,-2.0059,-2.0412,-2.114,-2.2429,-2.2971,-2.382,-2.5326,-2.4386,-2.5151,0.0,0.0,-2.6825,-2.8291,-2.8291,-2.8291,-2.8281,0.0,0.0,-2.7646,0.0,-2.7236,-2.7656,-2.7666,-2.7891,-2.8262,-2.7851,-2.7412,-2.6982,-2.6562,-2.6133,-2.5742,-2.5742,-2.5742,-2.5742,-2.5742,-2.5742,-2.5742,-2.5742,-2.5742,-2.5732,-2.5732,-2.5732,-2.5732,-2.5732,-2.5732,-2.6284,-2.8762,-2.9407,-3.0045,-3.2513,-3.3081,-3.3081,-3.3081,-3.3081,-3.3081,-3.3081,-3.3081,-3.3081,-3.3081,-3.3081,-3.288,-3.2303,0.0,0.0,0.0,0.0,0.0,-3.0746,-3.1072,-3.2223,-3.4176,0.0,0.0,0.0,0.0,0.0,0.0,0.0,0.0,-3.6477,-3.5863,0.0,-3.7419,-3.8078,-3.908,-4.0427,-4.1728,-4.2357,-4.2387,-4.303,-4.325,-4.325,-4.325,-4.3329,-4.3329,-4.3329,-4.3329,-4.3329,-4.3329,-4.3927,-4.4812,-4.4812,-4.5992,-4.7589,-1.8241,-1.8123,-1.795,-1.7546,-1.7442,-1.7515,-1.7729,-1.7923,-1.8123,-1.8323,-1.8604,-1.8857,-1.9188,-2.0229,-2.157,0.0,-2.3472,-2.3767,0.0,-2.3978,-2.4267,-2.516,-2.4829,-2.5261,-2.6717,-2.6825,-2.7276,-2.8291,0.0,0.0,0.0,-2.7812,-2.7959,-2.8096,-2.8096,-2.8164,-2.8262,-2.7842,-2.7412,-2.6982,-2.6562,-2.6133,-2.5742,-2.5742,-2.5742,-2.5742,-2.5742,-2.5742,-2.5742,-2.5742,-2.5742,-2.5742,-2.5742,-2.5742,-2.5742,-2.5742,-2.5742,-2.6197,-2.8762,-2.9407,-2.9954,-3.2525,-3.3081,-3.3081,-3.3081,-3.3081,-3.3081,-3.3081,-3.3081,-3.3081,-3.3081,-3.3081,-3.288,-3.2303,-3.2541,0.0,0.0,0.0,0.0,-3.1235,-3.1906,-3.2856,0.0,-3.4771,0.0,0.0,0.0,0.0,0.0,0.0,0.0,0.0,-3.7584,0.0,-3.8766,-3.8512,-3.9065,-4.0412,-4.0831,-4.1489,-4.2387,-4.303,-4.3329,-4.3329,-4.3329,-4.3329,-4.3329,-4.3329,-4.3693,-4.4297,-4.4297,-4.493,-4.5834,-4.647,-4.7104,-4.7655,-1.7549,-1.7582,-1.7582,-1.7582,-1.7582,-1.7689,-1.8003,-1.8143,-1.8317,-1.8617,-1.8911,-1.9092,-1.9092,-1.9856,0.0,-2.2024,-2.2161,-2.2379,-2.2927,-2.2484,-2.2597,-2.371,-2.3263,-2.3702,-2.5151,0.0,0.0,-2.7501,-2.7806,-2.79,-2.791,-2.8164,-2.8291,-2.8291,-2.8291,-2.8203,-2.8027,-2.7607,-2.7168,-2.6738,-2.6318,-2.5977,-2.5742,-2.5742,-2.5742,-2.5742,-2.5742,-2.5742,-2.5742,-2.5742,-2.5742,-2.5742,-2.5742,-2.5742,-2.5742,-2.5742,-2.5742,-2.6197,-2.8762,-2.9407,-2.9954,-3.2525,-3.3081,-3.3081,-3.3081,-3.3081,-3.3081,-3.3081,-3.3081,-3.3081,-3.3081,-3.3081,-3.2955,-3.2591,-3.2842,-3.2754,-3.1825,0.0,0.0,0.0,0.0,0.0,0.0,-3.5211,0.0,0.0,0.0,0.0,0.0,0.0,0.0,-3.8003,-3.8018,0.0,-3.9035,-3.8601,-3.8945,-4.0038,-4.0277,-4.1085,-4.2372,-4.2776,-4.3105,-4.3329,-4.3329,-4.3329,-4.3329,-4.3708,-4.422,-4.4812,-4.5227,-4.5921,-4.6815,-4.7373,-4.7803,-4.8289,-1.7582,-1.7582,0.0,0.0,-1.7582,0.0,-1.8029,-1.831,-1.8604,-1.8911,-1.9199,-1.9366,-1.9366,-1.9366,-1.9366,-1.9366,0.0,0.0,0.0,-2.0148,-2.0601,-2.3375,-2.2145,-2.2145,-2.3599,-2.3599,-2.4488,-2.6155,-2.7501,-2.8184,-2.8291,-2.8291,-2.8291,-2.8291,-2.8262,-2.8027,-2.7637,-2.7168,-2.6748,-2.6357,-2.5918,-2.5742,-2.5742,-2.5742,-2.5742,-2.5742,-2.5742,-2.5742,-2.5742,-2.5742,-2.5742,-2.5742,-2.5742,-2.5742,-2.5742,-2.5742,-2.5742,-2.6197,-2.8588,-2.9315,-2.9954,-3.2339,-3.3068,-3.3081,-3.3081,-3.3081,-3.3081,-3.3081,-3.3081,-3.3081,-3.3081,-3.3081,-3.3081,-3.3081,-3.3081,-3.288,-3.229,0.0,0.0,0.0,0.0,0.0,0.0,-3.5488,-3.6311,0.0,0.0,0.0,0.0,0.0,-3.7554,-3.7554,-3.7554,-3.7838,-3.8452,-3.8467,-3.8781,-3.9424,-4.0083,-4.104,-4.2222,-4.2327,-4.2701,-4.3269,-4.3314,-4.3329,-4.3472,-4.4434,-4.4887,-4.5095,-4.5977,-4.6884,-4.7721,-4.7721,-4.8289,-4.9152,0.0,0.0,-1.7582,-1.7582,-1.7582,-1.7762,-1.8303,-1.8444,-1.8677,-1.9192,-1.9325,-1.9366,-1.9366,-1.9366,-1.9366,-1.9366,-1.9366,-1.9597,-1.9924,-1.9591,-1.9707,-2.0371,-2.0148,-2.0587,-2.2145,-2.2145,-2.3479,-2.6155,-2.649,-2.7168,-2.8291,-2.8291,-2.8291,-2.8281,-2.7959,-2.7754,-2.7617,-2.6855,-2.6484,-2.6357,-2.5918,-2.5742,-2.5742,-2.5742,-2.5742,-2.5742,-2.5742,-2.5742,-2.5742,-2.5742,-2.5742,-2.5742,-2.5742,-2.5742,-2.5742,-2.5742,-2.5742,-2.6014,-2.7589,-2.868,-2.9772,-3.1223,-3.2426,-3.3081,-3.3081,-3.3081,-3.3081,-3.3081,-3.3081,-3.3081,-3.3081,-3.3081,-3.3081,-3.3081,-3.3081,-3.288,-3.229,-3.2328,0.0,0.0,-3.2834,-3.3789,-3.4726,-3.6267,-3.7247,0.0,0.0,0.0,0.0,-3.8467,-3.8945,-3.8945,-3.8945,-3.902,-3.917,-3.917,-3.926,-3.9424,-4.0083,-4.0561,-4.0905,-4.1908,-4.2447,-4.2626,-4.312,-4.3708,-4.4434,-4.4737,-4.5634,-4.6968,-4.7172,-4.7868,-4.8656,-4.8656,-4.9161,-4.978,-1.7582,-1.7582,-1.7582,-1.7582,-1.7582,-1.7789,-1.8397,-1.849,-1.8704,-1.9292,-1.9366,-1.9366,-1.9366,-1.9366,-1.9366,-1.9366,-1.9366,-1.9366,-1.9366,-1.9366,-1.9366,-1.9366,-1.9366,-1.9815,-2.0587,-2.0587,-2.1699,-2.4036,-2.471,-2.5827,-2.7276,-2.7078,-2.7332,-2.7988,-2.7559,-2.7266,-2.7051,-2.6582,-2.6279,-2.6074,-2.583,-2.5742,-2.5742,-2.5742,-2.5742,-2.5742,-2.5742,-2.5742,-2.5742,-2.5742,-2.5742,-2.5742,-2.5742,-2.5742,-2.5742,-2.5742,-2.5742,-2.6014,-2.722,-2.8495,-2.9863,-3.1601,-3.2612,-3.3081,-3.3081,-3.3081,-3.3081,-3.3081,-3.3081,-3.3081,-3.3081,-3.3081,-3.3081,-3.3081,-3.2855,-3.2566,-3.2252,-3.2215,0.0,-3.2215,-3.3002,-3.3979,-3.5251,-3.6383,-3.7353,-3.7945,0.0,0.0,-3.8347,-3.8721,-3.8945,-3.8945,-3.926,-3.9424,-3.9424,-3.9424,-3.9424,-3.9424,-3.9783,-4.0113,-4.0427,-4.113,-4.2062,-4.3076,-4.3366,-4.4278,-4.5488,-4.5921,-4.6694,-4.7655,-4.808,-4.8731,-4.9462,-4.9462,-4.9879,-5.0554,-1.7582,-1.7582,-1.7582,-1.7582,-1.7582,-1.7769,-1.8337,-1.8424,-1.8617,-1.9165,-1.9239,-1.9239,-1.9239,-1.9239,-1.9239,-1.9239,-1.9239,-1.9272,-1.9359,-1.9366,-1.9366,-1.9366,-1.9366,-1.9366,-1.9366,-1.9366,-2.0127,-2.1511,-2.2735,-2.4157,-2.5639,-2.5406,-2.6023,-2.7321,-2.7007,-2.6728,-2.6387,-2.6318,-2.6074,-2.5742,-2.5742,-2.5742,-2.5742,-2.5742,-2.5742,-2.5742,-2.5742,-2.5742,-2.5742,-2.5742,-2.5742,-2.5742,-2.5742,-2.5742,-2.5742,-2.5742,-2.5742,-2.5927,-2.704,-2.8308,-2.9954,-3.2525,-3.3081,-3.3081,-3.3081,-3.3081,-3.3081,-3.3081,-3.3081,-3.3081,-3.3081,-3.3081,-3.3056,-3.2968,-3.2528,-3.2177,-3.2102,0.0,-3.2215,-3.2215,-3.2887,-3.4095,-3.6039,-3.6369,-3.7238,-3.925,-3.8871,-3.8751,0.0,-3.8811,-3.8497,-3.8392,-3.9065,-3.9424,-3.9424,-3.9424,-3.9424,-3.9424,-3.9424,-3.9781,-4.0452,-4.0558,-4.1748,-4.3666,-4.3868,-4.4851,-4.6309,-4.7257,-4.7655,-4.7868,-4.881,-4.9521,-5.0033,-5.0129,-5.0608,-5.1343,-1.7582,-1.7582,-1.7582,-1.7582,-1.7582,-1.7702,-1.8063,-1.8116,-1.8237,-1.8584,-1.8624,-1.8624,-1.8624,-1.8624,-1.8624,-1.8624,-1.8624,-1.8838,-1.9332,-1.9366,-1.9366,-1.9366,-1.9366,-1.9366,-1.9366,-1.9366,-2.0023,-2.1167,-2.1501,-2.2229,-2.3448,-2.4553,-2.5172,-2.5476,-2.6145,-2.6455,-2.6367,-2.5996,-2.5801,-2.5742,-2.5742,-2.5742,-2.5742,-2.5742,-2.5742,-2.5742,-2.5742,-2.5742,-2.5742,-2.5742,-2.5742,-2.5742,-2.5742,-2.5742,-2.5742,-2.5742,-2.5742,-2.5732,-2.5917,-2.7662,-2.9954,-3.2525,-3.3081,-3.3081,-3.3081,-3.3081,-3.3081,-3.3081,-3.3081,-3.3081,-3.3081,-3.3081,-3.2918,-3.2428,-3.2277,-3.2051,-3.1587,0.0,-3.2215,-3.2215,-3.3508,-3.4884,-3.6132,-3.7021,-3.8069,-3.9337,-3.932,-3.905,-3.8571,-3.899,-3.899,-3.8407,-3.9065,-3.9424,-3.9424,-3.9424,-3.9424,-3.9424,-3.9424,-3.9854,-4.067,-4.1201,-4.2115,-4.317,-4.4363,-4.5488,-4.6536,-4.7276,-4.808,-4.8844,-4.9546,-4.9919,-5.009,-5.0716,-5.1343,-5.1952,-1.7582,-1.7582,-1.7582,-1.7582,-1.7582,-1.7689,-1.8003,-1.805,-1.8156,-1.845,-1.849,-1.849,-1.849,-1.849,-1.849,-1.849,-1.849,-1.8611,-1.8878,-1.8898,-1.8898,-1.8898,-1.8898,-1.8898,-1.8898,-1.8898,-1.9149,-1.9653,-1.9771,-2.0442,-2.1671,-2.212,-2.3184,-2.4633,-2.4867,-2.5315,-2.6025,-2.582,-2.5742,-2.5742,-2.5742,-2.5742,-2.5742,-2.5742,-2.5742,-2.5742,-2.5742,-2.5742,-2.5742,-2.5742,-2.5742,-2.5742,-2.5742,-2.5742,-2.5742,-2.5742,-2.5742,-2.6014,-2.7295,-2.8495,-2.9954,-3.2525,-3.3081,-3.3081,-3.3081,-3.3081,-3.3081,-3.3081,-3.3081,-3.3081,-3.3081,-3.3081,-3.288,-3.2303,-3.2215,0.0,0.0,-3.1863,-3.2215,-3.2215,-3.3199,-3.4498,-3.6053,-3.6682,-3.7648,-3.9265,-3.9424,-3.9275,-3.896,-3.9245,-3.9275,-3.896,-3.9245,-3.9424,-3.9424,-3.9424,-3.961,-4.0115,-4.0115,-4.0569,-4.1412,-4.1759,-4.2555,-4.3797,-4.4464,-4.5682,-4.7254,-4.7651,-4.8483,-4.9563,-4.9879,-5.0445,-5.1172,-5.1494,-5.2083,-5.2733,-1.7582,-1.7582,-1.7582,-1.7582,-1.7582,-1.7662,-1.7903,-1.7943,-1.8023,-1.825,-1.8277,-1.8277,-1.8277,-1.8277,-1.8277,-1.8277,-1.8277,-1.8277,-1.8277,-1.8277,-1.8343,-1.8484,-1.849,-1.849,-1.849,-1.849,-1.8457,-1.8384,-1.8384,-1.8878,-1.9945,-2.0022,-2.1346,-2.3701,-2.3718,-2.4402,-2.5742,-2.5742,-2.5742,-2.5742,-2.5742,-2.5742,-2.5742,-2.5742,-2.5742,-2.5742,-2.5742,-2.5742,-2.5742,-2.5742,-2.5742,-2.5742,-2.5742,-2.5742,-2.5742,-2.5742,-2.5927,-2.6658,-2.8762,-2.959,-3.0316,-3.2525,-3.3081,-3.3081,-3.3081,-3.3081,-3.3081,-3.3081,-3.3081,-3.3081,-3.3081,-3.3081,-3.288,-3.2303,0.0,0.0,0.0,-3.1951,-3.2265,-3.239,-3.3047,-3.4108,-3.5668,-3.629,-3.7252,-3.8929,-3.9265,-3.9424,-3.9424,-3.9424,-3.9424,-3.9424,-3.9424,-3.9424,-3.9424,-3.961,-4.006,-4.069,-4.0894,-4.1478,-4.2316,-4.2316,-4.3079,-4.445,-4.4616,-4.5932,-4.7869,-4.8039,-4.8953,-5.0297,-5.0445,-5.1172,-5.2141,-5.24,-5.2871,-5.3381,-1.7582,-1.7582,-1.7582,-1.7582,-1.7582,-1.7589,-1.7615,-1.7615,-1.7622,-1.7649,-1.7649,-1.7649,-1.7649,-1.7649,-1.7649,-1.7649,-1.7649,-1.7649,-1.7649,-1.7649,-1.7903,-1.8464,-1.849,-1.849,-1.849,-1.849,-1.8357,-1.8083,-1.8083,-1.7929,-1.7853,-1.9063,-2.0475,-2.1887,-2.3185,-2.4402,-2.5742,-2.5742,-2.5742,-2.5742,-2.5742,-2.5742,-2.5742,-2.5742,-2.5742,-2.5742,-2.5742,-2.5742,-2.5742,-2.5742,-2.5742,-2.5742,-2.5742,-2.5742,-2.5742,-2.5742,-2.6572,-2.7767,-2.9039,-3.0226,-3.14,-3.2797,-3.3081,-3.3081,-3.3081,-3.3081,-3.3081,-3.3081,-3.3081,-3.3081,-3.3081,-3.3081,-3.288,-3.2303,0.0,0.0,-3.2152,-3.219,-3.2416,-3.2955,-3.3927,-3.4664,-3.4828,-3.6568,-3.7753,-3.7919,-3.8855,-3.9424,-3.9424,-3.9424,-3.9424,-3.9424,-3.9424,-3.9424,-3.9424,-4.017,-4.0622,-4.069,-4.1543,-4.2395,-4.3169,-4.3169,-4.3713,-4.4632,-4.5324,-4.6419,-4.7865,-4.854,-4.9709,-5.1086,-5.1692,-5.2,-5.2235,-5.3296,-5.3702,-5.3814,-1.7582,-1.7582,-1.7582,-1.7582,-1.7582,-1.7582,-1.7582,-1.7582,-1.7582,-1.7582,-1.7582,-1.7582,-1.7582,-1.7582,-1.7582,-1.7582,-1.7582,-1.7582,-1.7582,-1.7582,-1.7682,-1.7916,-1.7929,-1.7929,-1.7929,-1.7929,-1.7869,-1.7756,-1.7756,-1.7695,-1.7582,-1.9013,-2.0333,-2.1752,-2.3076,-2.4402,-2.5742,-2.5742,-2.5742,-2.5742,-2.5742,-2.5742,-2.5742,-2.5742,-2.5742,-2.5742,-2.5742,-2.5742,-2.5742,-2.5742,-2.5742,-2.5742,-2.5742,-2.5742,-2.5742,-2.5742,-2.6572,-2.7683,-2.8132,-2.9681,-3.15,-3.2797,-3.3081,-3.3081,-3.3081,-3.3081,-3.3081,-3.3081,-3.3081,-3.3081,-3.3081,-3.3081,-3.288,-3.2303,0.0,-3.2616,-3.2265,-3.2516,-3.283,-3.3056,-3.3484,-3.3953,-3.4664,-3.5987,-3.7098,-3.7753,-3.8782,-3.9424,-3.9424,-3.9424,-3.9424,-3.9424,-3.992,-4.0185,-4.0185,-4.0554,-4.1213,-4.2332,-4.2645,-4.3229,-4.4138,-4.4138,-4.427,-4.4643,-4.5306,-4.6129,-4.7158,-4.833,-4.9702,-5.106,-5.182,-5.2535,-5.3216,-5.3645,-5.3977,-5.4288,-1.7582,-1.7582,-1.7582,-1.7582,-1.7582,-1.7582,-1.7582,-1.7582,-1.7582,-1.7582,-1.7582,-1.7582,-1.7582,-1.7582,-1.7582,-1.7582,-1.7582,-1.7582,-1.7582,-1.7582,-1.7582,-1.7582,-1.7582,-1.7582,-1.7582,-1.7582,-1.7582,-1.7582,-1.7582,-1.7582,-1.7582,-1.8506,-1.993,-2.1752,-2.2667,-2.4097,-2.5742,-2.5742,-2.5742,-2.5742,-2.5742,-2.5742,-2.5742,-2.5742,-2.5742,-2.5742,-2.5742,-2.5742,-2.5742,-2.5742,-2.5742,-2.5742,-2.5742,-2.5742,-2.5742,-2.5742,-2.6839,-2.8132,-2.8132,-2.9954,-3.1865,-3.2426,-3.2797,-3.3081,-3.3081,-3.3081,-3.3081,-3.3081,-3.3081,-3.3081,-3.3081,-3.3081,-3.2943,-3.2554,-3.2817,-3.2943,-3.2541,-3.283,-3.3081,-3.3081,-3.3081,-3.3556,-3.4581,-3.5588,-3.6604,-3.7753,-3.8782,-3.9424,-3.9424,-3.9424,-3.9553,-3.9793,-4.0378,-4.0946,-4.1543,-4.1543,-4.2125,-4.3306,-4.3562,-4.4006,-4.4587,-4.4587,-4.472,-4.4906,-4.532,-4.6168,-4.7325,-4.8595,-4.997,-5.1347,-5.2269,-5.3134,-5.3832,-5.4099,-5.4401,-5.475,-1.7582,-1.7582,-1.7582,-1.7582,-1.7582,-1.7582,-1.7582,-1.7582,-1.7582,-1.7582,-1.7582,-1.7582,-1.7582,-1.7582,-1.7582,-1.7582,-1.7582,-1.7582,-1.7582,-1.7582,-1.7582,-1.7582,-1.7582,-1.7582,-1.7582,-1.7582,-1.7582,-1.7582,-1.7582,-1.7582,-1.7582,-1.7582,-1.9117,-2.1752,-2.1752,-2.3176,-2.5742,-2.5742,-2.5742,-2.5742,-2.5742,-2.5742,-2.5742,-2.5742,-2.5742,-2.5742,-2.5742,-2.5742,-2.5742,-2.5742,-2.5742,-2.5742,-2.5742,-2.5742,-2.5742,-2.5742,-2.7484,-2.9407,-2.9407,-3.1146,-3.2797,-3.15,-3.2152,-3.3081,-3.3081,-3.3081,-3.3081,-3.3081,-3.3081,-3.3081,-3.3081,-3.3081,-3.3081,-3.3081,-3.3081,-3.3081,-3.3081,-3.3081,-3.3081,-3.3081,-3.3081,-3.3556,-3.4581,-3.5588,-3.6682,-3.7753,-3.8782,-3.9424,-3.9424,-3.9424,-3.9809,-4.069,-4.0675,-4.1543,-4.3306,-4.3306,-4.3306,-4.3306,-4.4196,-4.457,-4.4626,-4.4626,-4.4961,-4.5511,-4.5494,-4.6698,-4.863,-4.9468,-5.0671,-5.2114,-5.3329,-5.3795,-5.3905,-5.4771,-5.5088,-5.516,-1.7582,-1.7582,-1.7582,-1.7582,-1.7582,-1.7582,-1.7582,-1.7582,-1.7582,-1.7582,-1.7582,-1.7582,-1.7582,-1.7582,-1.7582,-1.7582,-1.7582,-1.7582,-1.7582,-1.7582,-1.7582,-1.7582,-1.7582,-1.7582,-1.7582,-1.7582,-1.7582,-1.7582,-1.7582,-1.7582,-1.7582,-1.861,-1.993,-2.1752,-2.2667,-2.4097,-2.5742,-2.5742,-2.5742,-2.5742,-2.5742,-2.5742,-2.5742,-2.5742,-2.5742,-2.5742,-2.5742,-2.5742,-2.5742,-2.5742,-2.5742,-2.5742,-2.5742,-2.5742,-2.5742,-2.5742,-2.6197,-2.703,-2.7861,-2.9326,-3.0866,-3.2152,-3.2797,-3.3081,-3.3081,-3.3081,-3.3081,-3.3081,-3.3081,-3.3081,-3.3081,-3.3081,-3.3081,-3.3081,-3.3081,-3.3081,-3.3081,-3.3081,-3.3081,-3.3081,-3.3797,-3.4345,-3.4664,-3.6318,-3.7434,-3.7753,-3.8782,-3.9424,-3.9424,-3.999,-4.0432,-4.069,-4.1869,-4.2785,-4.3306,-4.3306,-4.3621,-4.4196,-4.4457,-4.4814,-4.5232,-4.5232,-4.5545,-4.6143,-4.6635,-4.7187,-4.7861,-4.9136,-5.0444,-5.1677,-5.2604,-5.3677,-5.4741,-5.4988,-5.5282,-5.5554,-1.6717,-1.7147,-1.7582,-1.7582,-1.7582,-1.7582,-1.7582,-1.7582,-1.7582,-1.7582,-1.7582,-1.7582,-1.7582,-1.7582,-1.7582,-1.7582,-1.7582,-1.7582,-1.7582,-1.7582,-1.7582,-1.7582,-1.7582,-1.7582,-1.7582,-1.7582,-1.7582,-1.7582,-1.7582,-1.7582,-1.7582,-1.8401,-1.9524,-2.0939,-2.2265,-2.3683,-2.4922,-2.543,-2.5742,-2.5742,-2.5742,-2.5742,-2.5742,-2.5742,-2.5742,-2.5742,-2.5742,-2.5742,-2.5742,-2.5742,-2.5742,-2.5742,-2.5742,-2.5742,-2.5742,-2.5742,-2.6014,-2.6668,-2.74,-2.8495,-2.9863,-3.1865,-3.2711,-3.3081,-3.3081,-3.3081,-3.3081,-3.3081,-3.3081,-3.3081,-3.3081,-3.3081,-3.3081,-3.3081,-3.3081,-3.3081,-3.3081,-3.3081,-3.3081,-3.3081,-3.4037,-3.4815,-3.5278,-3.6788,-3.7994,-3.8383,-3.9017,-3.9424,-3.9424,-4.0239,-4.0878,-4.1213,-4.2583,-4.3502,-4.3814,-4.3814,-4.4064,-4.457,-4.4869,-4.5142,-4.5511,-4.5732,-4.6192,-4.6819,-4.7237,-4.753,-4.7852,-4.9209,-5.0435,-5.1519,-5.2644,-5.3894,-5.5134,-5.5282,-5.5489,-5.5703,-1.5198,-1.6393,-1.7364,-1.7364,-1.747,-1.7582,-1.7582,-1.7582,-1.7582,-1.7582,-1.7582,-1.7582,-1.7582,-1.7582,-1.7582,-1.7582,-1.7582,-1.7582,-1.7582,-1.7582,-1.7582,-1.7582,-1.7582,-1.7582,-1.7582,-1.7582,-1.7582,-1.7582,-1.7582,-1.7582,-1.7582,-1.7582,-1.8304,-1.9627,-2.0939,-2.2366,-2.3791,-2.502,-2.5635,-2.5742,-2.5742,-2.5742,-2.5742,-2.5742,-2.5742,-2.5742,-2.5742,-2.5742,-2.5742,-2.5742,-2.5742,-2.5742,-2.5742,-2.5742,-2.5742,-2.5742,-2.6476,-2.7505,-2.7589,-2.8402,-2.9498,-3.0765,-3.1965,-3.2982,-3.3068,-3.3081,-3.3081,-3.3081,-3.3081,-3.3081,-3.3081,-3.3081,-3.3081,-3.3081,-3.3081,-3.3081,-3.3081,-3.3081,-3.3081,-3.3081,-3.4108,-3.5197,-3.6119,-3.7252,-3.8383,-3.9337,-3.9424,-3.9424,-3.9424,-4.0309,-4.1213,-4.1997,-4.2909,-4.3814,-4.457,-4.4682,-4.4665,-4.4682,-4.5232,-4.5545,-4.5699,-4.624,-4.6847,-4.747,-4.747,-4.7838,-4.8457,-4.9525,-5.057,-5.1653,-5.3129,-5.4294,-5.5186,-5.5577,-5.5703,-5.5744,-1.3804,-1.4883,-1.5849,-1.5849,-1.6823,-1.7582,-1.7582,-1.7582,-1.7582,-1.7582,-1.7582,-1.7582,-1.7582,-1.7582,-1.7582,-1.7582,-1.7582,-1.7582,-1.7582,-1.7582,-1.7582,-1.7582,-1.7582,-1.7582,-1.7582,-1.7582,-1.7582,-1.7582,-1.7582,-1.7582,-1.7582,-1.7582,-1.8304,-1.9627,-1.993,-2.1456,-2.3692,-2.3998,-2.4716,-2.5742,-2.5742,-2.5742,-2.5742,-2.5742,-2.5742,-2.5742,-2.5742,-2.5742,-2.5742,-2.5742,-2.5742,-2.5742,-2.5742,-2.5742,-2.5742,-2.5742,-2.5927,-2.6294,-2.7315,-2.7767,-2.8319,-2.9498,-3.0676,-3.1865,-3.2884,-3.3081,-3.3081,-3.3081,-3.3081,-3.3081,-3.3081,-3.3081,-3.3081,-3.3081,-3.3081,-3.3081,-3.3081,-3.3081,-3.3081,-3.3081,-3.4719,-3.5974,-3.6198,-3.789,-3.9177,-3.9352,-3.9424,-3.9424,-3.9424,-4.0894,-4.1788,-4.1997,-4.3486,-4.4384,-4.4587,-4.5089,-4.532,-4.532,-4.5459,-4.6014,-4.6999,-4.7106,-4.7512,-4.8114,-4.8114,-4.8346,-4.8797,-4.9049,-5.0422,-5.2368,-5.2717,-5.3967,-5.5577,-5.5662,-5.5761,-5.5882,-1.2295,-1.3372,-1.4449,-1.4449,-1.563,-1.6499,-1.6499,-1.7147,-1.7582,-1.7582,-1.7582,-1.7582,-1.7582,-1.7582,-1.7582,-1.7582,-1.7582,-1.7582,-1.7582,-1.7582,-1.7582,-1.7582,-1.7582,-1.7582,-1.7582,-1.7582,-1.7582,-1.7582,-1.7582,-1.7582,-1.7582,-1.7582,-1.7989,-1.8708,-1.9324,-2.0444,-2.1862,-2.3176,-2.4097,-2.4815,-2.543,-2.5742,-2.5742,-2.5742,-2.5742,-2.5742,-2.5742,-2.5742,-2.5742,-2.5742,-2.5742,-2.5742,-2.5742,-2.5742,-2.5742,-2.5742,-2.5742,-2.583,-2.6476,-2.6658,-2.703,-2.8226,-2.9498,-3.0676,-3.1877,-3.2698,-3.3081,-3.3081,-3.3081,-3.3081,-3.3081,-3.3081,-3.3081,-3.3081,-3.3081,-3.3081,-3.3081,-3.3081,-3.3326,-3.3797,-3.5278,-3.6604,-3.7648,-3.8767,-3.9424,-3.9424,-3.9424,-3.961,-3.999,-4.128,-4.2189,-4.2583,-4.3931,-4.4587,-4.4587,-4.5178,-4.5648,-4.5915,-4.6257,-4.6774,-4.7385,-4.7715,-4.8117,-4.8604,-4.8604,-4.8813,-4.9202,-4.9367,-5.0713,-5.2621,-5.2805,-5.4035,-5.5703,-5.5761,-5.5955,-5.6151,-1.0672,-1.2077,-1.3264,-1.3264,-1.4663,-1.5743,-1.5743,-1.6823,-1.7582,-1.7582,-1.7582,-1.7582,-1.7582,-1.7582,-1.7582,-1.7582,-1.7582,-1.7582,-1.7582,-1.7582,-1.7582,-1.7582,-1.7582,-1.7582,-1.7582,-1.7582,-1.7582,-1.7582,-1.7582,-1.7582,-1.7582,-1.7582,-1.7582,-1.7687,-1.8708,-1.9428,-1.9731,-2.2265,-2.3484,-2.3791,-2.5128,-2.5742,-2.5742,-2.5742,-2.5742,-2.5742,-2.5742,-2.5742,-2.5742,-2.5742,-2.5742,-2.5742,-2.5742,-2.5742,-2.5742,-2.5742,-2.5742,-2.5742,-2.5742,-2.5742,-2.5917,-2.703,-2.8226,-2.9407,-3.0586,-3.2052,-3.3081,-3.3081,-3.3081,-3.3081,-3.3081,-3.3081,-3.3081,-3.3081,-3.3081,-3.3081,-3.3081,-3.3081,-3.3471,-3.4594,-3.5748,-3.7238,-3.9192,-3.9424,-3.9424,-3.9424,-3.9424,-3.9793,-4.0622,-4.1543,-4.2395,-4.3246,-4.4138,-4.4626,-4.4776,-4.5372,-4.5965,-4.6571,-4.7237,-4.7572,-4.7572,-4.8075,-4.8513,-4.8897,-4.8897,-4.9171,-4.9636,-4.9949,-5.1037,-5.2523,-5.3042,-5.4164,-5.5568,-5.5878,-5.6167,-5.64,-0.9154,-1.1428,-1.3264,-1.3264,-1.553,-1.7259,-1.7259,-1.747,-1.7582,-1.7582,-1.7582,-1.7582,-1.7582,-1.7582,-1.7582,-1.7582,-1.7582,-1.7582,-1.7582,-1.7582,-1.7582,-1.7582,-1.7582,-1.7582,-1.7582,-1.7582,-1.7582,-1.7582,-1.7582,-1.7582,-1.7582,-1.7582,-1.7582,-1.7582,-1.7786,-1.8506,-1.9731,-2.1347,-2.2667,-2.3791,-2.5128,-2.5742,-2.5742,-2.5742,-2.5742,-2.5742,-2.5742,-2.5742,-2.5742,-2.5742,-2.5742,-2.5742,-2.5742,-2.5742,-2.5742,-2.5742,-2.5742,-2.5742,-2.5742,-2.5742,-2.5732,-2.5917,-2.6945,-2.8132,-2.9407,-3.1424,-3.3081,-3.3081,-3.3081,-3.3081,-3.3081,-3.3081,-3.3081,-3.3081,-3.3081,-3.3081,-3.3081,-3.3081,-3.3471,-3.4594,-3.6411,-3.8069,-3.9265,-3.9424,-3.9424,-3.9424,-3.9424,-3.9793,-4.0622,-4.1543,-4.2395,-4.3246,-4.4138,-4.4852,-4.5355,-4.5965,-4.6618,-4.7281,-4.7897,-4.8172,-4.8172,-4.8267,-4.8513,-4.8897,-4.8897,-4.9326,-4.9999,-5.0068,-5.0849,-5.2083,-5.301,-5.3954,-5.4955,-5.5955,-5.6359,-5.6425,-0.894,-1.0566,-1.2082,-1.2082,-1.4449,-1.6393,-1.6393,-1.7041,-1.7582,-1.7582,-1.7582,-1.7582,-1.7582,-1.7582,-1.7582,-1.7582,-1.7582,-1.7582,-1.7582,-1.7582,-1.7582,-1.7582,-1.7582,-1.7582,-1.7582,-1.7582,-1.7582,-1.7582,-1.7582,-1.7582,-1.7582,-1.7582,-1.7582,-1.7582,-1.7582,-1.7891,-1.8603,-1.993,-2.0845,-2.1558,-2.3692,-2.4609,-2.4609,-2.543,-2.5742,-2.5742,-2.5742,-2.5742,-2.5742,-2.5742,-2.5742,-2.5742,-2.5742,-2.5742,-2.5742,-2.5742,-2.5742,-2.5742,-2.5742,-2.5742,-2.5742,-2.5742,-2.6658,-2.7955,-2.9131,-3.0777,-3.2239,-3.2982,-3.3081,-3.3081,-3.3081,-3.3081,-3.3081,-3.3081,-3.3081,-3.3081,-3.3081,-3.3081,-3.3713,-3.5359,-3.742,-3.887,-3.9337,-3.9424,-3.9424,-3.9424,-3.9864,-4.05,-4.1412,-4.2252,-4.3108,-4.4006,-4.4708,-4.5232,-4.5511,-4.6495,-4.7106,-4.7385,-4.8035,-4.8306,-4.8306,-4.855,-4.8829,-4.9265,-4.9475,-4.9879,-5.044,-5.044,-5.1024,-5.201,-5.3011,-5.4321,-5.5705,-5.6205,-5.6446,-5.6522]}]]